<?xml version="1.0" encoding="UTF-8" standalone="no" ?>
<gpx xmlns="http://www.topografix.com/GPX/1/1" xmlns:xsi="http://www.w3.org/2001/XMLSchema-instance" xsi:schemaLocation="http://www.topografix.com/GPX/1/1 http://www.topografix.com/GPX/1/1/gpx.xsd" version="1.1" creator="VisuGPX - https://www.visugpx.com">
  <metadata>
    <name>Teste Monts d\'Aspremont 2013</name>
    <desc><![CDATA[Tracé teste des Monts d\'Aspremont 2013 sans le nouveau parcours coté Sambule.
]]></desc>
  </metadata>
  <trk>
    <name><![CDATA[Test_XMB_Les Monts D'Aspremont_2013_09.02.13]]></name>
    <trkseg>
      <trkpt lat="43.78427" lon="7.24478">
        <ele>504.83</ele>
        <time>2013-02-09T08:31:48Z</time>
      </trkpt>
      <trkpt lat="43.78429" lon="7.24476">
        <ele>502.43</ele>
        <time>2013-02-09T08:32:22Z</time>
      </trkpt>
      <trkpt lat="43.78427" lon="7.24476">
        <ele>502.43</ele>
        <time>2013-02-09T08:32:35Z</time>
      </trkpt>
      <trkpt lat="43.78426" lon="7.24461">
        <ele>502.43</ele>
        <time>2013-02-09T08:32:41Z</time>
      </trkpt>
      <trkpt lat="43.78433" lon="7.24408">
        <ele>504.35</ele>
        <time>2013-02-09T08:32:55Z</time>
      </trkpt>
      <trkpt lat="43.78431" lon="7.24374">
        <ele>504.83</ele>
        <time>2013-02-09T08:33:08Z</time>
      </trkpt>
      <trkpt lat="43.78432" lon="7.24366">
        <ele>505.31</ele>
        <time>2013-02-09T08:33:11Z</time>
      </trkpt>
      <trkpt lat="43.7844" lon="7.24365">
        <ele>506.27</ele>
        <time>2013-02-09T08:33:16Z</time>
      </trkpt>
      <trkpt lat="43.78448" lon="7.24368">
        <ele>506.75</ele>
        <time>2013-02-09T08:33:22Z</time>
      </trkpt>
      <trkpt lat="43.7847" lon="7.24378">
        <ele>508.19</ele>
        <time>2013-02-09T08:33:34Z</time>
      </trkpt>
      <trkpt lat="43.78495" lon="7.24391">
        <ele>511.56</ele>
        <time>2013-02-09T08:33:48Z</time>
      </trkpt>
      <trkpt lat="43.78529" lon="7.24411">
        <ele>515.4</ele>
        <time>2013-02-09T08:34:04Z</time>
      </trkpt>
      <trkpt lat="43.78565" lon="7.2443">
        <ele>519.25</ele>
        <time>2013-02-09T08:34:21Z</time>
      </trkpt>
      <trkpt lat="43.78591" lon="7.24435">
        <ele>522.61</ele>
        <time>2013-02-09T08:34:34Z</time>
      </trkpt>
      <trkpt lat="43.78621" lon="7.2443">
        <ele>526.46</ele>
        <time>2013-02-09T08:34:49Z</time>
      </trkpt>
      <trkpt lat="43.7865" lon="7.24409">
        <ele>531.75</ele>
        <time>2013-02-09T08:35:08Z</time>
      </trkpt>
      <trkpt lat="43.78662" lon="7.24408">
        <ele>533.19</ele>
        <time>2013-02-09T08:35:16Z</time>
      </trkpt>
      <trkpt lat="43.78672" lon="7.24407">
        <ele>534.15</ele>
        <time>2013-02-09T08:35:23Z</time>
      </trkpt>
      <trkpt lat="43.78673" lon="7.24405">
        <ele>534.63</ele>
        <time>2013-02-09T08:35:35Z</time>
      </trkpt>
      <trkpt lat="43.78673" lon="7.24406">
        <ele>534.15</ele>
        <time>2013-02-09T08:35:36Z</time>
      </trkpt>
      <trkpt lat="43.78665" lon="7.24407">
        <ele>533.67</ele>
        <time>2013-02-09T08:35:41Z</time>
      </trkpt>
      <trkpt lat="43.78656" lon="7.24421">
        <ele>532.71</ele>
        <time>2013-02-09T08:35:46Z</time>
      </trkpt>
      <trkpt lat="43.78642" lon="7.24459">
        <ele>536.07</ele>
        <time>2013-02-09T08:36:01Z</time>
      </trkpt>
      <trkpt lat="43.78642" lon="7.24499">
        <ele>540.4</ele>
        <time>2013-02-09T08:36:16Z</time>
      </trkpt>
      <trkpt lat="43.78649" lon="7.24547">
        <ele>544.24</ele>
        <time>2013-02-09T08:36:34Z</time>
      </trkpt>
      <trkpt lat="43.78635" lon="7.24584">
        <ele>546.65</ele>
        <time>2013-02-09T08:36:49Z</time>
      </trkpt>
      <trkpt lat="43.78604" lon="7.24601">
        <ele>552.41</ele>
        <time>2013-02-09T08:37:05Z</time>
      </trkpt>
      <trkpt lat="43.78574" lon="7.24633">
        <ele>553.38</ele>
        <time>2013-02-09T08:37:24Z</time>
      </trkpt>
      <trkpt lat="43.78561" lon="7.24662">
        <ele>554.34</ele>
        <time>2013-02-09T08:37:37Z</time>
      </trkpt>
      <trkpt lat="43.78569" lon="7.24671">
        <ele>556.74</ele>
        <time>2013-02-09T08:37:44Z</time>
      </trkpt>
      <trkpt lat="43.78593" lon="7.24649">
        <ele>557.7</ele>
        <time>2013-02-09T08:37:57Z</time>
      </trkpt>
      <trkpt lat="43.78627" lon="7.24644">
        <ele>559.14</ele>
        <time>2013-02-09T08:38:12Z</time>
      </trkpt>
      <trkpt lat="43.78658" lon="7.24674">
        <ele>561.55</ele>
        <time>2013-02-09T08:38:28Z</time>
      </trkpt>
      <trkpt lat="43.78678" lon="7.24725">
        <ele>562.03</ele>
        <time>2013-02-09T08:38:45Z</time>
      </trkpt>
      <trkpt lat="43.78684" lon="7.24748">
        <ele>563.95</ele>
        <time>2013-02-09T08:38:53Z</time>
      </trkpt>
      <trkpt lat="43.7868" lon="7.24758">
        <ele>563.95</ele>
        <time>2013-02-09T08:38:57Z</time>
      </trkpt>
      <trkpt lat="43.78652" lon="7.24787">
        <ele>563.95</ele>
        <time>2013-02-09T08:39:12Z</time>
      </trkpt>
      <trkpt lat="43.78644" lon="7.24819">
        <ele>566.35</ele>
        <time>2013-02-09T08:39:23Z</time>
      </trkpt>
      <trkpt lat="43.78658" lon="7.24887">
        <ele>570.2</ele>
        <time>2013-02-09T08:39:42Z</time>
      </trkpt>
      <trkpt lat="43.78661" lon="7.24907">
        <ele>571.16</ele>
        <time>2013-02-09T08:39:48Z</time>
      </trkpt>
      <trkpt lat="43.78654" lon="7.24917">
        <ele>571.16</ele>
        <time>2013-02-09T08:39:52Z</time>
      </trkpt>
      <trkpt lat="43.78611" lon="7.2493">
        <ele>571.16</ele>
        <time>2013-02-09T08:40:06Z</time>
      </trkpt>
      <trkpt lat="43.78571" lon="7.24951">
        <ele>571.16</ele>
        <time>2013-02-09T08:40:20Z</time>
      </trkpt>
      <trkpt lat="43.78525" lon="7.24989">
        <ele>571.16</ele>
        <time>2013-02-09T08:40:38Z</time>
      </trkpt>
      <trkpt lat="43.78491" lon="7.25034">
        <ele>569.72</ele>
        <time>2013-02-09T08:40:54Z</time>
      </trkpt>
      <trkpt lat="43.78469" lon="7.2507">
        <ele>567.32</ele>
        <time>2013-02-09T08:41:03Z</time>
      </trkpt>
      <trkpt lat="43.78453" lon="7.2509">
        <ele>564.91</ele>
        <time>2013-02-09T08:41:08Z</time>
      </trkpt>
      <trkpt lat="43.78391" lon="7.25145">
        <ele>558.66</ele>
        <time>2013-02-09T08:41:23Z</time>
      </trkpt>
      <trkpt lat="43.78319" lon="7.25188">
        <ele>550.49</ele>
        <time>2013-02-09T08:41:35Z</time>
      </trkpt>
      <trkpt lat="43.78226" lon="7.25252">
        <ele>537.99</ele>
        <time>2013-02-09T08:41:51Z</time>
      </trkpt>
      <trkpt lat="43.78205" lon="7.25268">
        <ele>535.11</ele>
        <time>2013-02-09T08:41:57Z</time>
      </trkpt>
      <trkpt lat="43.78189" lon="7.25282">
        <ele>535.59</ele>
        <time>2013-02-09T08:42:04Z</time>
      </trkpt>
      <trkpt lat="43.78186" lon="7.25279">
        <ele>535.59</ele>
        <time>2013-02-09T08:42:05Z</time>
      </trkpt>
      <trkpt lat="43.78154" lon="7.2524">
        <ele>541.84</ele>
        <time>2013-02-09T08:42:19Z</time>
      </trkpt>
      <trkpt lat="43.78153" lon="7.25236">
        <ele>542.32</ele>
        <time>2013-02-09T08:42:20Z</time>
      </trkpt>
      <trkpt lat="43.78163" lon="7.25213">
        <ele>541.84</ele>
        <time>2013-02-09T08:42:26Z</time>
      </trkpt>
      <trkpt lat="43.7817" lon="7.25204">
        <ele>540.4</ele>
        <time>2013-02-09T08:42:28Z</time>
      </trkpt>
      <trkpt lat="43.78177" lon="7.25194">
        <ele>538.96</ele>
        <time>2013-02-09T08:42:30Z</time>
      </trkpt>
      <trkpt lat="43.78195" lon="7.25161">
        <ele>535.59</ele>
        <time>2013-02-09T08:42:35Z</time>
      </trkpt>
      <trkpt lat="43.78203" lon="7.25145">
        <ele>534.63</ele>
        <time>2013-02-09T08:42:37Z</time>
      </trkpt>
      <trkpt lat="43.78216" lon="7.25113">
        <ele>532.71</ele>
        <time>2013-02-09T08:42:41Z</time>
      </trkpt>
      <trkpt lat="43.7822" lon="7.25091">
        <ele>533.19</ele>
        <time>2013-02-09T08:42:46Z</time>
      </trkpt>
      <trkpt lat="43.7822" lon="7.25077">
        <ele>535.59</ele>
        <time>2013-02-09T08:42:57Z</time>
      </trkpt>
      <trkpt lat="43.7822" lon="7.25074">
        <ele>536.07</ele>
        <time>2013-02-09T08:42:59Z</time>
      </trkpt>
      <trkpt lat="43.7822" lon="7.25059">
        <ele>539.44</ele>
        <time>2013-02-09T08:43:11Z</time>
      </trkpt>
      <trkpt lat="43.7822" lon="7.25054">
        <ele>540.4</ele>
        <time>2013-02-09T08:43:15Z</time>
      </trkpt>
      <trkpt lat="43.78221" lon="7.25045">
        <ele>541.84</ele>
        <time>2013-02-09T08:43:20Z</time>
      </trkpt>
      <trkpt lat="43.78221" lon="7.2503">
        <ele>543.76</ele>
        <time>2013-02-09T08:43:29Z</time>
      </trkpt>
      <trkpt lat="43.78218" lon="7.2502">
        <ele>545.2</ele>
        <time>2013-02-09T08:43:35Z</time>
      </trkpt>
      <trkpt lat="43.78216" lon="7.25">
        <ele>548.09</ele>
        <time>2013-02-09T08:43:49Z</time>
      </trkpt>
      <trkpt lat="43.78212" lon="7.24991">
        <ele>550.01</ele>
        <time>2013-02-09T08:43:57Z</time>
      </trkpt>
      <trkpt lat="43.7821" lon="7.24981">
        <ele>552.41</ele>
        <time>2013-02-09T08:44:05Z</time>
      </trkpt>
      <trkpt lat="43.78203" lon="7.24955">
        <ele>556.26</ele>
        <time>2013-02-09T08:44:24Z</time>
      </trkpt>
      <trkpt lat="43.78202" lon="7.2495">
        <ele>556.74</ele>
        <time>2013-02-09T08:44:28Z</time>
      </trkpt>
      <trkpt lat="43.782" lon="7.24947">
        <ele>557.22</ele>
        <time>2013-02-09T08:44:31Z</time>
      </trkpt>
      <trkpt lat="43.78199" lon="7.24941">
        <ele>557.7</ele>
        <time>2013-02-09T08:44:36Z</time>
      </trkpt>
      <trkpt lat="43.78187" lon="7.24932">
        <ele>561.07</ele>
        <time>2013-02-09T08:44:51Z</time>
      </trkpt>
      <trkpt lat="43.78176" lon="7.24917">
        <ele>563.47</ele>
        <time>2013-02-09T08:45:05Z</time>
      </trkpt>
      <trkpt lat="43.7817" lon="7.24912">
        <ele>563.95</ele>
        <time>2013-02-09T08:45:10Z</time>
      </trkpt>
      <trkpt lat="43.7815" lon="7.24898">
        <ele>566.35</ele>
        <time>2013-02-09T08:45:27Z</time>
      </trkpt>
      <trkpt lat="43.78129" lon="7.24883">
        <ele>569.72</ele>
        <time>2013-02-09T08:45:39Z</time>
      </trkpt>
      <trkpt lat="43.78109" lon="7.2488">
        <ele>574.53</ele>
        <time>2013-02-09T08:45:51Z</time>
      </trkpt>
      <trkpt lat="43.78098" lon="7.24881">
        <ele>576.45</ele>
        <time>2013-02-09T08:46:02Z</time>
      </trkpt>
      <trkpt lat="43.78089" lon="7.24882">
        <ele>577.89</ele>
        <time>2013-02-09T08:46:14Z</time>
      </trkpt>
      <trkpt lat="43.78087" lon="7.24884">
        <ele>578.37</ele>
        <time>2013-02-09T08:46:16Z</time>
      </trkpt>
      <trkpt lat="43.78075" lon="7.24882">
        <ele>579.81</ele>
        <time>2013-02-09T08:46:29Z</time>
      </trkpt>
      <trkpt lat="43.78074" lon="7.24881">
        <ele>580.29</ele>
        <time>2013-02-09T08:46:31Z</time>
      </trkpt>
      <trkpt lat="43.78065" lon="7.24883">
        <ele>582.7</ele>
        <time>2013-02-09T08:46:39Z</time>
      </trkpt>
      <trkpt lat="43.78058" lon="7.24883">
        <ele>583.66</ele>
        <time>2013-02-09T08:46:46Z</time>
      </trkpt>
      <trkpt lat="43.78044" lon="7.24883">
        <ele>588.95</ele>
        <time>2013-02-09T08:47:01Z</time>
      </trkpt>
      <trkpt lat="43.7803" lon="7.24884">
        <ele>592.79</ele>
        <time>2013-02-09T08:47:16Z</time>
      </trkpt>
      <trkpt lat="43.78021" lon="7.24883">
        <ele>595.19</ele>
        <time>2013-02-09T08:47:27Z</time>
      </trkpt>
      <trkpt lat="43.78014" lon="7.24883">
        <ele>597.12</ele>
        <time>2013-02-09T08:47:34Z</time>
      </trkpt>
      <trkpt lat="43.78002" lon="7.24878">
        <ele>600</ele>
        <time>2013-02-09T08:47:48Z</time>
      </trkpt>
      <trkpt lat="43.77988" lon="7.24875">
        <ele>599.52</ele>
        <time>2013-02-09T08:47:58Z</time>
      </trkpt>
      <trkpt lat="43.77985" lon="7.24872">
        <ele>599.04</ele>
        <time>2013-02-09T08:48:00Z</time>
      </trkpt>
      <trkpt lat="43.77983" lon="7.24852">
        <ele>599.04</ele>
        <time>2013-02-09T08:48:11Z</time>
      </trkpt>
      <trkpt lat="43.7798" lon="7.24838">
        <ele>599.52</ele>
        <time>2013-02-09T08:48:21Z</time>
      </trkpt>
      <trkpt lat="43.77977" lon="7.24818">
        <ele>602.4</ele>
        <time>2013-02-09T08:48:35Z</time>
      </trkpt>
      <trkpt lat="43.77974" lon="7.24806">
        <ele>604.33</ele>
        <time>2013-02-09T08:48:46Z</time>
      </trkpt>
      <trkpt lat="43.77974" lon="7.24804">
        <ele>604.33</ele>
        <time>2013-02-09T08:48:47Z</time>
      </trkpt>
      <trkpt lat="43.77968" lon="7.24792">
        <ele>606.73</ele>
        <time>2013-02-09T08:48:59Z</time>
      </trkpt>
      <trkpt lat="43.77965" lon="7.24796">
        <ele>608.65</ele>
        <time>2013-02-09T08:49:09Z</time>
      </trkpt>
      <trkpt lat="43.7796" lon="7.24803">
        <ele>610.09</ele>
        <time>2013-02-09T08:49:21Z</time>
      </trkpt>
      <trkpt lat="43.77953" lon="7.24813">
        <ele>613.94</ele>
        <time>2013-02-09T08:49:34Z</time>
      </trkpt>
      <trkpt lat="43.77944" lon="7.24819">
        <ele>616.34</ele>
        <time>2013-02-09T08:49:47Z</time>
      </trkpt>
      <trkpt lat="43.77939" lon="7.24821">
        <ele>617.3</ele>
        <time>2013-02-09T08:49:59Z</time>
      </trkpt>
      <trkpt lat="43.77934" lon="7.24816">
        <ele>619.23</ele>
        <time>2013-02-09T08:50:07Z</time>
      </trkpt>
      <trkpt lat="43.77934" lon="7.24813">
        <ele>619.23</ele>
        <time>2013-02-09T08:50:09Z</time>
      </trkpt>
      <trkpt lat="43.77926" lon="7.24809">
        <ele>621.63</ele>
        <time>2013-02-09T08:50:24Z</time>
      </trkpt>
      <trkpt lat="43.77925" lon="7.24813">
        <ele>622.59</ele>
        <time>2013-02-09T08:50:29Z</time>
      </trkpt>
      <trkpt lat="43.77919" lon="7.24811">
        <ele>624.51</ele>
        <time>2013-02-09T08:50:37Z</time>
      </trkpt>
      <trkpt lat="43.77907" lon="7.24806">
        <ele>626.44</ele>
        <time>2013-02-09T08:50:53Z</time>
      </trkpt>
      <trkpt lat="43.77903" lon="7.24809">
        <ele>627.88</ele>
        <time>2013-02-09T08:50:58Z</time>
      </trkpt>
      <trkpt lat="43.77898" lon="7.24816">
        <ele>629.32</ele>
        <time>2013-02-09T08:51:06Z</time>
      </trkpt>
      <trkpt lat="43.77885" lon="7.24826">
        <ele>632.2</ele>
        <time>2013-02-09T08:51:21Z</time>
      </trkpt>
      <trkpt lat="43.77876" lon="7.24836">
        <ele>635.09</ele>
        <time>2013-02-09T08:51:34Z</time>
      </trkpt>
      <trkpt lat="43.77865" lon="7.24842">
        <ele>637.97</ele>
        <time>2013-02-09T08:51:48Z</time>
      </trkpt>
      <trkpt lat="43.77859" lon="7.24845">
        <ele>639.41</ele>
        <time>2013-02-09T08:51:54Z</time>
      </trkpt>
      <trkpt lat="43.77857" lon="7.24847">
        <ele>639.89</ele>
        <time>2013-02-09T08:51:57Z</time>
      </trkpt>
      <trkpt lat="43.77852" lon="7.24852">
        <ele>641.82</ele>
        <time>2013-02-09T08:52:05Z</time>
      </trkpt>
      <trkpt lat="43.7785" lon="7.24854">
        <ele>642.3</ele>
        <time>2013-02-09T08:52:08Z</time>
      </trkpt>
      <trkpt lat="43.77849" lon="7.24857">
        <ele>642.78</ele>
        <time>2013-02-09T08:52:15Z</time>
      </trkpt>
      <trkpt lat="43.77843" lon="7.24862">
        <ele>643.26</ele>
        <time>2013-02-09T08:52:27Z</time>
      </trkpt>
      <trkpt lat="43.77833" lon="7.24865">
        <ele>645.66</ele>
        <time>2013-02-09T08:52:40Z</time>
      </trkpt>
      <trkpt lat="43.77823" lon="7.2487">
        <ele>649.03</ele>
        <time>2013-02-09T08:52:53Z</time>
      </trkpt>
      <trkpt lat="43.77812" lon="7.24878">
        <ele>651.43</ele>
        <time>2013-02-09T08:53:08Z</time>
      </trkpt>
      <trkpt lat="43.7781" lon="7.24878">
        <ele>652.39</ele>
        <time>2013-02-09T08:53:11Z</time>
      </trkpt>
      <trkpt lat="43.77805" lon="7.24876">
        <ele>653.83</ele>
        <time>2013-02-09T08:53:17Z</time>
      </trkpt>
      <trkpt lat="43.77793" lon="7.24875">
        <ele>657.2</ele>
        <time>2013-02-09T08:53:30Z</time>
      </trkpt>
      <trkpt lat="43.77789" lon="7.24878">
        <ele>657.68</ele>
        <time>2013-02-09T08:53:35Z</time>
      </trkpt>
      <trkpt lat="43.77785" lon="7.24882">
        <ele>658.64</ele>
        <time>2013-02-09T08:53:52Z</time>
      </trkpt>
      <trkpt lat="43.77782" lon="7.24882">
        <ele>658.64</ele>
        <time>2013-02-09T08:54:12Z</time>
      </trkpt>
      <trkpt lat="43.77783" lon="7.24882">
        <ele>659.12</ele>
        <time>2013-02-09T08:54:30Z</time>
      </trkpt>
      <trkpt lat="43.77783" lon="7.24883">
        <ele>658.16</ele>
        <time>2013-02-09T08:54:53Z</time>
      </trkpt>
      <trkpt lat="43.7778" lon="7.24886">
        <ele>659.12</ele>
        <time>2013-02-09T08:55:02Z</time>
      </trkpt>
      <trkpt lat="43.77775" lon="7.24891">
        <ele>659.6</ele>
        <time>2013-02-09T08:55:06Z</time>
      </trkpt>
      <trkpt lat="43.77768" lon="7.24898">
        <ele>660.08</ele>
        <time>2013-02-09T08:55:11Z</time>
      </trkpt>
      <trkpt lat="43.77728" lon="7.2491">
        <ele>660.08</ele>
        <time>2013-02-09T08:55:26Z</time>
      </trkpt>
      <trkpt lat="43.77697" lon="7.24923">
        <ele>660.08</ele>
        <time>2013-02-09T08:55:35Z</time>
      </trkpt>
      <trkpt lat="43.77683" lon="7.24919">
        <ele>660.56</ele>
        <time>2013-02-09T08:55:39Z</time>
      </trkpt>
      <trkpt lat="43.77648" lon="7.24909">
        <ele>663.93</ele>
        <time>2013-02-09T08:55:51Z</time>
      </trkpt>
      <trkpt lat="43.77627" lon="7.24909">
        <ele>666.81</ele>
        <time>2013-02-09T08:56:01Z</time>
      </trkpt>
      <trkpt lat="43.77606" lon="7.24909">
        <ele>668.73</ele>
        <time>2013-02-09T08:56:11Z</time>
      </trkpt>
      <trkpt lat="43.77567" lon="7.24921">
        <ele>666.33</ele>
        <time>2013-02-09T08:56:24Z</time>
      </trkpt>
      <trkpt lat="43.77565" lon="7.24923">
        <ele>665.85</ele>
        <time>2013-02-09T08:56:26Z</time>
      </trkpt>
      <trkpt lat="43.77538" lon="7.24931">
        <ele>666.33</ele>
        <time>2013-02-09T08:56:37Z</time>
      </trkpt>
      <trkpt lat="43.77531" lon="7.24932">
        <ele>666.33</ele>
        <time>2013-02-09T08:56:40Z</time>
      </trkpt>
      <trkpt lat="43.77487" lon="7.24941">
        <ele>666.81</ele>
        <time>2013-02-09T08:56:55Z</time>
      </trkpt>
      <trkpt lat="43.77457" lon="7.24945">
        <ele>668.73</ele>
        <time>2013-02-09T08:57:06Z</time>
      </trkpt>
      <trkpt lat="43.77431" lon="7.24943">
        <ele>671.14</ele>
        <time>2013-02-09T08:57:17Z</time>
      </trkpt>
      <trkpt lat="43.77412" lon="7.24948">
        <ele>672.58</ele>
        <time>2013-02-09T08:57:31Z</time>
      </trkpt>
      <trkpt lat="43.77405" lon="7.2495">
        <ele>673.54</ele>
        <time>2013-02-09T08:57:45Z</time>
      </trkpt>
      <trkpt lat="43.77391" lon="7.2495">
        <ele>674.02</ele>
        <time>2013-02-09T08:57:55Z</time>
      </trkpt>
      <trkpt lat="43.77378" lon="7.24949">
        <ele>674.98</ele>
        <time>2013-02-09T08:58:08Z</time>
      </trkpt>
      <trkpt lat="43.77371" lon="7.24953">
        <ele>675.94</ele>
        <time>2013-02-09T08:58:15Z</time>
      </trkpt>
      <trkpt lat="43.77362" lon="7.24954">
        <ele>677.39</ele>
        <time>2013-02-09T08:58:23Z</time>
      </trkpt>
      <trkpt lat="43.77358" lon="7.24956">
        <ele>677.87</ele>
        <time>2013-02-09T08:58:29Z</time>
      </trkpt>
      <trkpt lat="43.77344" lon="7.2496">
        <ele>680.27</ele>
        <time>2013-02-09T08:58:45Z</time>
      </trkpt>
      <trkpt lat="43.77338" lon="7.24961">
        <ele>680.75</ele>
        <time>2013-02-09T08:58:51Z</time>
      </trkpt>
      <trkpt lat="43.77335" lon="7.24962">
        <ele>681.23</ele>
        <time>2013-02-09T08:58:54Z</time>
      </trkpt>
      <trkpt lat="43.7732" lon="7.24963">
        <ele>683.15</ele>
        <time>2013-02-09T08:59:09Z</time>
      </trkpt>
      <trkpt lat="43.77312" lon="7.24966">
        <ele>683.63</ele>
        <time>2013-02-09T08:59:19Z</time>
      </trkpt>
      <trkpt lat="43.7731" lon="7.24966">
        <ele>684.12</ele>
        <time>2013-02-09T08:59:21Z</time>
      </trkpt>
      <trkpt lat="43.77304" lon="7.24968">
        <ele>684.12</ele>
        <time>2013-02-09T08:59:26Z</time>
      </trkpt>
      <trkpt lat="43.77292" lon="7.24971">
        <ele>686.52</ele>
        <time>2013-02-09T08:59:38Z</time>
      </trkpt>
      <trkpt lat="43.77272" lon="7.24973">
        <ele>686.52</ele>
        <time>2013-02-09T08:59:49Z</time>
      </trkpt>
      <trkpt lat="43.77227" lon="7.24982">
        <ele>687.96</ele>
        <time>2013-02-09T09:00:04Z</time>
      </trkpt>
      <trkpt lat="43.77194" lon="7.24989">
        <ele>688.92</ele>
        <time>2013-02-09T09:00:15Z</time>
      </trkpt>
      <trkpt lat="43.77188" lon="7.2499">
        <ele>688.92</ele>
        <time>2013-02-09T09:00:17Z</time>
      </trkpt>
      <trkpt lat="43.77171" lon="7.24989">
        <ele>688.44</ele>
        <time>2013-02-09T09:00:21Z</time>
      </trkpt>
      <trkpt lat="43.77162" lon="7.24991">
        <ele>688.44</ele>
        <time>2013-02-09T09:00:23Z</time>
      </trkpt>
      <trkpt lat="43.77135" lon="7.24993">
        <ele>688.92</ele>
        <time>2013-02-09T09:00:29Z</time>
      </trkpt>
      <trkpt lat="43.77114" lon="7.24992">
        <ele>688.44</ele>
        <time>2013-02-09T09:00:34Z</time>
      </trkpt>
      <trkpt lat="43.77106" lon="7.24992">
        <ele>688.44</ele>
        <time>2013-02-09T09:00:36Z</time>
      </trkpt>
      <trkpt lat="43.77079" lon="7.24993">
        <ele>688.92</ele>
        <time>2013-02-09T09:00:42Z</time>
      </trkpt>
      <trkpt lat="43.77047" lon="7.2497">
        <ele>689.88</ele>
        <time>2013-02-09T09:00:51Z</time>
      </trkpt>
      <trkpt lat="43.77036" lon="7.24965">
        <ele>690.84</ele>
        <time>2013-02-09T09:00:55Z</time>
      </trkpt>
      <trkpt lat="43.77024" lon="7.24967">
        <ele>690.84</ele>
        <time>2013-02-09T09:01:05Z</time>
      </trkpt>
      <trkpt lat="43.7701" lon="7.24979">
        <ele>691.33</ele>
        <time>2013-02-09T09:01:19Z</time>
      </trkpt>
      <trkpt lat="43.77003" lon="7.24982">
        <ele>690.84</ele>
        <time>2013-02-09T09:01:24Z</time>
      </trkpt>
      <trkpt lat="43.76973" lon="7.24995">
        <ele>689.4</ele>
        <time>2013-02-09T09:01:37Z</time>
      </trkpt>
      <trkpt lat="43.76969" lon="7.24996">
        <ele>688.92</ele>
        <time>2013-02-09T09:01:38Z</time>
      </trkpt>
      <trkpt lat="43.76935" lon="7.25008">
        <ele>685.56</ele>
        <time>2013-02-09T09:01:49Z</time>
      </trkpt>
      <trkpt lat="43.76931" lon="7.2501">
        <ele>685.08</ele>
        <time>2013-02-09T09:01:50Z</time>
      </trkpt>
      <trkpt lat="43.76913" lon="7.25021">
        <ele>683.15</ele>
        <time>2013-02-09T09:01:55Z</time>
      </trkpt>
      <trkpt lat="43.76897" lon="7.2503">
        <ele>681.71</ele>
        <time>2013-02-09T09:01:59Z</time>
      </trkpt>
      <trkpt lat="43.76887" lon="7.25043">
        <ele>678.35</ele>
        <time>2013-02-09T09:02:06Z</time>
      </trkpt>
      <trkpt lat="43.76896" lon="7.25065">
        <ele>679.31</ele>
        <time>2013-02-09T09:02:14Z</time>
      </trkpt>
      <trkpt lat="43.76897" lon="7.25112">
        <ele>682.19</ele>
        <time>2013-02-09T09:02:30Z</time>
      </trkpt>
      <trkpt lat="43.76895" lon="7.25152">
        <ele>685.56</ele>
        <time>2013-02-09T09:02:44Z</time>
      </trkpt>
      <trkpt lat="43.7689" lon="7.25198">
        <ele>688.44</ele>
        <time>2013-02-09T09:02:59Z</time>
      </trkpt>
      <trkpt lat="43.7689" lon="7.25204">
        <ele>688.92</ele>
        <time>2013-02-09T09:03:01Z</time>
      </trkpt>
      <trkpt lat="43.76899" lon="7.252">
        <ele>689.4</ele>
        <time>2013-02-09T09:03:09Z</time>
      </trkpt>
      <trkpt lat="43.76912" lon="7.25157">
        <ele>692.77</ele>
        <time>2013-02-09T09:03:27Z</time>
      </trkpt>
      <trkpt lat="43.76926" lon="7.25132">
        <ele>696.13</ele>
        <time>2013-02-09T09:03:40Z</time>
      </trkpt>
      <trkpt lat="43.76951" lon="7.25106">
        <ele>699.5</ele>
        <time>2013-02-09T09:03:58Z</time>
      </trkpt>
      <trkpt lat="43.76972" lon="7.25082">
        <ele>703.34</ele>
        <time>2013-02-09T09:04:13Z</time>
      </trkpt>
      <trkpt lat="43.76976" lon="7.25092">
        <ele>703.82</ele>
        <time>2013-02-09T09:04:19Z</time>
      </trkpt>
      <trkpt lat="43.76962" lon="7.25114">
        <ele>703.34</ele>
        <time>2013-02-09T09:04:30Z</time>
      </trkpt>
      <trkpt lat="43.76954" lon="7.25132">
        <ele>703.82</ele>
        <time>2013-02-09T09:04:38Z</time>
      </trkpt>
      <trkpt lat="43.76934" lon="7.25176">
        <ele>705.26</ele>
        <time>2013-02-09T09:04:56Z</time>
      </trkpt>
      <trkpt lat="43.76923" lon="7.25217">
        <ele>709.11</ele>
        <time>2013-02-09T09:05:13Z</time>
      </trkpt>
      <trkpt lat="43.76917" lon="7.25252">
        <ele>712.47</ele>
        <time>2013-02-09T09:05:28Z</time>
      </trkpt>
      <trkpt lat="43.76913" lon="7.25264">
        <ele>714.88</ele>
        <time>2013-02-09T09:05:33Z</time>
      </trkpt>
      <trkpt lat="43.76911" lon="7.25273">
        <ele>716.8</ele>
        <time>2013-02-09T09:05:38Z</time>
      </trkpt>
      <trkpt lat="43.76903" lon="7.25303">
        <ele>722.09</ele>
        <time>2013-02-09T09:05:51Z</time>
      </trkpt>
      <trkpt lat="43.76888" lon="7.25321">
        <ele>725.93</ele>
        <time>2013-02-09T09:06:04Z</time>
      </trkpt>
      <trkpt lat="43.76875" lon="7.25345">
        <ele>728.82</ele>
        <time>2013-02-09T09:06:17Z</time>
      </trkpt>
      <trkpt lat="43.76868" lon="7.2537">
        <ele>731.22</ele>
        <time>2013-02-09T09:06:30Z</time>
      </trkpt>
      <trkpt lat="43.76864" lon="7.2541">
        <ele>732.66</ele>
        <time>2013-02-09T09:06:47Z</time>
      </trkpt>
      <trkpt lat="43.7685" lon="7.25442">
        <ele>736.99</ele>
        <time>2013-02-09T09:07:02Z</time>
      </trkpt>
      <trkpt lat="43.76841" lon="7.25469">
        <ele>738.43</ele>
        <time>2013-02-09T09:07:15Z</time>
      </trkpt>
      <trkpt lat="43.76839" lon="7.25499">
        <ele>740.35</ele>
        <time>2013-02-09T09:07:28Z</time>
      </trkpt>
      <trkpt lat="43.76831" lon="7.25529">
        <ele>742.28</ele>
        <time>2013-02-09T09:07:41Z</time>
      </trkpt>
      <trkpt lat="43.76829" lon="7.25535">
        <ele>743.24</ele>
        <time>2013-02-09T09:07:44Z</time>
      </trkpt>
      <trkpt lat="43.76826" lon="7.25553">
        <ele>744.2</ele>
        <time>2013-02-09T09:07:52Z</time>
      </trkpt>
      <trkpt lat="43.76826" lon="7.25563">
        <ele>745.16</ele>
        <time>2013-02-09T09:07:56Z</time>
      </trkpt>
      <trkpt lat="43.76828" lon="7.25574">
        <ele>744.2</ele>
        <time>2013-02-09T09:08:01Z</time>
      </trkpt>
      <trkpt lat="43.76839" lon="7.2562">
        <ele>745.64</ele>
        <time>2013-02-09T09:08:20Z</time>
      </trkpt>
      <trkpt lat="43.76849" lon="7.25645">
        <ele>748.52</ele>
        <time>2013-02-09T09:08:35Z</time>
      </trkpt>
      <trkpt lat="43.76849" lon="7.25645">
        <ele>748.52</ele>
        <time>2013-02-09T09:08:36Z</time>
      </trkpt>
      <trkpt lat="43.76844" lon="7.25619">
        <ele>750.93</ele>
        <time>2013-02-09T09:08:49Z</time>
      </trkpt>
      <trkpt lat="43.76841" lon="7.25585">
        <ele>753.33</ele>
        <time>2013-02-09T09:09:05Z</time>
      </trkpt>
      <trkpt lat="43.76849" lon="7.25551">
        <ele>756.69</ele>
        <time>2013-02-09T09:09:20Z</time>
      </trkpt>
      <trkpt lat="43.76856" lon="7.25528">
        <ele>758.14</ele>
        <time>2013-02-09T09:09:31Z</time>
      </trkpt>
      <trkpt lat="43.76862" lon="7.25534">
        <ele>758.62</ele>
        <time>2013-02-09T09:09:36Z</time>
      </trkpt>
      <trkpt lat="43.76856" lon="7.25575">
        <ele>760.06</ele>
        <time>2013-02-09T09:09:49Z</time>
      </trkpt>
      <trkpt lat="43.76866" lon="7.25606">
        <ele>763.42</ele>
        <time>2013-02-09T09:10:03Z</time>
      </trkpt>
      <trkpt lat="43.76884" lon="7.25632">
        <ele>765.83</ele>
        <time>2013-02-09T09:10:18Z</time>
      </trkpt>
      <trkpt lat="43.76903" lon="7.25655">
        <ele>767.75</ele>
        <time>2013-02-09T09:10:32Z</time>
      </trkpt>
      <trkpt lat="43.76921" lon="7.25683">
        <ele>771.11</ele>
        <time>2013-02-09T09:10:48Z</time>
      </trkpt>
      <trkpt lat="43.76933" lon="7.25703">
        <ele>774.48</ele>
        <time>2013-02-09T09:10:58Z</time>
      </trkpt>
      <trkpt lat="43.76933" lon="7.2569">
        <ele>776.4</ele>
        <time>2013-02-09T09:11:07Z</time>
      </trkpt>
      <trkpt lat="43.7692" lon="7.2565">
        <ele>780.25</ele>
        <time>2013-02-09T09:11:26Z</time>
      </trkpt>
      <trkpt lat="43.76907" lon="7.25611">
        <ele>782.17</ele>
        <time>2013-02-09T09:11:44Z</time>
      </trkpt>
      <trkpt lat="43.76896" lon="7.25578">
        <ele>785.53</ele>
        <time>2013-02-09T09:11:59Z</time>
      </trkpt>
      <trkpt lat="43.76905" lon="7.25579">
        <ele>786.5</ele>
        <time>2013-02-09T09:12:06Z</time>
      </trkpt>
      <trkpt lat="43.76922" lon="7.25611">
        <ele>790.82</ele>
        <time>2013-02-09T09:12:22Z</time>
      </trkpt>
      <trkpt lat="43.76945" lon="7.2564">
        <ele>793.71</ele>
        <time>2013-02-09T09:12:39Z</time>
      </trkpt>
      <trkpt lat="43.76963" lon="7.25671">
        <ele>798.51</ele>
        <time>2013-02-09T09:12:55Z</time>
      </trkpt>
      <trkpt lat="43.76964" lon="7.25672">
        <ele>798.99</ele>
        <time>2013-02-09T09:12:56Z</time>
      </trkpt>
      <trkpt lat="43.76968" lon="7.25661">
        <ele>799.95</ele>
        <time>2013-02-09T09:13:05Z</time>
      </trkpt>
      <trkpt lat="43.76954" lon="7.25625">
        <ele>802.36</ele>
        <time>2013-02-09T09:13:22Z</time>
      </trkpt>
      <trkpt lat="43.76937" lon="7.25586">
        <ele>805.24</ele>
        <time>2013-02-09T09:13:38Z</time>
      </trkpt>
      <trkpt lat="43.76932" lon="7.25563">
        <ele>805.72</ele>
        <time>2013-02-09T09:13:47Z</time>
      </trkpt>
      <trkpt lat="43.76943" lon="7.25578">
        <ele>808.13</ele>
        <time>2013-02-09T09:13:57Z</time>
      </trkpt>
      <trkpt lat="43.76964" lon="7.25607">
        <ele>811.97</ele>
        <time>2013-02-09T09:14:13Z</time>
      </trkpt>
      <trkpt lat="43.76982" lon="7.25634">
        <ele>815.34</ele>
        <time>2013-02-09T09:14:27Z</time>
      </trkpt>
      <trkpt lat="43.76981" lon="7.2562">
        <ele>816.3</ele>
        <time>2013-02-09T09:14:36Z</time>
      </trkpt>
      <trkpt lat="43.76966" lon="7.25584">
        <ele>818.7</ele>
        <time>2013-02-09T09:14:53Z</time>
      </trkpt>
      <trkpt lat="43.76958" lon="7.25544">
        <ele>821.58</ele>
        <time>2013-02-09T09:15:10Z</time>
      </trkpt>
      <trkpt lat="43.76964" lon="7.25495">
        <ele>823.99</ele>
        <time>2013-02-09T09:15:28Z</time>
      </trkpt>
      <trkpt lat="43.76978" lon="7.25452">
        <ele>823.99</ele>
        <time>2013-02-09T09:15:45Z</time>
      </trkpt>
      <trkpt lat="43.77" lon="7.25405">
        <ele>829.27</ele>
        <time>2013-02-09T09:16:06Z</time>
      </trkpt>
      <trkpt lat="43.77007" lon="7.2539">
        <ele>832.64</ele>
        <time>2013-02-09T09:16:20Z</time>
      </trkpt>
      <trkpt lat="43.77008" lon="7.25386">
        <ele>832.16</ele>
        <time>2013-02-09T09:16:32Z</time>
      </trkpt>
      <trkpt lat="43.7701" lon="7.25376">
        <ele>829.27</ele>
        <time>2013-02-09T09:16:42Z</time>
      </trkpt>
      <trkpt lat="43.77019" lon="7.2536">
        <ele>827.35</ele>
        <time>2013-02-09T09:16:56Z</time>
      </trkpt>
      <trkpt lat="43.77024" lon="7.25355">
        <ele>827.83</ele>
        <time>2013-02-09T09:17:02Z</time>
      </trkpt>
      <trkpt lat="43.77039" lon="7.25353">
        <ele>828.31</ele>
        <time>2013-02-09T09:17:16Z</time>
      </trkpt>
      <trkpt lat="43.77048" lon="7.25351">
        <ele>826.39</ele>
        <time>2013-02-09T09:17:25Z</time>
      </trkpt>
      <trkpt lat="43.77055" lon="7.25347">
        <ele>824.47</ele>
        <time>2013-02-09T09:17:30Z</time>
      </trkpt>
      <trkpt lat="43.7707" lon="7.25352">
        <ele>826.87</ele>
        <time>2013-02-09T09:17:44Z</time>
      </trkpt>
      <trkpt lat="43.77078" lon="7.25357">
        <ele>831.2</ele>
        <time>2013-02-09T09:17:59Z</time>
      </trkpt>
      <trkpt lat="43.77085" lon="7.2536">
        <ele>832.16</ele>
        <time>2013-02-09T09:18:10Z</time>
      </trkpt>
      <trkpt lat="43.77088" lon="7.2536">
        <ele>832.64</ele>
        <time>2013-02-09T09:18:13Z</time>
      </trkpt>
      <trkpt lat="43.7709" lon="7.25359">
        <ele>833.12</ele>
        <time>2013-02-09T09:18:15Z</time>
      </trkpt>
      <trkpt lat="43.77105" lon="7.25364">
        <ele>834.08</ele>
        <time>2013-02-09T09:18:30Z</time>
      </trkpt>
      <trkpt lat="43.77108" lon="7.25365">
        <ele>833.6</ele>
        <time>2013-02-09T09:18:33Z</time>
      </trkpt>
      <trkpt lat="43.77119" lon="7.25367">
        <ele>834.56</ele>
        <time>2013-02-09T09:18:43Z</time>
      </trkpt>
      <trkpt lat="43.77137" lon="7.25372">
        <ele>835.52</ele>
        <time>2013-02-09T09:18:54Z</time>
      </trkpt>
      <trkpt lat="43.77163" lon="7.25391">
        <ele>838.89</ele>
        <time>2013-02-09T09:19:08Z</time>
      </trkpt>
      <trkpt lat="43.77171" lon="7.25414">
        <ele>841.29</ele>
        <time>2013-02-09T09:19:20Z</time>
      </trkpt>
      <trkpt lat="43.77174" lon="7.25426">
        <ele>840.81</ele>
        <time>2013-02-09T09:19:25Z</time>
      </trkpt>
      <trkpt lat="43.77174" lon="7.25465">
        <ele>840.81</ele>
        <time>2013-02-09T09:19:37Z</time>
      </trkpt>
      <trkpt lat="43.77195" lon="7.25458">
        <ele>837.45</ele>
        <time>2013-02-09T09:21:01Z</time>
      </trkpt>
      <trkpt lat="43.77207" lon="7.25441">
        <ele>835.52</ele>
        <time>2013-02-09T09:21:08Z</time>
      </trkpt>
      <trkpt lat="43.77214" lon="7.25437">
        <ele>835.52</ele>
        <time>2013-02-09T09:21:11Z</time>
      </trkpt>
      <trkpt lat="43.77222" lon="7.25438">
        <ele>833.6</ele>
        <time>2013-02-09T09:21:18Z</time>
      </trkpt>
      <trkpt lat="43.77233" lon="7.25456">
        <ele>827.83</ele>
        <time>2013-02-09T09:21:27Z</time>
      </trkpt>
      <trkpt lat="43.77242" lon="7.25482">
        <ele>819.66</ele>
        <time>2013-02-09T09:21:36Z</time>
      </trkpt>
      <trkpt lat="43.77245" lon="7.2549">
        <ele>816.78</ele>
        <time>2013-02-09T09:21:39Z</time>
      </trkpt>
      <trkpt lat="43.77253" lon="7.2551">
        <ele>807.16</ele>
        <time>2013-02-09T09:21:49Z</time>
      </trkpt>
      <trkpt lat="43.77256" lon="7.25511">
        <ele>807.64</ele>
        <time>2013-02-09T09:22:03Z</time>
      </trkpt>
      <trkpt lat="43.77257" lon="7.25512">
        <ele>806.68</ele>
        <time>2013-02-09T09:22:07Z</time>
      </trkpt>
      <trkpt lat="43.77268" lon="7.2552">
        <ele>802.36</ele>
        <time>2013-02-09T09:22:17Z</time>
      </trkpt>
      <trkpt lat="43.77272" lon="7.25522">
        <ele>800.44</ele>
        <time>2013-02-09T09:22:25Z</time>
      </trkpt>
      <trkpt lat="43.77282" lon="7.25545">
        <ele>793.71</ele>
        <time>2013-02-09T09:22:35Z</time>
      </trkpt>
      <trkpt lat="43.77285" lon="7.25547">
        <ele>792.26</ele>
        <time>2013-02-09T09:22:37Z</time>
      </trkpt>
      <trkpt lat="43.77295" lon="7.2555">
        <ele>789.86</ele>
        <time>2013-02-09T09:22:40Z</time>
      </trkpt>
      <trkpt lat="43.77304" lon="7.25575">
        <ele>782.17</ele>
        <time>2013-02-09T09:22:50Z</time>
      </trkpt>
      <trkpt lat="43.77305" lon="7.25581">
        <ele>780.73</ele>
        <time>2013-02-09T09:22:52Z</time>
      </trkpt>
      <trkpt lat="43.77315" lon="7.25607">
        <ele>772.56</ele>
        <time>2013-02-09T09:23:01Z</time>
      </trkpt>
      <trkpt lat="43.77328" lon="7.25627">
        <ele>766.31</ele>
        <time>2013-02-09T09:23:09Z</time>
      </trkpt>
      <trkpt lat="43.77331" lon="7.25632">
        <ele>764.39</ele>
        <time>2013-02-09T09:23:11Z</time>
      </trkpt>
      <trkpt lat="43.77334" lon="7.25637">
        <ele>762.46</ele>
        <time>2013-02-09T09:23:13Z</time>
      </trkpt>
      <trkpt lat="43.77339" lon="7.25649">
        <ele>758.14</ele>
        <time>2013-02-09T09:23:19Z</time>
      </trkpt>
      <trkpt lat="43.77341" lon="7.25661">
        <ele>755.73</ele>
        <time>2013-02-09T09:23:29Z</time>
      </trkpt>
      <trkpt lat="43.77343" lon="7.25666">
        <ele>753.81</ele>
        <time>2013-02-09T09:23:36Z</time>
      </trkpt>
      <trkpt lat="43.77347" lon="7.25668">
        <ele>752.37</ele>
        <time>2013-02-09T09:23:42Z</time>
      </trkpt>
      <trkpt lat="43.77363" lon="7.25686">
        <ele>745.16</ele>
        <time>2013-02-09T09:23:51Z</time>
      </trkpt>
      <trkpt lat="43.77368" lon="7.25696">
        <ele>742.28</ele>
        <time>2013-02-09T09:23:54Z</time>
      </trkpt>
      <trkpt lat="43.77374" lon="7.25703">
        <ele>738.43</ele>
        <time>2013-02-09T09:23:58Z</time>
      </trkpt>
      <trkpt lat="43.77385" lon="7.25733">
        <ele>733.62</ele>
        <time>2013-02-09T09:24:08Z</time>
      </trkpt>
      <trkpt lat="43.77394" lon="7.25772">
        <ele>730.26</ele>
        <time>2013-02-09T09:24:15Z</time>
      </trkpt>
      <trkpt lat="43.77401" lon="7.25773">
        <ele>731.22</ele>
        <time>2013-02-09T09:24:22Z</time>
      </trkpt>
      <trkpt lat="43.77402" lon="7.25773">
        <ele>731.22</ele>
        <time>2013-02-09T09:24:30Z</time>
      </trkpt>
      <trkpt lat="43.77404" lon="7.25776">
        <ele>731.22</ele>
        <time>2013-02-09T09:24:32Z</time>
      </trkpt>
      <trkpt lat="43.77412" lon="7.25787">
        <ele>731.7</ele>
        <time>2013-02-09T09:24:41Z</time>
      </trkpt>
      <trkpt lat="43.77415" lon="7.25794">
        <ele>731.7</ele>
        <time>2013-02-09T09:24:45Z</time>
      </trkpt>
      <trkpt lat="43.77436" lon="7.25823">
        <ele>736.03</ele>
        <time>2013-02-09T09:24:58Z</time>
      </trkpt>
      <trkpt lat="43.77457" lon="7.25838">
        <ele>736.51</ele>
        <time>2013-02-09T09:25:12Z</time>
      </trkpt>
      <trkpt lat="43.77463" lon="7.25837">
        <ele>736.51</ele>
        <time>2013-02-09T09:25:16Z</time>
      </trkpt>
      <trkpt lat="43.77479" lon="7.25821">
        <ele>735.55</ele>
        <time>2013-02-09T09:25:24Z</time>
      </trkpt>
      <trkpt lat="43.77487" lon="7.25816">
        <ele>735.07</ele>
        <time>2013-02-09T09:25:26Z</time>
      </trkpt>
      <trkpt lat="43.77502" lon="7.25811">
        <ele>734.1</ele>
        <time>2013-02-09T09:25:29Z</time>
      </trkpt>
      <trkpt lat="43.77516" lon="7.25811">
        <ele>735.07</ele>
        <time>2013-02-09T09:25:32Z</time>
      </trkpt>
      <trkpt lat="43.77534" lon="7.25796">
        <ele>735.07</ele>
        <time>2013-02-09T09:25:38Z</time>
      </trkpt>
      <trkpt lat="43.77559" lon="7.258">
        <ele>733.14</ele>
        <time>2013-02-09T09:25:43Z</time>
      </trkpt>
      <trkpt lat="43.77573" lon="7.25812">
        <ele>731.7</ele>
        <time>2013-02-09T09:25:47Z</time>
      </trkpt>
      <trkpt lat="43.77579" lon="7.25834">
        <ele>730.26</ele>
        <time>2013-02-09T09:25:51Z</time>
      </trkpt>
      <trkpt lat="43.77578" lon="7.25857">
        <ele>729.3</ele>
        <time>2013-02-09T09:25:55Z</time>
      </trkpt>
      <trkpt lat="43.77574" lon="7.25889">
        <ele>727.86</ele>
        <time>2013-02-09T09:25:59Z</time>
      </trkpt>
      <trkpt lat="43.77569" lon="7.25919">
        <ele>727.37</ele>
        <time>2013-02-09T09:26:03Z</time>
      </trkpt>
      <trkpt lat="43.77558" lon="7.25942">
        <ele>726.41</ele>
        <time>2013-02-09T09:26:07Z</time>
      </trkpt>
      <trkpt lat="43.77547" lon="7.25966">
        <ele>725.93</ele>
        <time>2013-02-09T09:26:11Z</time>
      </trkpt>
      <trkpt lat="43.77541" lon="7.25979">
        <ele>725.45</ele>
        <time>2013-02-09T09:26:13Z</time>
      </trkpt>
      <trkpt lat="43.77526" lon="7.26012">
        <ele>724.97</ele>
        <time>2013-02-09T09:26:22Z</time>
      </trkpt>
      <trkpt lat="43.77514" lon="7.26038">
        <ele>724.97</ele>
        <time>2013-02-09T09:26:34Z</time>
      </trkpt>
      <trkpt lat="43.77514" lon="7.26068">
        <ele>724.97</ele>
        <time>2013-02-09T09:26:41Z</time>
      </trkpt>
      <trkpt lat="43.77508" lon="7.26086">
        <ele>723.05</ele>
        <time>2013-02-09T09:26:44Z</time>
      </trkpt>
      <trkpt lat="43.77495" lon="7.26104">
        <ele>721.61</ele>
        <time>2013-02-09T09:26:47Z</time>
      </trkpt>
      <trkpt lat="43.77457" lon="7.26143">
        <ele>720.16</ele>
        <time>2013-02-09T09:26:54Z</time>
      </trkpt>
      <trkpt lat="43.77399" lon="7.26202">
        <ele>721.13</ele>
        <time>2013-02-09T09:27:05Z</time>
      </trkpt>
      <trkpt lat="43.77387" lon="7.26218">
        <ele>721.61</ele>
        <time>2013-02-09T09:27:08Z</time>
      </trkpt>
      <trkpt lat="43.77364" lon="7.26241">
        <ele>720.16</ele>
        <time>2013-02-09T09:27:16Z</time>
      </trkpt>
      <trkpt lat="43.77324" lon="7.26266">
        <ele>718.72</ele>
        <time>2013-02-09T09:27:24Z</time>
      </trkpt>
      <trkpt lat="43.7729" lon="7.2629">
        <ele>718.24</ele>
        <time>2013-02-09T09:27:31Z</time>
      </trkpt>
      <trkpt lat="43.7728" lon="7.26294">
        <ele>718.24</ele>
        <time>2013-02-09T09:27:33Z</time>
      </trkpt>
      <trkpt lat="43.77272" lon="7.26303">
        <ele>717.76</ele>
        <time>2013-02-09T09:27:37Z</time>
      </trkpt>
      <trkpt lat="43.77237" lon="7.26319">
        <ele>715.84</ele>
        <time>2013-02-09T09:27:47Z</time>
      </trkpt>
      <trkpt lat="43.77219" lon="7.26348">
        <ele>714.4</ele>
        <time>2013-02-09T09:27:53Z</time>
      </trkpt>
      <trkpt lat="43.77189" lon="7.26368">
        <ele>711.99</ele>
        <time>2013-02-09T09:28:02Z</time>
      </trkpt>
      <trkpt lat="43.7717" lon="7.26369">
        <ele>713.44</ele>
        <time>2013-02-09T09:28:08Z</time>
      </trkpt>
      <trkpt lat="43.77158" lon="7.26361">
        <ele>713.92</ele>
        <time>2013-02-09T09:28:15Z</time>
      </trkpt>
      <trkpt lat="43.77144" lon="7.26361">
        <ele>712.95</ele>
        <time>2013-02-09T09:28:22Z</time>
      </trkpt>
      <trkpt lat="43.77141" lon="7.2636">
        <ele>711.99</ele>
        <time>2013-02-09T09:28:24Z</time>
      </trkpt>
      <trkpt lat="43.77136" lon="7.26374">
        <ele>710.07</ele>
        <time>2013-02-09T09:28:29Z</time>
      </trkpt>
      <trkpt lat="43.77132" lon="7.26385">
        <ele>709.59</ele>
        <time>2013-02-09T09:28:31Z</time>
      </trkpt>
      <trkpt lat="43.77112" lon="7.26419">
        <ele>706.71</ele>
        <time>2013-02-09T09:28:39Z</time>
      </trkpt>
      <trkpt lat="43.77103" lon="7.26419">
        <ele>706.71</ele>
        <time>2013-02-09T09:28:44Z</time>
      </trkpt>
      <trkpt lat="43.77099" lon="7.26423">
        <ele>706.71</ele>
        <time>2013-02-09T09:28:46Z</time>
      </trkpt>
      <trkpt lat="43.77091" lon="7.26432">
        <ele>706.23</ele>
        <time>2013-02-09T09:28:49Z</time>
      </trkpt>
      <trkpt lat="43.77074" lon="7.26453">
        <ele>704.3</ele>
        <time>2013-02-09T09:28:55Z</time>
      </trkpt>
      <trkpt lat="43.77072" lon="7.26478">
        <ele>701.42</ele>
        <time>2013-02-09T09:29:03Z</time>
      </trkpt>
      <trkpt lat="43.77072" lon="7.26487">
        <ele>701.42</ele>
        <time>2013-02-09T09:29:05Z</time>
      </trkpt>
      <trkpt lat="43.77049" lon="7.26511">
        <ele>698.05</ele>
        <time>2013-02-09T09:29:14Z</time>
      </trkpt>
      <trkpt lat="43.77045" lon="7.26513">
        <ele>698.05</ele>
        <time>2013-02-09T09:29:23Z</time>
      </trkpt>
      <trkpt lat="43.77043" lon="7.26513">
        <ele>697.57</ele>
        <time>2013-02-09T09:29:38Z</time>
      </trkpt>
      <trkpt lat="43.77034" lon="7.26518">
        <ele>697.57</ele>
        <time>2013-02-09T09:29:42Z</time>
      </trkpt>
      <trkpt lat="43.77017" lon="7.26521">
        <ele>696.13</ele>
        <time>2013-02-09T09:29:48Z</time>
      </trkpt>
      <trkpt lat="43.77008" lon="7.26516">
        <ele>694.21</ele>
        <time>2013-02-09T09:29:52Z</time>
      </trkpt>
      <trkpt lat="43.76987" lon="7.26515">
        <ele>689.4</ele>
        <time>2013-02-09T09:30:01Z</time>
      </trkpt>
      <trkpt lat="43.76985" lon="7.26516">
        <ele>688.92</ele>
        <time>2013-02-09T09:30:02Z</time>
      </trkpt>
      <trkpt lat="43.76975" lon="7.26542">
        <ele>687.48</ele>
        <time>2013-02-09T09:30:12Z</time>
      </trkpt>
      <trkpt lat="43.76973" lon="7.26545">
        <ele>687</ele>
        <time>2013-02-09T09:30:13Z</time>
      </trkpt>
      <trkpt lat="43.76969" lon="7.2656">
        <ele>685.08</ele>
        <time>2013-02-09T09:30:17Z</time>
      </trkpt>
      <trkpt lat="43.76942" lon="7.26583">
        <ele>677.87</ele>
        <time>2013-02-09T09:30:26Z</time>
      </trkpt>
      <trkpt lat="43.76919" lon="7.26615">
        <ele>673.06</ele>
        <time>2013-02-09T09:30:35Z</time>
      </trkpt>
      <trkpt lat="43.76912" lon="7.2662">
        <ele>671.62</ele>
        <time>2013-02-09T09:30:37Z</time>
      </trkpt>
      <trkpt lat="43.769" lon="7.26624">
        <ele>667.29</ele>
        <time>2013-02-09T09:30:41Z</time>
      </trkpt>
      <trkpt lat="43.76894" lon="7.26625">
        <ele>665.37</ele>
        <time>2013-02-09T09:30:43Z</time>
      </trkpt>
      <trkpt lat="43.76876" lon="7.2663">
        <ele>657.68</ele>
        <time>2013-02-09T09:30:52Z</time>
      </trkpt>
      <trkpt lat="43.76874" lon="7.26631">
        <ele>656.72</ele>
        <time>2013-02-09T09:31:01Z</time>
      </trkpt>
      <trkpt lat="43.76866" lon="7.26625">
        <ele>654.31</ele>
        <time>2013-02-09T09:31:06Z</time>
      </trkpt>
      <trkpt lat="43.76851" lon="7.26606">
        <ele>646.62</ele>
        <time>2013-02-09T09:31:14Z</time>
      </trkpt>
      <trkpt lat="43.76843" lon="7.26599">
        <ele>643.26</ele>
        <time>2013-02-09T09:31:18Z</time>
      </trkpt>
      <trkpt lat="43.76822" lon="7.2661">
        <ele>634.13</ele>
        <time>2013-02-09T09:31:27Z</time>
      </trkpt>
      <trkpt lat="43.76805" lon="7.26623">
        <ele>623.55</ele>
        <time>2013-02-09T09:31:36Z</time>
      </trkpt>
      <trkpt lat="43.76805" lon="7.26623">
        <ele>623.07</ele>
        <time>2013-02-09T09:31:59Z</time>
      </trkpt>
      <trkpt lat="43.76804" lon="7.26623">
        <ele>622.59</ele>
        <time>2013-02-09T09:32:16Z</time>
      </trkpt>
      <trkpt lat="43.768" lon="7.26627">
        <ele>619.71</ele>
        <time>2013-02-09T09:32:22Z</time>
      </trkpt>
      <trkpt lat="43.76793" lon="7.26641">
        <ele>617.78</ele>
        <time>2013-02-09T09:32:28Z</time>
      </trkpt>
      <trkpt lat="43.76784" lon="7.2665">
        <ele>612.98</ele>
        <time>2013-02-09T09:32:34Z</time>
      </trkpt>
      <trkpt lat="43.76777" lon="7.26645">
        <ele>610.57</ele>
        <time>2013-02-09T09:32:37Z</time>
      </trkpt>
      <trkpt lat="43.76765" lon="7.26651">
        <ele>603.36</ele>
        <time>2013-02-09T09:32:45Z</time>
      </trkpt>
      <trkpt lat="43.7676" lon="7.26656">
        <ele>600.96</ele>
        <time>2013-02-09T09:32:49Z</time>
      </trkpt>
      <trkpt lat="43.76756" lon="7.26667">
        <ele>598.56</ele>
        <time>2013-02-09T09:32:53Z</time>
      </trkpt>
      <trkpt lat="43.76742" lon="7.26668">
        <ele>591.83</ele>
        <time>2013-02-09T09:33:01Z</time>
      </trkpt>
      <trkpt lat="43.76738" lon="7.26677">
        <ele>589.91</ele>
        <time>2013-02-09T09:33:04Z</time>
      </trkpt>
      <trkpt lat="43.76735" lon="7.26684">
        <ele>588.46</ele>
        <time>2013-02-09T09:33:06Z</time>
      </trkpt>
      <trkpt lat="43.76721" lon="7.26676">
        <ele>582.7</ele>
        <time>2013-02-09T09:33:14Z</time>
      </trkpt>
      <trkpt lat="43.7672" lon="7.26678">
        <ele>581.73</ele>
        <time>2013-02-09T09:33:15Z</time>
      </trkpt>
      <trkpt lat="43.76714" lon="7.26693">
        <ele>578.37</ele>
        <time>2013-02-09T09:33:19Z</time>
      </trkpt>
      <trkpt lat="43.76704" lon="7.26687">
        <ele>574.53</ele>
        <time>2013-02-09T09:33:26Z</time>
      </trkpt>
      <trkpt lat="43.76699" lon="7.26689">
        <ele>571.64</ele>
        <time>2013-02-09T09:33:29Z</time>
      </trkpt>
      <trkpt lat="43.76692" lon="7.26688">
        <ele>568.76</ele>
        <time>2013-02-09T09:33:38Z</time>
      </trkpt>
      <trkpt lat="43.76692" lon="7.26692">
        <ele>569.24</ele>
        <time>2013-02-09T09:33:55Z</time>
      </trkpt>
      <trkpt lat="43.76692" lon="7.26693">
        <ele>569.24</ele>
        <time>2013-02-09T09:33:56Z</time>
      </trkpt>
      <trkpt lat="43.7669" lon="7.26707">
        <ele>568.28</ele>
        <time>2013-02-09T09:34:01Z</time>
      </trkpt>
      <trkpt lat="43.76687" lon="7.26723">
        <ele>567.32</ele>
        <time>2013-02-09T09:34:04Z</time>
      </trkpt>
      <trkpt lat="43.76683" lon="7.26727">
        <ele>566.35</ele>
        <time>2013-02-09T09:34:14Z</time>
      </trkpt>
      <trkpt lat="43.76685" lon="7.26728">
        <ele>565.87</ele>
        <time>2013-02-09T09:34:34Z</time>
      </trkpt>
      <trkpt lat="43.76684" lon="7.26728">
        <ele>566.83</ele>
        <time>2013-02-09T09:35:00Z</time>
      </trkpt>
      <trkpt lat="43.76685" lon="7.26727">
        <ele>564.91</ele>
        <time>2013-02-09T09:35:31Z</time>
      </trkpt>
      <trkpt lat="43.76684" lon="7.26727">
        <ele>565.39</ele>
        <time>2013-02-09T09:35:41Z</time>
      </trkpt>
      <trkpt lat="43.76671" lon="7.26712">
        <ele>560.11</ele>
        <time>2013-02-09T09:35:52Z</time>
      </trkpt>
      <trkpt lat="43.76665" lon="7.26705">
        <ele>557.22</ele>
        <time>2013-02-09T09:35:55Z</time>
      </trkpt>
      <trkpt lat="43.76663" lon="7.26698">
        <ele>555.3</ele>
        <time>2013-02-09T09:35:57Z</time>
      </trkpt>
      <trkpt lat="43.76649" lon="7.26708">
        <ele>549.05</ele>
        <time>2013-02-09T09:36:05Z</time>
      </trkpt>
      <trkpt lat="43.76646" lon="7.26707">
        <ele>547.61</ele>
        <time>2013-02-09T09:36:07Z</time>
      </trkpt>
      <trkpt lat="43.76635" lon="7.26697">
        <ele>541.84</ele>
        <time>2013-02-09T09:36:15Z</time>
      </trkpt>
      <trkpt lat="43.76634" lon="7.2669">
        <ele>540.4</ele>
        <time>2013-02-09T09:36:17Z</time>
      </trkpt>
      <trkpt lat="43.76628" lon="7.26654">
        <ele>534.63</ele>
        <time>2013-02-09T09:36:26Z</time>
      </trkpt>
      <trkpt lat="43.76621" lon="7.26616">
        <ele>529.82</ele>
        <time>2013-02-09T09:36:35Z</time>
      </trkpt>
      <trkpt lat="43.7662" lon="7.26613">
        <ele>528.86</ele>
        <time>2013-02-09T09:36:36Z</time>
      </trkpt>
      <trkpt lat="43.76614" lon="7.26605">
        <ele>525.98</ele>
        <time>2013-02-09T09:36:39Z</time>
      </trkpt>
      <trkpt lat="43.76602" lon="7.26595">
        <ele>520.21</ele>
        <time>2013-02-09T09:36:47Z</time>
      </trkpt>
      <trkpt lat="43.76588" lon="7.26611">
        <ele>514.92</ele>
        <time>2013-02-09T09:36:55Z</time>
      </trkpt>
      <trkpt lat="43.76586" lon="7.2661">
        <ele>513.48</ele>
        <time>2013-02-09T09:36:58Z</time>
      </trkpt>
      <trkpt lat="43.76585" lon="7.26607">
        <ele>512.04</ele>
        <time>2013-02-09T09:37:10Z</time>
      </trkpt>
      <trkpt lat="43.76581" lon="7.26607">
        <ele>510.12</ele>
        <time>2013-02-09T09:37:20Z</time>
      </trkpt>
      <trkpt lat="43.76567" lon="7.26609">
        <ele>504.35</ele>
        <time>2013-02-09T09:37:29Z</time>
      </trkpt>
      <trkpt lat="43.76563" lon="7.26611">
        <ele>502.43</ele>
        <time>2013-02-09T09:37:31Z</time>
      </trkpt>
      <trkpt lat="43.76557" lon="7.2662">
        <ele>500.02</ele>
        <time>2013-02-09T09:37:34Z</time>
      </trkpt>
      <trkpt lat="43.76555" lon="7.26623">
        <ele>497.62</ele>
        <time>2013-02-09T09:37:40Z</time>
      </trkpt>
      <trkpt lat="43.76554" lon="7.26618">
        <ele>499.54</ele>
        <time>2013-02-09T09:37:53Z</time>
      </trkpt>
      <trkpt lat="43.76549" lon="7.26593">
        <ele>499.06</ele>
        <time>2013-02-09T09:38:02Z</time>
      </trkpt>
      <trkpt lat="43.76518" lon="7.26534">
        <ele>499.06</ele>
        <time>2013-02-09T09:38:16Z</time>
      </trkpt>
      <trkpt lat="43.76502" lon="7.2648">
        <ele>499.06</ele>
        <time>2013-02-09T09:38:27Z</time>
      </trkpt>
      <trkpt lat="43.76509" lon="7.26459">
        <ele>499.06</ele>
        <time>2013-02-09T09:38:31Z</time>
      </trkpt>
      <trkpt lat="43.76521" lon="7.26442">
        <ele>498.58</ele>
        <time>2013-02-09T09:38:35Z</time>
      </trkpt>
      <trkpt lat="43.76528" lon="7.26435">
        <ele>499.06</ele>
        <time>2013-02-09T09:38:37Z</time>
      </trkpt>
      <trkpt lat="43.76564" lon="7.26402">
        <ele>503.87</ele>
        <time>2013-02-09T09:38:50Z</time>
      </trkpt>
      <trkpt lat="43.76598" lon="7.26377">
        <ele>508.67</ele>
        <time>2013-02-09T09:39:05Z</time>
      </trkpt>
      <trkpt lat="43.76631" lon="7.26353">
        <ele>512.52</ele>
        <time>2013-02-09T09:39:20Z</time>
      </trkpt>
      <trkpt lat="43.76655" lon="7.26335">
        <ele>514.92</ele>
        <time>2013-02-09T09:39:33Z</time>
      </trkpt>
      <trkpt lat="43.76689" lon="7.26301">
        <ele>518.77</ele>
        <time>2013-02-09T09:39:53Z</time>
      </trkpt>
      <trkpt lat="43.76722" lon="7.26266">
        <ele>522.13</ele>
        <time>2013-02-09T09:40:13Z</time>
      </trkpt>
      <trkpt lat="43.76751" lon="7.26226">
        <ele>525.5</ele>
        <time>2013-02-09T09:40:33Z</time>
      </trkpt>
      <trkpt lat="43.76747" lon="7.2619">
        <ele>527.9</ele>
        <time>2013-02-09T09:40:47Z</time>
      </trkpt>
      <trkpt lat="43.76723" lon="7.26153">
        <ele>530.79</ele>
        <time>2013-02-09T09:41:05Z</time>
      </trkpt>
      <trkpt lat="43.76705" lon="7.2612">
        <ele>533.19</ele>
        <time>2013-02-09T09:41:20Z</time>
      </trkpt>
      <trkpt lat="43.76682" lon="7.2608">
        <ele>536.07</ele>
        <time>2013-02-09T09:41:38Z</time>
      </trkpt>
      <trkpt lat="43.76663" lon="7.26047">
        <ele>538.48</ele>
        <time>2013-02-09T09:41:54Z</time>
      </trkpt>
      <trkpt lat="43.76649" lon="7.26028">
        <ele>538.96</ele>
        <time>2013-02-09T09:42:09Z</time>
      </trkpt>
      <trkpt lat="43.76645" lon="7.26026">
        <ele>539.44</ele>
        <time>2013-02-09T09:42:23Z</time>
      </trkpt>
      <trkpt lat="43.76643" lon="7.26027">
        <ele>538.96</ele>
        <time>2013-02-09T09:42:27Z</time>
      </trkpt>
      <trkpt lat="43.76625" lon="7.26021">
        <ele>535.59</ele>
        <time>2013-02-09T09:42:32Z</time>
      </trkpt>
      <trkpt lat="43.76599" lon="7.25987">
        <ele>527.42</ele>
        <time>2013-02-09T09:42:38Z</time>
      </trkpt>
      <trkpt lat="43.7659" lon="7.25942">
        <ele>522.13</ele>
        <time>2013-02-09T09:42:42Z</time>
      </trkpt>
      <trkpt lat="43.76569" lon="7.25903">
        <ele>519.25</ele>
        <time>2013-02-09T09:42:46Z</time>
      </trkpt>
      <trkpt lat="43.76549" lon="7.25862">
        <ele>517.81</ele>
        <time>2013-02-09T09:42:51Z</time>
      </trkpt>
      <trkpt lat="43.76539" lon="7.25841">
        <ele>516.37</ele>
        <time>2013-02-09T09:42:54Z</time>
      </trkpt>
      <trkpt lat="43.76524" lon="7.25809">
        <ele>512.04</ele>
        <time>2013-02-09T09:42:58Z</time>
      </trkpt>
      <trkpt lat="43.76516" lon="7.25769">
        <ele>510.12</ele>
        <time>2013-02-09T09:43:02Z</time>
      </trkpt>
      <trkpt lat="43.76514" lon="7.25741">
        <ele>509.64</ele>
        <time>2013-02-09T09:43:05Z</time>
      </trkpt>
      <trkpt lat="43.76503" lon="7.2571">
        <ele>510.12</ele>
        <time>2013-02-09T09:43:10Z</time>
      </trkpt>
      <trkpt lat="43.76497" lon="7.25703">
        <ele>510.6</ele>
        <time>2013-02-09T09:43:12Z</time>
      </trkpt>
      <trkpt lat="43.76486" lon="7.25695">
        <ele>511.08</ele>
        <time>2013-02-09T09:43:15Z</time>
      </trkpt>
      <trkpt lat="43.76484" lon="7.25686">
        <ele>513</ele>
        <time>2013-02-09T09:43:22Z</time>
      </trkpt>
      <trkpt lat="43.76484" lon="7.25686">
        <ele>513.48</ele>
        <time>2013-02-09T09:43:29Z</time>
      </trkpt>
      <trkpt lat="43.76487" lon="7.25683">
        <ele>515.88</ele>
        <time>2013-02-09T09:43:39Z</time>
      </trkpt>
      <trkpt lat="43.76488" lon="7.25683">
        <ele>515.88</ele>
        <time>2013-02-09T09:43:40Z</time>
      </trkpt>
      <trkpt lat="43.76496" lon="7.25673">
        <ele>521.17</ele>
        <time>2013-02-09T09:43:53Z</time>
      </trkpt>
      <trkpt lat="43.76504" lon="7.25662">
        <ele>525.98</ele>
        <time>2013-02-09T09:44:07Z</time>
      </trkpt>
      <trkpt lat="43.76514" lon="7.25651">
        <ele>529.82</ele>
        <time>2013-02-09T09:44:21Z</time>
      </trkpt>
      <trkpt lat="43.76524" lon="7.25643">
        <ele>530.79</ele>
        <time>2013-02-09T09:44:34Z</time>
      </trkpt>
      <trkpt lat="43.76533" lon="7.25635">
        <ele>532.23</ele>
        <time>2013-02-09T09:44:47Z</time>
      </trkpt>
      <trkpt lat="43.76543" lon="7.25627">
        <ele>536.55</ele>
        <time>2013-02-09T09:45:02Z</time>
      </trkpt>
      <trkpt lat="43.76547" lon="7.25624">
        <ele>537.03</ele>
        <time>2013-02-09T09:45:06Z</time>
      </trkpt>
      <trkpt lat="43.76551" lon="7.25622">
        <ele>537.99</ele>
        <time>2013-02-09T09:45:10Z</time>
      </trkpt>
      <trkpt lat="43.76557" lon="7.25617">
        <ele>539.44</ele>
        <time>2013-02-09T09:45:20Z</time>
      </trkpt>
      <trkpt lat="43.76568" lon="7.25607">
        <ele>540.88</ele>
        <time>2013-02-09T09:45:33Z</time>
      </trkpt>
      <trkpt lat="43.76571" lon="7.25606">
        <ele>540.88</ele>
        <time>2013-02-09T09:45:37Z</time>
      </trkpt>
      <trkpt lat="43.76574" lon="7.25592">
        <ele>543.28</ele>
        <time>2013-02-09T09:45:50Z</time>
      </trkpt>
      <trkpt lat="43.76576" lon="7.25587">
        <ele>543.28</ele>
        <time>2013-02-09T09:45:54Z</time>
      </trkpt>
      <trkpt lat="43.76578" lon="7.25573">
        <ele>547.61</ele>
        <time>2013-02-09T09:46:08Z</time>
      </trkpt>
      <trkpt lat="43.76583" lon="7.25565">
        <ele>547.13</ele>
        <time>2013-02-09T09:46:18Z</time>
      </trkpt>
      <trkpt lat="43.76585" lon="7.25563">
        <ele>546.17</ele>
        <time>2013-02-09T09:46:21Z</time>
      </trkpt>
      <trkpt lat="43.7659" lon="7.25553">
        <ele>549.53</ele>
        <time>2013-02-09T09:46:36Z</time>
      </trkpt>
      <trkpt lat="43.76596" lon="7.25546">
        <ele>551.45</ele>
        <time>2013-02-09T09:46:49Z</time>
      </trkpt>
      <trkpt lat="43.76599" lon="7.25535">
        <ele>555.78</ele>
        <time>2013-02-09T09:47:02Z</time>
      </trkpt>
      <trkpt lat="43.76601" lon="7.25529">
        <ele>557.7</ele>
        <time>2013-02-09T09:47:10Z</time>
      </trkpt>
      <trkpt lat="43.76607" lon="7.25519">
        <ele>559.14</ele>
        <time>2013-02-09T09:47:23Z</time>
      </trkpt>
      <trkpt lat="43.76608" lon="7.25508">
        <ele>562.51</ele>
        <time>2013-02-09T09:47:38Z</time>
      </trkpt>
      <trkpt lat="43.76611" lon="7.25501">
        <ele>564.91</ele>
        <time>2013-02-09T09:47:49Z</time>
      </trkpt>
      <trkpt lat="43.76612" lon="7.2549">
        <ele>567.8</ele>
        <time>2013-02-09T09:48:01Z</time>
      </trkpt>
      <trkpt lat="43.76615" lon="7.25478">
        <ele>568.28</ele>
        <time>2013-02-09T09:48:13Z</time>
      </trkpt>
      <trkpt lat="43.76618" lon="7.25468">
        <ele>571.16</ele>
        <time>2013-02-09T09:48:24Z</time>
      </trkpt>
      <trkpt lat="43.76625" lon="7.25458">
        <ele>573.56</ele>
        <time>2013-02-09T09:48:38Z</time>
      </trkpt>
      <trkpt lat="43.7663" lon="7.25458">
        <ele>574.04</ele>
        <time>2013-02-09T09:48:53Z</time>
      </trkpt>
      <trkpt lat="43.76632" lon="7.25455">
        <ele>575.97</ele>
        <time>2013-02-09T09:48:58Z</time>
      </trkpt>
      <trkpt lat="43.76639" lon="7.25442">
        <ele>580.29</ele>
        <time>2013-02-09T09:49:13Z</time>
      </trkpt>
      <trkpt lat="43.76647" lon="7.25429">
        <ele>583.18</ele>
        <time>2013-02-09T09:49:27Z</time>
      </trkpt>
      <trkpt lat="43.76653" lon="7.25418">
        <ele>586.06</ele>
        <time>2013-02-09T09:49:41Z</time>
      </trkpt>
      <trkpt lat="43.76657" lon="7.25408">
        <ele>588.46</ele>
        <time>2013-02-09T09:49:51Z</time>
      </trkpt>
      <trkpt lat="43.76662" lon="7.25392">
        <ele>590.39</ele>
        <time>2013-02-09T09:50:05Z</time>
      </trkpt>
      <trkpt lat="43.76661" lon="7.25387">
        <ele>590.87</ele>
        <time>2013-02-09T09:50:10Z</time>
      </trkpt>
      <trkpt lat="43.76662" lon="7.25379">
        <ele>591.35</ele>
        <time>2013-02-09T09:50:18Z</time>
      </trkpt>
      <trkpt lat="43.76664" lon="7.25372">
        <ele>590.39</ele>
        <time>2013-02-09T09:50:21Z</time>
      </trkpt>
      <trkpt lat="43.76667" lon="7.25351">
        <ele>587.98</ele>
        <time>2013-02-09T09:50:35Z</time>
      </trkpt>
      <trkpt lat="43.76668" lon="7.25348">
        <ele>588.95</ele>
        <time>2013-02-09T09:50:38Z</time>
      </trkpt>
      <trkpt lat="43.76663" lon="7.25342">
        <ele>591.83</ele>
        <time>2013-02-09T09:50:50Z</time>
      </trkpt>
      <trkpt lat="43.76651" lon="7.25339">
        <ele>594.23</ele>
        <time>2013-02-09T09:51:03Z</time>
      </trkpt>
      <trkpt lat="43.76645" lon="7.25332">
        <ele>595.67</ele>
        <time>2013-02-09T09:51:14Z</time>
      </trkpt>
      <trkpt lat="43.76639" lon="7.25331">
        <ele>597.12</ele>
        <time>2013-02-09T09:51:22Z</time>
      </trkpt>
      <trkpt lat="43.76629" lon="7.25329">
        <ele>598.56</ele>
        <time>2013-02-09T09:51:37Z</time>
      </trkpt>
      <trkpt lat="43.76633" lon="7.25323">
        <ele>598.56</ele>
        <time>2013-02-09T09:51:50Z</time>
      </trkpt>
      <trkpt lat="43.76632" lon="7.2532">
        <ele>600.48</ele>
        <time>2013-02-09T09:52:01Z</time>
      </trkpt>
      <trkpt lat="43.76631" lon="7.25315">
        <ele>601.44</ele>
        <time>2013-02-09T09:52:13Z</time>
      </trkpt>
      <trkpt lat="43.76633" lon="7.25311">
        <ele>602.88</ele>
        <time>2013-02-09T09:52:31Z</time>
      </trkpt>
      <trkpt lat="43.76634" lon="7.25309">
        <ele>603.85</ele>
        <time>2013-02-09T09:52:37Z</time>
      </trkpt>
      <trkpt lat="43.76638" lon="7.25298">
        <ele>608.17</ele>
        <time>2013-02-09T09:52:51Z</time>
      </trkpt>
      <trkpt lat="43.76639" lon="7.25295">
        <ele>608.65</ele>
        <time>2013-02-09T09:52:54Z</time>
      </trkpt>
      <trkpt lat="43.76649" lon="7.25287">
        <ele>610.57</ele>
        <time>2013-02-09T09:53:08Z</time>
      </trkpt>
      <trkpt lat="43.76656" lon="7.25281">
        <ele>612.02</ele>
        <time>2013-02-09T09:53:19Z</time>
      </trkpt>
      <trkpt lat="43.76659" lon="7.2528">
        <ele>614.42</ele>
        <time>2013-02-09T09:53:32Z</time>
      </trkpt>
      <trkpt lat="43.76658" lon="7.25281">
        <ele>613.94</ele>
        <time>2013-02-09T09:53:37Z</time>
      </trkpt>
      <trkpt lat="43.76648" lon="7.25288">
        <ele>610.57</ele>
        <time>2013-02-09T09:53:50Z</time>
      </trkpt>
      <trkpt lat="43.76638" lon="7.25298">
        <ele>606.25</ele>
        <time>2013-02-09T09:54:03Z</time>
      </trkpt>
      <trkpt lat="43.76638" lon="7.25298">
        <ele>605.77</ele>
        <time>2013-02-09T09:54:04Z</time>
      </trkpt>
      <trkpt lat="43.76636" lon="7.25307">
        <ele>602.4</ele>
        <time>2013-02-09T09:54:12Z</time>
      </trkpt>
      <trkpt lat="43.76628" lon="7.25316">
        <ele>600</ele>
        <time>2013-02-09T09:54:23Z</time>
      </trkpt>
      <trkpt lat="43.76622" lon="7.25324">
        <ele>598.56</ele>
        <time>2013-02-09T09:54:31Z</time>
      </trkpt>
      <trkpt lat="43.76623" lon="7.25327">
        <ele>597.6</ele>
        <time>2013-02-09T09:54:34Z</time>
      </trkpt>
      <trkpt lat="43.76623" lon="7.2533">
        <ele>596.64</ele>
        <time>2013-02-09T09:54:36Z</time>
      </trkpt>
      <trkpt lat="43.76613" lon="7.25335">
        <ele>599.04</ele>
        <time>2013-02-09T09:54:48Z</time>
      </trkpt>
      <trkpt lat="43.7661" lon="7.25336">
        <ele>600</ele>
        <time>2013-02-09T09:54:52Z</time>
      </trkpt>
      <trkpt lat="43.76605" lon="7.25334">
        <ele>602.4</ele>
        <time>2013-02-09T09:54:59Z</time>
      </trkpt>
      <trkpt lat="43.76603" lon="7.25333">
        <ele>603.85</ele>
        <time>2013-02-09T09:55:04Z</time>
      </trkpt>
      <trkpt lat="43.766" lon="7.25331">
        <ele>604.33</ele>
        <time>2013-02-09T09:55:07Z</time>
      </trkpt>
      <trkpt lat="43.76599" lon="7.25328">
        <ele>604.33</ele>
        <time>2013-02-09T09:55:09Z</time>
      </trkpt>
      <trkpt lat="43.76601" lon="7.25323">
        <ele>604.81</ele>
        <time>2013-02-09T09:55:13Z</time>
      </trkpt>
      <trkpt lat="43.76603" lon="7.25312">
        <ele>606.25</ele>
        <time>2013-02-09T09:55:22Z</time>
      </trkpt>
      <trkpt lat="43.76613" lon="7.25295">
        <ele>610.57</ele>
        <time>2013-02-09T09:55:37Z</time>
      </trkpt>
      <trkpt lat="43.76622" lon="7.25284">
        <ele>613.94</ele>
        <time>2013-02-09T09:55:50Z</time>
      </trkpt>
      <trkpt lat="43.7663" lon="7.25273">
        <ele>617.3</ele>
        <time>2013-02-09T09:56:04Z</time>
      </trkpt>
      <trkpt lat="43.76641" lon="7.25264">
        <ele>620.67</ele>
        <time>2013-02-09T09:56:20Z</time>
      </trkpt>
      <trkpt lat="43.7665" lon="7.25254">
        <ele>623.07</ele>
        <time>2013-02-09T09:56:36Z</time>
      </trkpt>
      <trkpt lat="43.76659" lon="7.25241">
        <ele>625.96</ele>
        <time>2013-02-09T09:56:52Z</time>
      </trkpt>
      <trkpt lat="43.76659" lon="7.25235">
        <ele>625.96</ele>
        <time>2013-02-09T09:56:57Z</time>
      </trkpt>
      <trkpt lat="43.76661" lon="7.25231">
        <ele>625.96</ele>
        <time>2013-02-09T09:57:00Z</time>
      </trkpt>
      <trkpt lat="43.7666" lon="7.2522">
        <ele>626.92</ele>
        <time>2013-02-09T09:57:09Z</time>
      </trkpt>
      <trkpt lat="43.76663" lon="7.25214">
        <ele>626.92</ele>
        <time>2013-02-09T09:57:15Z</time>
      </trkpt>
      <trkpt lat="43.76673" lon="7.25204">
        <ele>631.24</ele>
        <time>2013-02-09T09:57:31Z</time>
      </trkpt>
      <trkpt lat="43.7668" lon="7.25198">
        <ele>632.2</ele>
        <time>2013-02-09T09:57:42Z</time>
      </trkpt>
      <trkpt lat="43.76692" lon="7.2519">
        <ele>635.09</ele>
        <time>2013-02-09T09:57:56Z</time>
      </trkpt>
      <trkpt lat="43.76701" lon="7.25186">
        <ele>637.01</ele>
        <time>2013-02-09T09:58:05Z</time>
      </trkpt>
      <trkpt lat="43.76714" lon="7.25178">
        <ele>638.45</ele>
        <time>2013-02-09T09:58:17Z</time>
      </trkpt>
      <trkpt lat="43.76725" lon="7.25165">
        <ele>642.3</ele>
        <time>2013-02-09T09:58:33Z</time>
      </trkpt>
      <trkpt lat="43.76731" lon="7.25157">
        <ele>645.66</ele>
        <time>2013-02-09T09:58:46Z</time>
      </trkpt>
      <trkpt lat="43.76737" lon="7.25146">
        <ele>646.62</ele>
        <time>2013-02-09T09:59:00Z</time>
      </trkpt>
      <trkpt lat="43.76743" lon="7.25139">
        <ele>649.03</ele>
        <time>2013-02-09T09:59:14Z</time>
      </trkpt>
      <trkpt lat="43.76749" lon="7.25127">
        <ele>652.87</ele>
        <time>2013-02-09T09:59:30Z</time>
      </trkpt>
      <trkpt lat="43.7675" lon="7.25125">
        <ele>652.87</ele>
        <time>2013-02-09T09:59:32Z</time>
      </trkpt>
      <trkpt lat="43.76749" lon="7.25113">
        <ele>654.8</ele>
        <time>2013-02-09T09:59:46Z</time>
      </trkpt>
      <trkpt lat="43.76751" lon="7.25108">
        <ele>655.28</ele>
        <time>2013-02-09T09:59:51Z</time>
      </trkpt>
      <trkpt lat="43.76761" lon="7.25091">
        <ele>657.68</ele>
        <time>2013-02-09T10:00:07Z</time>
      </trkpt>
      <trkpt lat="43.76769" lon="7.25083">
        <ele>658.64</ele>
        <time>2013-02-09T10:00:17Z</time>
      </trkpt>
      <trkpt lat="43.76774" lon="7.25067">
        <ele>661.04</ele>
        <time>2013-02-09T10:00:34Z</time>
      </trkpt>
      <trkpt lat="43.76777" lon="7.25053">
        <ele>664.89</ele>
        <time>2013-02-09T10:00:50Z</time>
      </trkpt>
      <trkpt lat="43.76781" lon="7.25039">
        <ele>667.77</ele>
        <time>2013-02-09T10:01:05Z</time>
      </trkpt>
      <trkpt lat="43.76782" lon="7.25036">
        <ele>668.73</ele>
        <time>2013-02-09T10:01:18Z</time>
      </trkpt>
      <trkpt lat="43.76782" lon="7.25036">
        <ele>669.7</ele>
        <time>2013-02-09T10:01:43Z</time>
      </trkpt>
      <trkpt lat="43.76781" lon="7.25036">
        <ele>670.66</ele>
        <time>2013-02-09T10:02:09Z</time>
      </trkpt>
      <trkpt lat="43.76782" lon="7.25036">
        <ele>670.66</ele>
        <time>2013-02-09T10:02:32Z</time>
      </trkpt>
      <trkpt lat="43.76789" lon="7.25032">
        <ele>671.62</ele>
        <time>2013-02-09T10:02:37Z</time>
      </trkpt>
      <trkpt lat="43.76793" lon="7.25032">
        <ele>671.62</ele>
        <time>2013-02-09T10:02:39Z</time>
      </trkpt>
      <trkpt lat="43.76823" lon="7.25048">
        <ele>673.06</ele>
        <time>2013-02-09T10:02:54Z</time>
      </trkpt>
      <trkpt lat="43.76847" lon="7.2505">
        <ele>675.94</ele>
        <time>2013-02-09T10:03:07Z</time>
      </trkpt>
      <trkpt lat="43.76852" lon="7.25048">
        <ele>675.94</ele>
        <time>2013-02-09T10:03:10Z</time>
      </trkpt>
      <trkpt lat="43.76855" lon="7.2504">
        <ele>676.42</ele>
        <time>2013-02-09T10:03:14Z</time>
      </trkpt>
      <trkpt lat="43.76864" lon="7.25031">
        <ele>676.91</ele>
        <time>2013-02-09T10:03:21Z</time>
      </trkpt>
      <trkpt lat="43.76872" lon="7.25033">
        <ele>677.87</ele>
        <time>2013-02-09T10:03:27Z</time>
      </trkpt>
      <trkpt lat="43.76879" lon="7.25034">
        <ele>678.35</ele>
        <time>2013-02-09T10:03:31Z</time>
      </trkpt>
      <trkpt lat="43.76886" lon="7.25033">
        <ele>678.83</ele>
        <time>2013-02-09T10:03:36Z</time>
      </trkpt>
      <trkpt lat="43.76905" lon="7.25027">
        <ele>681.23</ele>
        <time>2013-02-09T10:03:49Z</time>
      </trkpt>
      <trkpt lat="43.7691" lon="7.25023">
        <ele>682.19</ele>
        <time>2013-02-09T10:03:53Z</time>
      </trkpt>
      <trkpt lat="43.76922" lon="7.25016">
        <ele>683.15</ele>
        <time>2013-02-09T10:04:01Z</time>
      </trkpt>
      <trkpt lat="43.76936" lon="7.25008">
        <ele>685.56</ele>
        <time>2013-02-09T10:04:13Z</time>
      </trkpt>
      <trkpt lat="43.76946" lon="7.25005">
        <ele>686.52</ele>
        <time>2013-02-09T10:04:24Z</time>
      </trkpt>
      <trkpt lat="43.76958" lon="7.25002">
        <ele>687.48</ele>
        <time>2013-02-09T10:04:36Z</time>
      </trkpt>
      <trkpt lat="43.76962" lon="7.25001">
        <ele>687.48</ele>
        <time>2013-02-09T10:04:39Z</time>
      </trkpt>
      <trkpt lat="43.76965" lon="7.24999">
        <ele>688.44</ele>
        <time>2013-02-09T10:04:43Z</time>
      </trkpt>
      <trkpt lat="43.76987" lon="7.24991">
        <ele>690.84</ele>
        <time>2013-02-09T10:04:57Z</time>
      </trkpt>
      <trkpt lat="43.77011" lon="7.2498">
        <ele>691.33</ele>
        <time>2013-02-09T10:05:12Z</time>
      </trkpt>
      <trkpt lat="43.77032" lon="7.24965">
        <ele>690.36</ele>
        <time>2013-02-09T10:05:24Z</time>
      </trkpt>
      <trkpt lat="43.7705" lon="7.24972">
        <ele>689.88</ele>
        <time>2013-02-09T10:05:30Z</time>
      </trkpt>
      <trkpt lat="43.77078" lon="7.24992">
        <ele>689.4</ele>
        <time>2013-02-09T10:05:38Z</time>
      </trkpt>
      <trkpt lat="43.77108" lon="7.24992">
        <ele>688.92</ele>
        <time>2013-02-09T10:05:46Z</time>
      </trkpt>
      <trkpt lat="43.7712" lon="7.24991">
        <ele>688.92</ele>
        <time>2013-02-09T10:05:49Z</time>
      </trkpt>
      <trkpt lat="43.77135" lon="7.24992">
        <ele>688.92</ele>
        <time>2013-02-09T10:05:53Z</time>
      </trkpt>
      <trkpt lat="43.77165" lon="7.24989">
        <ele>688.92</ele>
        <time>2013-02-09T10:06:01Z</time>
      </trkpt>
      <trkpt lat="43.77207" lon="7.24986">
        <ele>688.92</ele>
        <time>2013-02-09T10:06:12Z</time>
      </trkpt>
      <trkpt lat="43.77218" lon="7.24984">
        <ele>688.92</ele>
        <time>2013-02-09T10:06:15Z</time>
      </trkpt>
      <trkpt lat="43.77248" lon="7.24975">
        <ele>686.52</ele>
        <time>2013-02-09T10:06:21Z</time>
      </trkpt>
      <trkpt lat="43.77265" lon="7.24972">
        <ele>685.56</ele>
        <time>2013-02-09T10:06:24Z</time>
      </trkpt>
      <trkpt lat="43.7731" lon="7.24966">
        <ele>682.67</ele>
        <time>2013-02-09T10:06:34Z</time>
      </trkpt>
      <trkpt lat="43.7733" lon="7.24961">
        <ele>680.75</ele>
        <time>2013-02-09T10:06:41Z</time>
      </trkpt>
      <trkpt lat="43.77345" lon="7.24958">
        <ele>679.79</ele>
        <time>2013-02-09T10:06:46Z</time>
      </trkpt>
      <trkpt lat="43.77382" lon="7.24948">
        <ele>674.02</ele>
        <time>2013-02-09T10:06:59Z</time>
      </trkpt>
      <trkpt lat="43.77401" lon="7.24949">
        <ele>673.06</ele>
        <time>2013-02-09T10:07:04Z</time>
      </trkpt>
      <trkpt lat="43.77423" lon="7.24945">
        <ele>670.66</ele>
        <time>2013-02-09T10:07:10Z</time>
      </trkpt>
      <trkpt lat="43.77437" lon="7.24944">
        <ele>670.18</ele>
        <time>2013-02-09T10:07:13Z</time>
      </trkpt>
      <trkpt lat="43.77458" lon="7.24945">
        <ele>668.25</ele>
        <time>2013-02-09T10:07:17Z</time>
      </trkpt>
      <trkpt lat="43.77504" lon="7.24938">
        <ele>665.37</ele>
        <time>2013-02-09T10:07:24Z</time>
      </trkpt>
      <trkpt lat="43.77551" lon="7.24928">
        <ele>664.41</ele>
        <time>2013-02-09T10:07:33Z</time>
      </trkpt>
      <trkpt lat="43.77583" lon="7.24918">
        <ele>664.89</ele>
        <time>2013-02-09T10:07:41Z</time>
      </trkpt>
      <trkpt lat="43.776" lon="7.24911">
        <ele>666.33</ele>
        <time>2013-02-09T10:07:46Z</time>
      </trkpt>
      <trkpt lat="43.7763" lon="7.24909">
        <ele>664.41</ele>
        <time>2013-02-09T10:07:55Z</time>
      </trkpt>
      <trkpt lat="43.77639" lon="7.2491">
        <ele>663.45</ele>
        <time>2013-02-09T10:07:57Z</time>
      </trkpt>
      <trkpt lat="43.77685" lon="7.2492">
        <ele>658.64</ele>
        <time>2013-02-09T10:08:05Z</time>
      </trkpt>
      <trkpt lat="43.77709" lon="7.24921">
        <ele>657.68</ele>
        <time>2013-02-09T10:08:09Z</time>
      </trkpt>
      <trkpt lat="43.77724" lon="7.24912">
        <ele>657.68</ele>
        <time>2013-02-09T10:08:12Z</time>
      </trkpt>
      <trkpt lat="43.77768" lon="7.24898">
        <ele>657.68</ele>
        <time>2013-02-09T10:08:20Z</time>
      </trkpt>
      <trkpt lat="43.77795" lon="7.24874">
        <ele>654.31</ele>
        <time>2013-02-09T10:08:26Z</time>
      </trkpt>
      <trkpt lat="43.77798" lon="7.24874">
        <ele>652.87</ele>
        <time>2013-02-09T10:08:33Z</time>
      </trkpt>
      <trkpt lat="43.77801" lon="7.24875">
        <ele>652.39</ele>
        <time>2013-02-09T10:08:45Z</time>
      </trkpt>
      <trkpt lat="43.77802" lon="7.24877">
        <ele>650.95</ele>
        <time>2013-02-09T10:09:12Z</time>
      </trkpt>
      <trkpt lat="43.77802" lon="7.24875">
        <ele>650.95</ele>
        <time>2013-02-09T10:09:31Z</time>
      </trkpt>
      <trkpt lat="43.77808" lon="7.24877">
        <ele>649.99</ele>
        <time>2013-02-09T10:09:35Z</time>
      </trkpt>
      <trkpt lat="43.77825" lon="7.2487">
        <ele>645.66</ele>
        <time>2013-02-09T10:09:42Z</time>
      </trkpt>
      <trkpt lat="43.77857" lon="7.24846">
        <ele>638.45</ele>
        <time>2013-02-09T10:09:54Z</time>
      </trkpt>
      <trkpt lat="43.77885" lon="7.24824">
        <ele>630.76</ele>
        <time>2013-02-09T10:10:05Z</time>
      </trkpt>
      <trkpt lat="43.77909" lon="7.24803">
        <ele>624.51</ele>
        <time>2013-02-09T10:10:14Z</time>
      </trkpt>
      <trkpt lat="43.77929" lon="7.24807">
        <ele>617.3</ele>
        <time>2013-02-09T10:10:22Z</time>
      </trkpt>
      <trkpt lat="43.77935" lon="7.24816">
        <ele>614.9</ele>
        <time>2013-02-09T10:10:26Z</time>
      </trkpt>
      <trkpt lat="43.77943" lon="7.24821">
        <ele>611.54</ele>
        <time>2013-02-09T10:10:30Z</time>
      </trkpt>
      <trkpt lat="43.77959" lon="7.24803">
        <ele>606.25</ele>
        <time>2013-02-09T10:10:39Z</time>
      </trkpt>
      <trkpt lat="43.77962" lon="7.24802">
        <ele>606.73</ele>
        <time>2013-02-09T10:10:49Z</time>
      </trkpt>
      <trkpt lat="43.77969" lon="7.24789">
        <ele>602.88</ele>
        <time>2013-02-09T10:12:16Z</time>
      </trkpt>
      <trkpt lat="43.7797" lon="7.24788">
        <ele>603.36</ele>
        <time>2013-02-09T10:12:22Z</time>
      </trkpt>
      <trkpt lat="43.77977" lon="7.24822">
        <ele>598.56</ele>
        <time>2013-02-09T10:12:32Z</time>
      </trkpt>
      <trkpt lat="43.77978" lon="7.24827">
        <ele>598.08</ele>
        <time>2013-02-09T10:12:33Z</time>
      </trkpt>
      <trkpt lat="43.77982" lon="7.24854">
        <ele>595.19</ele>
        <time>2013-02-09T10:12:37Z</time>
      </trkpt>
      <trkpt lat="43.78004" lon="7.24878">
        <ele>594.23</ele>
        <time>2013-02-09T10:12:44Z</time>
      </trkpt>
      <trkpt lat="43.78029" lon="7.24882">
        <ele>589.43</ele>
        <time>2013-02-09T10:12:51Z</time>
      </trkpt>
      <trkpt lat="43.78052" lon="7.24881">
        <ele>583.18</ele>
        <time>2013-02-09T10:12:58Z</time>
      </trkpt>
      <trkpt lat="43.78088" lon="7.24882">
        <ele>574.53</ele>
        <time>2013-02-09T10:13:08Z</time>
      </trkpt>
      <trkpt lat="43.78097" lon="7.24878">
        <ele>573.08</ele>
        <time>2013-02-09T10:13:11Z</time>
      </trkpt>
      <trkpt lat="43.78113" lon="7.24879">
        <ele>569.72</ele>
        <time>2013-02-09T10:13:15Z</time>
      </trkpt>
      <trkpt lat="43.78133" lon="7.24885">
        <ele>566.35</ele>
        <time>2013-02-09T10:13:19Z</time>
      </trkpt>
      <trkpt lat="43.78161" lon="7.24903">
        <ele>562.03</ele>
        <time>2013-02-09T10:13:24Z</time>
      </trkpt>
      <trkpt lat="43.78173" lon="7.24912">
        <ele>560.59</ele>
        <time>2013-02-09T10:13:26Z</time>
      </trkpt>
      <trkpt lat="43.78187" lon="7.24929">
        <ele>558.66</ele>
        <time>2013-02-09T10:13:29Z</time>
      </trkpt>
      <trkpt lat="43.78201" lon="7.24948">
        <ele>554.34</ele>
        <time>2013-02-09T10:13:34Z</time>
      </trkpt>
      <trkpt lat="43.78205" lon="7.24959">
        <ele>552.41</ele>
        <time>2013-02-09T10:13:36Z</time>
      </trkpt>
      <trkpt lat="43.78207" lon="7.24971">
        <ele>550.49</ele>
        <time>2013-02-09T10:13:38Z</time>
      </trkpt>
      <trkpt lat="43.78211" lon="7.24983">
        <ele>548.57</ele>
        <time>2013-02-09T10:13:40Z</time>
      </trkpt>
      <trkpt lat="43.78214" lon="7.24994">
        <ele>546.65</ele>
        <time>2013-02-09T10:13:42Z</time>
      </trkpt>
      <trkpt lat="43.78218" lon="7.25012">
        <ele>543.28</ele>
        <time>2013-02-09T10:13:45Z</time>
      </trkpt>
      <trkpt lat="43.78221" lon="7.25036">
        <ele>539.92</ele>
        <time>2013-02-09T10:13:48Z</time>
      </trkpt>
      <trkpt lat="43.7822" lon="7.25079">
        <ele>532.71</ele>
        <time>2013-02-09T10:13:56Z</time>
      </trkpt>
      <trkpt lat="43.78216" lon="7.25113">
        <ele>528.38</ele>
        <time>2013-02-09T10:14:02Z</time>
      </trkpt>
      <trkpt lat="43.78205" lon="7.25141">
        <ele>531.27</ele>
        <time>2013-02-09T10:14:13Z</time>
      </trkpt>
      <trkpt lat="43.78196" lon="7.25161">
        <ele>532.23</ele>
        <time>2013-02-09T10:14:23Z</time>
      </trkpt>
      <trkpt lat="43.78177" lon="7.25195">
        <ele>535.11</ele>
        <time>2013-02-09T10:14:38Z</time>
      </trkpt>
      <trkpt lat="43.78156" lon="7.25229">
        <ele>541.36</ele>
        <time>2013-02-09T10:14:54Z</time>
      </trkpt>
      <trkpt lat="43.78155" lon="7.25234">
        <ele>541.84</ele>
        <time>2013-02-09T10:14:57Z</time>
      </trkpt>
      <trkpt lat="43.78156" lon="7.25238">
        <ele>538.96</ele>
        <time>2013-02-09T10:15:13Z</time>
      </trkpt>
      <trkpt lat="43.78156" lon="7.25237">
        <ele>538.96</ele>
        <time>2013-02-09T10:15:37Z</time>
      </trkpt>
      <trkpt lat="43.78157" lon="7.25246">
        <ele>537.51</ele>
        <time>2013-02-09T10:15:40Z</time>
      </trkpt>
      <trkpt lat="43.78191" lon="7.25282">
        <ele>532.71</ele>
        <time>2013-02-09T10:15:48Z</time>
      </trkpt>
      <trkpt lat="43.78196" lon="7.25286">
        <ele>531.75</ele>
        <time>2013-02-09T10:15:50Z</time>
      </trkpt>
      <trkpt lat="43.78198" lon="7.25286">
        <ele>533.19</ele>
        <time>2013-02-09T10:15:55Z</time>
      </trkpt>
      <trkpt lat="43.78217" lon="7.25257">
        <ele>535.11</ele>
        <time>2013-02-09T10:16:08Z</time>
      </trkpt>
      <trkpt lat="43.78244" lon="7.25239">
        <ele>539.44</ele>
        <time>2013-02-09T10:16:24Z</time>
      </trkpt>
      <trkpt lat="43.78264" lon="7.25225">
        <ele>542.8</ele>
        <time>2013-02-09T10:16:37Z</time>
      </trkpt>
      <trkpt lat="43.7829" lon="7.25208">
        <ele>547.13</ele>
        <time>2013-02-09T10:16:53Z</time>
      </trkpt>
      <trkpt lat="43.78316" lon="7.25191">
        <ele>551.45</ele>
        <time>2013-02-09T10:17:09Z</time>
      </trkpt>
      <trkpt lat="43.78344" lon="7.25171">
        <ele>553.86</ele>
        <time>2013-02-09T10:17:26Z</time>
      </trkpt>
      <trkpt lat="43.78368" lon="7.25155">
        <ele>558.18</ele>
        <time>2013-02-09T10:17:41Z</time>
      </trkpt>
      <trkpt lat="43.78372" lon="7.25152">
        <ele>558.18</ele>
        <time>2013-02-09T10:17:44Z</time>
      </trkpt>
      <trkpt lat="43.78375" lon="7.25153">
        <ele>557.7</ele>
        <time>2013-02-09T10:17:49Z</time>
      </trkpt>
      <trkpt lat="43.78368" lon="7.25163">
        <ele>559.14</ele>
        <time>2013-02-09T10:18:02Z</time>
      </trkpt>
      <trkpt lat="43.78357" lon="7.25181">
        <ele>560.59</ele>
        <time>2013-02-09T10:18:13Z</time>
      </trkpt>
      <trkpt lat="43.78356" lon="7.25183">
        <ele>560.59</ele>
        <time>2013-02-09T10:18:14Z</time>
      </trkpt>
      <trkpt lat="43.78358" lon="7.25193">
        <ele>561.55</ele>
        <time>2013-02-09T10:18:25Z</time>
      </trkpt>
      <trkpt lat="43.7836" lon="7.25197">
        <ele>562.03</ele>
        <time>2013-02-09T10:18:31Z</time>
      </trkpt>
      <trkpt lat="43.78365" lon="7.25203">
        <ele>563.95</ele>
        <time>2013-02-09T10:18:41Z</time>
      </trkpt>
      <trkpt lat="43.78374" lon="7.25208">
        <ele>565.39</ele>
        <time>2013-02-09T10:18:52Z</time>
      </trkpt>
      <trkpt lat="43.78386" lon="7.25209">
        <ele>566.35</ele>
        <time>2013-02-09T10:19:05Z</time>
      </trkpt>
      <trkpt lat="43.78391" lon="7.25209">
        <ele>565.87</ele>
        <time>2013-02-09T10:19:09Z</time>
      </trkpt>
      <trkpt lat="43.78413" lon="7.25186">
        <ele>567.8</ele>
        <time>2013-02-09T10:19:25Z</time>
      </trkpt>
      <trkpt lat="43.78431" lon="7.25169">
        <ele>570.2</ele>
        <time>2013-02-09T10:19:37Z</time>
      </trkpt>
      <trkpt lat="43.78452" lon="7.25149">
        <ele>574.04</ele>
        <time>2013-02-09T10:19:54Z</time>
      </trkpt>
      <trkpt lat="43.78473" lon="7.25134">
        <ele>578.85</ele>
        <time>2013-02-09T10:20:08Z</time>
      </trkpt>
      <trkpt lat="43.78495" lon="7.25118">
        <ele>581.25</ele>
        <time>2013-02-09T10:20:22Z</time>
      </trkpt>
      <trkpt lat="43.785" lon="7.25115">
        <ele>582.22</ele>
        <time>2013-02-09T10:20:25Z</time>
      </trkpt>
      <trkpt lat="43.78522" lon="7.25099">
        <ele>583.18</ele>
        <time>2013-02-09T10:20:40Z</time>
      </trkpt>
      <trkpt lat="43.78549" lon="7.25094">
        <ele>584.14</ele>
        <time>2013-02-09T10:20:54Z</time>
      </trkpt>
      <trkpt lat="43.78557" lon="7.25098">
        <ele>582.22</ele>
        <time>2013-02-09T10:20:57Z</time>
      </trkpt>
      <trkpt lat="43.78592" lon="7.25092">
        <ele>580.29</ele>
        <time>2013-02-09T10:21:05Z</time>
      </trkpt>
      <trkpt lat="43.786" lon="7.25089">
        <ele>580.29</ele>
        <time>2013-02-09T10:21:07Z</time>
      </trkpt>
      <trkpt lat="43.78618" lon="7.25084">
        <ele>579.81</ele>
        <time>2013-02-09T10:21:11Z</time>
      </trkpt>
      <trkpt lat="43.78702" lon="7.25061">
        <ele>576.45</ele>
        <time>2013-02-09T10:21:25Z</time>
      </trkpt>
      <trkpt lat="43.78733" lon="7.2505">
        <ele>578.85</ele>
        <time>2013-02-09T10:21:35Z</time>
      </trkpt>
      <trkpt lat="43.78772" lon="7.25038">
        <ele>583.18</ele>
        <time>2013-02-09T10:21:51Z</time>
      </trkpt>
      <trkpt lat="43.78783" lon="7.25027">
        <ele>585.1</ele>
        <time>2013-02-09T10:22:02Z</time>
      </trkpt>
      <trkpt lat="43.78788" lon="7.25015">
        <ele>594.23</ele>
        <time>2013-02-09T10:26:49Z</time>
      </trkpt>
      <trkpt lat="43.78791" lon="7.25002">
        <ele>594.23</ele>
        <time>2013-02-09T10:28:08Z</time>
      </trkpt>
      <trkpt lat="43.78794" lon="7.24982">
        <ele>593.27</ele>
        <time>2013-02-09T10:28:16Z</time>
      </trkpt>
      <trkpt lat="43.78797" lon="7.24961">
        <ele>592.79</ele>
        <time>2013-02-09T10:28:24Z</time>
      </trkpt>
      <trkpt lat="43.78805" lon="7.24924">
        <ele>593.27</ele>
        <time>2013-02-09T10:28:38Z</time>
      </trkpt>
      <trkpt lat="43.78811" lon="7.24897">
        <ele>593.75</ele>
        <time>2013-02-09T10:28:49Z</time>
      </trkpt>
      <trkpt lat="43.78817" lon="7.24858">
        <ele>592.31</ele>
        <time>2013-02-09T10:29:00Z</time>
      </trkpt>
      <trkpt lat="43.7882" lon="7.24821">
        <ele>587.5</ele>
        <time>2013-02-09T10:29:07Z</time>
      </trkpt>
      <trkpt lat="43.78838" lon="7.24733">
        <ele>584.14</ele>
        <time>2013-02-09T10:29:21Z</time>
      </trkpt>
      <trkpt lat="43.78855" lon="7.24672">
        <ele>580.77</ele>
        <time>2013-02-09T10:29:35Z</time>
      </trkpt>
      <trkpt lat="43.78861" lon="7.24662">
        <ele>579.33</ele>
        <time>2013-02-09T10:29:38Z</time>
      </trkpt>
      <trkpt lat="43.78883" lon="7.24658">
        <ele>580.77</ele>
        <time>2013-02-09T10:29:48Z</time>
      </trkpt>
      <trkpt lat="43.78883" lon="7.2466">
        <ele>581.25</ele>
        <time>2013-02-09T10:29:51Z</time>
      </trkpt>
      <trkpt lat="43.78878" lon="7.24663">
        <ele>582.22</ele>
        <time>2013-02-09T10:29:56Z</time>
      </trkpt>
      <trkpt lat="43.78885" lon="7.24674">
        <ele>587.98</ele>
        <time>2013-02-09T10:30:09Z</time>
      </trkpt>
      <trkpt lat="43.78901" lon="7.24692">
        <ele>592.31</ele>
        <time>2013-02-09T10:30:26Z</time>
      </trkpt>
      <trkpt lat="43.78907" lon="7.24722">
        <ele>596.64</ele>
        <time>2013-02-09T10:30:46Z</time>
      </trkpt>
      <trkpt lat="43.78911" lon="7.24741">
        <ele>601.44</ele>
        <time>2013-02-09T10:31:03Z</time>
      </trkpt>
      <trkpt lat="43.78914" lon="7.24751">
        <ele>601.92</ele>
        <time>2013-02-09T10:31:12Z</time>
      </trkpt>
      <trkpt lat="43.78915" lon="7.24753">
        <ele>603.36</ele>
        <time>2013-02-09T10:31:15Z</time>
      </trkpt>
      <trkpt lat="43.78918" lon="7.24759">
        <ele>605.77</ele>
        <time>2013-02-09T10:31:22Z</time>
      </trkpt>
      <trkpt lat="43.78926" lon="7.24771">
        <ele>609.61</ele>
        <time>2013-02-09T10:31:36Z</time>
      </trkpt>
      <trkpt lat="43.78936" lon="7.24782">
        <ele>612.5</ele>
        <time>2013-02-09T10:31:52Z</time>
      </trkpt>
      <trkpt lat="43.78941" lon="7.24788">
        <ele>613.94</ele>
        <time>2013-02-09T10:32:04Z</time>
      </trkpt>
      <trkpt lat="43.78945" lon="7.24793">
        <ele>615.38</ele>
        <time>2013-02-09T10:32:17Z</time>
      </trkpt>
      <trkpt lat="43.78948" lon="7.24798">
        <ele>616.34</ele>
        <time>2013-02-09T10:32:28Z</time>
      </trkpt>
      <trkpt lat="43.78949" lon="7.24802">
        <ele>615.86</ele>
        <time>2013-02-09T10:32:39Z</time>
      </trkpt>
      <trkpt lat="43.78949" lon="7.24803">
        <ele>616.34</ele>
        <time>2013-02-09T10:32:40Z</time>
      </trkpt>
      <trkpt lat="43.78933" lon="7.24838">
        <ele>619.71</ele>
        <time>2013-02-09T10:32:56Z</time>
      </trkpt>
      <trkpt lat="43.78914" lon="7.24889">
        <ele>621.63</ele>
        <time>2013-02-09T10:33:16Z</time>
      </trkpt>
      <trkpt lat="43.78919" lon="7.24917">
        <ele>622.11</ele>
        <time>2013-02-09T10:33:29Z</time>
      </trkpt>
      <trkpt lat="43.78946" lon="7.24912">
        <ele>627.88</ele>
        <time>2013-02-09T10:33:46Z</time>
      </trkpt>
      <trkpt lat="43.78955" lon="7.24907">
        <ele>630.28</ele>
        <time>2013-02-09T10:33:53Z</time>
      </trkpt>
      <trkpt lat="43.78968" lon="7.24899">
        <ele>633.65</ele>
        <time>2013-02-09T10:34:07Z</time>
      </trkpt>
      <trkpt lat="43.7898" lon="7.24896">
        <ele>636.05</ele>
        <time>2013-02-09T10:34:23Z</time>
      </trkpt>
      <trkpt lat="43.7899" lon="7.24891">
        <ele>639.41</ele>
        <time>2013-02-09T10:34:39Z</time>
      </trkpt>
      <trkpt lat="43.79002" lon="7.24885">
        <ele>642.78</ele>
        <time>2013-02-09T10:34:56Z</time>
      </trkpt>
      <trkpt lat="43.79008" lon="7.24886">
        <ele>643.74</ele>
        <time>2013-02-09T10:35:03Z</time>
      </trkpt>
      <trkpt lat="43.7902" lon="7.24893">
        <ele>645.18</ele>
        <time>2013-02-09T10:35:18Z</time>
      </trkpt>
      <trkpt lat="43.79031" lon="7.24901">
        <ele>647.59</ele>
        <time>2013-02-09T10:35:33Z</time>
      </trkpt>
      <trkpt lat="43.79041" lon="7.24911">
        <ele>649.03</ele>
        <time>2013-02-09T10:35:45Z</time>
      </trkpt>
      <trkpt lat="43.79053" lon="7.24921">
        <ele>651.43</ele>
        <time>2013-02-09T10:36:01Z</time>
      </trkpt>
      <trkpt lat="43.79064" lon="7.24931">
        <ele>654.8</ele>
        <time>2013-02-09T10:36:17Z</time>
      </trkpt>
      <trkpt lat="43.79073" lon="7.24944">
        <ele>656.72</ele>
        <time>2013-02-09T10:36:31Z</time>
      </trkpt>
      <trkpt lat="43.79084" lon="7.24966">
        <ele>659.6</ele>
        <time>2013-02-09T10:36:48Z</time>
      </trkpt>
      <trkpt lat="43.79087" lon="7.24973">
        <ele>659.6</ele>
        <time>2013-02-09T10:36:53Z</time>
      </trkpt>
      <trkpt lat="43.79091" lon="7.24992">
        <ele>660.56</ele>
        <time>2013-02-09T10:37:05Z</time>
      </trkpt>
      <trkpt lat="43.79096" lon="7.25005">
        <ele>662.01</ele>
        <time>2013-02-09T10:37:14Z</time>
      </trkpt>
      <trkpt lat="43.79099" lon="7.25001">
        <ele>663.93</ele>
        <time>2013-02-09T10:37:24Z</time>
      </trkpt>
      <trkpt lat="43.79099" lon="7.24995">
        <ele>663.93</ele>
        <time>2013-02-09T10:37:27Z</time>
      </trkpt>
      <trkpt lat="43.79099" lon="7.24983">
        <ele>665.37</ele>
        <time>2013-02-09T10:37:33Z</time>
      </trkpt>
      <trkpt lat="43.79101" lon="7.24974">
        <ele>666.33</ele>
        <time>2013-02-09T10:37:37Z</time>
      </trkpt>
      <trkpt lat="43.79106" lon="7.24958">
        <ele>668.25</ele>
        <time>2013-02-09T10:37:45Z</time>
      </trkpt>
      <trkpt lat="43.79106" lon="7.24947">
        <ele>669.7</ele>
        <time>2013-02-09T10:37:50Z</time>
      </trkpt>
      <trkpt lat="43.79108" lon="7.24932">
        <ele>671.62</ele>
        <time>2013-02-09T10:38:03Z</time>
      </trkpt>
      <trkpt lat="43.79117" lon="7.24915">
        <ele>675.94</ele>
        <time>2013-02-09T10:38:20Z</time>
      </trkpt>
      <trkpt lat="43.79122" lon="7.24912">
        <ele>676.91</ele>
        <time>2013-02-09T10:38:28Z</time>
      </trkpt>
      <trkpt lat="43.79137" lon="7.24903">
        <ele>679.31</ele>
        <time>2013-02-09T10:38:45Z</time>
      </trkpt>
      <trkpt lat="43.79144" lon="7.24896">
        <ele>681.71</ele>
        <time>2013-02-09T10:38:54Z</time>
      </trkpt>
      <trkpt lat="43.79149" lon="7.24884">
        <ele>681.71</ele>
        <time>2013-02-09T10:39:08Z</time>
      </trkpt>
      <trkpt lat="43.79157" lon="7.24858">
        <ele>681.23</ele>
        <time>2013-02-09T10:39:21Z</time>
      </trkpt>
      <trkpt lat="43.79155" lon="7.24857">
        <ele>682.19</ele>
        <time>2013-02-09T10:39:47Z</time>
      </trkpt>
      <trkpt lat="43.7916" lon="7.24851">
        <ele>681.23</ele>
        <time>2013-02-09T10:40:09Z</time>
      </trkpt>
      <trkpt lat="43.79159" lon="7.2483">
        <ele>679.31</ele>
        <time>2013-02-09T10:40:14Z</time>
      </trkpt>
      <trkpt lat="43.7917" lon="7.24833">
        <ele>677.39</ele>
        <time>2013-02-09T10:40:21Z</time>
      </trkpt>
      <trkpt lat="43.79172" lon="7.2484">
        <ele>676.91</ele>
        <time>2013-02-09T10:40:23Z</time>
      </trkpt>
      <trkpt lat="43.79185" lon="7.24828">
        <ele>674.5</ele>
        <time>2013-02-09T10:40:29Z</time>
      </trkpt>
      <trkpt lat="43.79201" lon="7.24822">
        <ele>670.66</ele>
        <time>2013-02-09T10:40:33Z</time>
      </trkpt>
      <trkpt lat="43.7923" lon="7.24828">
        <ele>667.29</ele>
        <time>2013-02-09T10:40:38Z</time>
      </trkpt>
      <trkpt lat="43.79273" lon="7.24815">
        <ele>667.29</ele>
        <time>2013-02-09T10:40:47Z</time>
      </trkpt>
      <trkpt lat="43.79277" lon="7.24809">
        <ele>668.25</ele>
        <time>2013-02-09T10:40:51Z</time>
      </trkpt>
      <trkpt lat="43.79288" lon="7.2481">
        <ele>670.18</ele>
        <time>2013-02-09T10:40:59Z</time>
      </trkpt>
      <trkpt lat="43.79309" lon="7.24824">
        <ele>671.14</ele>
        <time>2013-02-09T10:41:13Z</time>
      </trkpt>
      <trkpt lat="43.79333" lon="7.24835">
        <ele>671.62</ele>
        <time>2013-02-09T10:41:29Z</time>
      </trkpt>
      <trkpt lat="43.79352" lon="7.24837">
        <ele>675.94</ele>
        <time>2013-02-09T10:41:43Z</time>
      </trkpt>
      <trkpt lat="43.79362" lon="7.24836">
        <ele>677.87</ele>
        <time>2013-02-09T10:41:52Z</time>
      </trkpt>
      <trkpt lat="43.79344" lon="7.24818">
        <ele>679.31</ele>
        <time>2013-02-09T10:42:54Z</time>
      </trkpt>
      <trkpt lat="43.79341" lon="7.24814">
        <ele>679.79</ele>
        <time>2013-02-09T10:42:57Z</time>
      </trkpt>
      <trkpt lat="43.79337" lon="7.24785">
        <ele>683.63</ele>
        <time>2013-02-09T10:43:13Z</time>
      </trkpt>
      <trkpt lat="43.79337" lon="7.24755">
        <ele>687</ele>
        <time>2013-02-09T10:43:28Z</time>
      </trkpt>
      <trkpt lat="43.79346" lon="7.24721">
        <ele>688.44</ele>
        <time>2013-02-09T10:43:45Z</time>
      </trkpt>
      <trkpt lat="43.79358" lon="7.24678">
        <ele>688.92</ele>
        <time>2013-02-09T10:44:03Z</time>
      </trkpt>
      <trkpt lat="43.79359" lon="7.24675">
        <ele>689.4</ele>
        <time>2013-02-09T10:44:05Z</time>
      </trkpt>
      <trkpt lat="43.79372" lon="7.24643">
        <ele>689.4</ele>
        <time>2013-02-09T10:44:22Z</time>
      </trkpt>
      <trkpt lat="43.79394" lon="7.24605">
        <ele>692.29</ele>
        <time>2013-02-09T10:44:39Z</time>
      </trkpt>
      <trkpt lat="43.79421" lon="7.24572">
        <ele>695.17</ele>
        <time>2013-02-09T10:44:56Z</time>
      </trkpt>
      <trkpt lat="43.7945" lon="7.24545">
        <ele>697.57</ele>
        <time>2013-02-09T10:45:12Z</time>
      </trkpt>
      <trkpt lat="43.79483" lon="7.24515">
        <ele>697.57</ele>
        <time>2013-02-09T10:45:29Z</time>
      </trkpt>
      <trkpt lat="43.79514" lon="7.24486">
        <ele>699.5</ele>
        <time>2013-02-09T10:45:45Z</time>
      </trkpt>
      <trkpt lat="43.79544" lon="7.24459">
        <ele>702.86</ele>
        <time>2013-02-09T10:46:01Z</time>
      </trkpt>
      <trkpt lat="43.7957" lon="7.24429">
        <ele>704.78</ele>
        <time>2013-02-09T10:46:16Z</time>
      </trkpt>
      <trkpt lat="43.79602" lon="7.24392">
        <ele>706.71</ele>
        <time>2013-02-09T10:46:33Z</time>
      </trkpt>
      <trkpt lat="43.79631" lon="7.2436">
        <ele>709.59</ele>
        <time>2013-02-09T10:46:50Z</time>
      </trkpt>
      <trkpt lat="43.79659" lon="7.24333">
        <ele>711.99</ele>
        <time>2013-02-09T10:47:06Z</time>
      </trkpt>
      <trkpt lat="43.79682" lon="7.24299">
        <ele>713.92</ele>
        <time>2013-02-09T10:47:21Z</time>
      </trkpt>
      <trkpt lat="43.79705" lon="7.24252">
        <ele>713.92</ele>
        <time>2013-02-09T10:47:38Z</time>
      </trkpt>
      <trkpt lat="43.79727" lon="7.24205">
        <ele>716.32</ele>
        <time>2013-02-09T10:47:55Z</time>
      </trkpt>
      <trkpt lat="43.79734" lon="7.24188">
        <ele>715.36</ele>
        <time>2013-02-09T10:48:01Z</time>
      </trkpt>
      <trkpt lat="43.79737" lon="7.24176">
        <ele>714.4</ele>
        <time>2013-02-09T10:48:03Z</time>
      </trkpt>
      <trkpt lat="43.79752" lon="7.24129">
        <ele>713.44</ele>
        <time>2013-02-09T10:48:11Z</time>
      </trkpt>
      <trkpt lat="43.79753" lon="7.24127">
        <ele>713.92</ele>
        <time>2013-02-09T10:48:12Z</time>
      </trkpt>
      <trkpt lat="43.79768" lon="7.24098">
        <ele>717.28</ele>
        <time>2013-02-09T10:48:24Z</time>
      </trkpt>
      <trkpt lat="43.79777" lon="7.24088">
        <ele>719.68</ele>
        <time>2013-02-09T10:48:31Z</time>
      </trkpt>
      <trkpt lat="43.79818" lon="7.2408">
        <ele>719.2</ele>
        <time>2013-02-09T10:53:42Z</time>
      </trkpt>
      <trkpt lat="43.79842" lon="7.24076">
        <ele>723.53</ele>
        <time>2013-02-09T10:53:54Z</time>
      </trkpt>
      <trkpt lat="43.79874" lon="7.24069">
        <ele>726.41</ele>
        <time>2013-02-09T10:54:12Z</time>
      </trkpt>
      <trkpt lat="43.79876" lon="7.24069">
        <ele>726.89</ele>
        <time>2013-02-09T10:54:13Z</time>
      </trkpt>
      <trkpt lat="43.79885" lon="7.24081">
        <ele>729.3</ele>
        <time>2013-02-09T10:54:24Z</time>
      </trkpt>
      <trkpt lat="43.79895" lon="7.24087">
        <ele>732.18</ele>
        <time>2013-02-09T10:54:39Z</time>
      </trkpt>
      <trkpt lat="43.79903" lon="7.24093">
        <ele>733.14</ele>
        <time>2013-02-09T10:54:49Z</time>
      </trkpt>
      <trkpt lat="43.79905" lon="7.24092">
        <ele>732.66</ele>
        <time>2013-02-09T10:54:52Z</time>
      </trkpt>
      <trkpt lat="43.79911" lon="7.24091">
        <ele>732.66</ele>
        <time>2013-02-09T10:54:57Z</time>
      </trkpt>
      <trkpt lat="43.79923" lon="7.24107">
        <ele>734.1</ele>
        <time>2013-02-09T10:55:11Z</time>
      </trkpt>
      <trkpt lat="43.7994" lon="7.24125">
        <ele>736.03</ele>
        <time>2013-02-09T10:55:27Z</time>
      </trkpt>
      <trkpt lat="43.79944" lon="7.24129">
        <ele>736.51</ele>
        <time>2013-02-09T10:55:31Z</time>
      </trkpt>
      <trkpt lat="43.79952" lon="7.24153">
        <ele>740.35</ele>
        <time>2013-02-09T10:55:47Z</time>
      </trkpt>
      <trkpt lat="43.79958" lon="7.24174">
        <ele>744.2</ele>
        <time>2013-02-09T10:56:02Z</time>
      </trkpt>
      <trkpt lat="43.79959" lon="7.24179">
        <ele>745.16</ele>
        <time>2013-02-09T10:56:06Z</time>
      </trkpt>
      <trkpt lat="43.79964" lon="7.24194">
        <ele>748.52</ele>
        <time>2013-02-09T10:56:20Z</time>
      </trkpt>
      <trkpt lat="43.79964" lon="7.24194">
        <ele>749</ele>
        <time>2013-02-09T10:56:21Z</time>
      </trkpt>
      <trkpt lat="43.79969" lon="7.24195">
        <ele>748.52</ele>
        <time>2013-02-09T10:56:25Z</time>
      </trkpt>
      <trkpt lat="43.79973" lon="7.24205">
        <ele>750.93</ele>
        <time>2013-02-09T10:56:34Z</time>
      </trkpt>
      <trkpt lat="43.79976" lon="7.24206">
        <ele>751.41</ele>
        <time>2013-02-09T10:56:37Z</time>
      </trkpt>
      <trkpt lat="43.79991" lon="7.24212">
        <ele>752.37</ele>
        <time>2013-02-09T10:56:51Z</time>
      </trkpt>
      <trkpt lat="43.79994" lon="7.24215">
        <ele>752.85</ele>
        <time>2013-02-09T10:56:55Z</time>
      </trkpt>
      <trkpt lat="43.79999" lon="7.24222">
        <ele>751.89</ele>
        <time>2013-02-09T10:57:02Z</time>
      </trkpt>
      <trkpt lat="43.79999" lon="7.24231">
        <ele>751.41</ele>
        <time>2013-02-09T10:57:13Z</time>
      </trkpt>
      <trkpt lat="43.80002" lon="7.24246">
        <ele>751.41</ele>
        <time>2013-02-09T10:57:20Z</time>
      </trkpt>
      <trkpt lat="43.80002" lon="7.24258">
        <ele>750.93</ele>
        <time>2013-02-09T10:57:24Z</time>
      </trkpt>
      <trkpt lat="43.80005" lon="7.24279">
        <ele>749</ele>
        <time>2013-02-09T10:57:32Z</time>
      </trkpt>
      <trkpt lat="43.80014" lon="7.2431">
        <ele>746.6</ele>
        <time>2013-02-09T10:57:41Z</time>
      </trkpt>
      <trkpt lat="43.80015" lon="7.2432">
        <ele>746.6</ele>
        <time>2013-02-09T10:57:43Z</time>
      </trkpt>
      <trkpt lat="43.80017" lon="7.24329">
        <ele>746.12</ele>
        <time>2013-02-09T10:57:45Z</time>
      </trkpt>
      <trkpt lat="43.80021" lon="7.24363">
        <ele>744.68</ele>
        <time>2013-02-09T10:57:52Z</time>
      </trkpt>
      <trkpt lat="43.80027" lon="7.2439">
        <ele>742.76</ele>
        <time>2013-02-09T10:57:57Z</time>
      </trkpt>
      <trkpt lat="43.8004" lon="7.24418">
        <ele>740.35</ele>
        <time>2013-02-09T10:58:07Z</time>
      </trkpt>
      <trkpt lat="43.80052" lon="7.24445">
        <ele>739.39</ele>
        <time>2013-02-09T10:58:14Z</time>
      </trkpt>
      <trkpt lat="43.8007" lon="7.24451">
        <ele>737.47</ele>
        <time>2013-02-09T10:58:21Z</time>
      </trkpt>
      <trkpt lat="43.80072" lon="7.24447">
        <ele>736.99</ele>
        <time>2013-02-09T11:02:05Z</time>
      </trkpt>
      <trkpt lat="43.80082" lon="7.24432">
        <ele>734.1</ele>
        <time>2013-02-09T11:02:12Z</time>
      </trkpt>
      <trkpt lat="43.80082" lon="7.24402">
        <ele>726.89</ele>
        <time>2013-02-09T11:02:22Z</time>
      </trkpt>
      <trkpt lat="43.80088" lon="7.24408">
        <ele>725.93</ele>
        <time>2013-02-09T11:03:37Z</time>
      </trkpt>
      <trkpt lat="43.80104" lon="7.24421">
        <ele>723.53</ele>
        <time>2013-02-09T11:03:43Z</time>
      </trkpt>
      <trkpt lat="43.80113" lon="7.24436">
        <ele>722.09</ele>
        <time>2013-02-09T11:03:48Z</time>
      </trkpt>
      <trkpt lat="43.80119" lon="7.24441">
        <ele>720.65</ele>
        <time>2013-02-09T11:03:51Z</time>
      </trkpt>
      <trkpt lat="43.80123" lon="7.24444">
        <ele>719.68</ele>
        <time>2013-02-09T11:04:00Z</time>
      </trkpt>
      <trkpt lat="43.80124" lon="7.24443">
        <ele>719.2</ele>
        <time>2013-02-09T11:04:02Z</time>
      </trkpt>
      <trkpt lat="43.80124" lon="7.2444">
        <ele>717.76</ele>
        <time>2013-02-09T11:04:11Z</time>
      </trkpt>
      <trkpt lat="43.80124" lon="7.24438">
        <ele>717.28</ele>
        <time>2013-02-09T11:04:13Z</time>
      </trkpt>
      <trkpt lat="43.80124" lon="7.24435">
        <ele>716.8</ele>
        <time>2013-02-09T11:04:17Z</time>
      </trkpt>
      <trkpt lat="43.8012" lon="7.24403">
        <ele>709.59</ele>
        <time>2013-02-09T11:04:27Z</time>
      </trkpt>
      <trkpt lat="43.80113" lon="7.24366">
        <ele>704.3</ele>
        <time>2013-02-09T11:04:36Z</time>
      </trkpt>
      <trkpt lat="43.80111" lon="7.24345">
        <ele>699.98</ele>
        <time>2013-02-09T11:04:41Z</time>
      </trkpt>
      <trkpt lat="43.8011" lon="7.24316">
        <ele>693.73</ele>
        <time>2013-02-09T11:04:47Z</time>
      </trkpt>
      <trkpt lat="43.8011" lon="7.24309">
        <ele>692.29</ele>
        <time>2013-02-09T11:04:49Z</time>
      </trkpt>
      <trkpt lat="43.80116" lon="7.24311">
        <ele>686.52</ele>
        <time>2013-02-09T11:04:54Z</time>
      </trkpt>
      <trkpt lat="43.80128" lon="7.24329">
        <ele>680.75</ele>
        <time>2013-02-09T11:05:04Z</time>
      </trkpt>
      <trkpt lat="43.80131" lon="7.24329">
        <ele>678.35</ele>
        <time>2013-02-09T11:05:07Z</time>
      </trkpt>
      <trkpt lat="43.8014" lon="7.24339">
        <ele>674.98</ele>
        <time>2013-02-09T11:05:16Z</time>
      </trkpt>
      <trkpt lat="43.80145" lon="7.24338">
        <ele>679.31</ele>
        <time>2013-02-09T11:05:28Z</time>
      </trkpt>
      <trkpt lat="43.80146" lon="7.24308">
        <ele>673.06</ele>
        <time>2013-02-09T11:05:38Z</time>
      </trkpt>
      <trkpt lat="43.8015" lon="7.24282">
        <ele>668.25</ele>
        <time>2013-02-09T11:05:45Z</time>
      </trkpt>
      <trkpt lat="43.80155" lon="7.24269">
        <ele>661.04</ele>
        <time>2013-02-09T11:05:53Z</time>
      </trkpt>
      <trkpt lat="43.80163" lon="7.24253">
        <ele>657.68</ele>
        <time>2013-02-09T11:06:00Z</time>
      </trkpt>
      <trkpt lat="43.80165" lon="7.2425">
        <ele>657.2</ele>
        <time>2013-02-09T11:06:01Z</time>
      </trkpt>
      <trkpt lat="43.8017" lon="7.24228">
        <ele>650.95</ele>
        <time>2013-02-09T11:06:07Z</time>
      </trkpt>
      <trkpt lat="43.80179" lon="7.24211">
        <ele>647.59</ele>
        <time>2013-02-09T11:06:13Z</time>
      </trkpt>
      <trkpt lat="43.80185" lon="7.24199">
        <ele>646.14</ele>
        <time>2013-02-09T11:06:16Z</time>
      </trkpt>
      <trkpt lat="43.80195" lon="7.24176">
        <ele>640.38</ele>
        <time>2013-02-09T11:06:21Z</time>
      </trkpt>
      <trkpt lat="43.80208" lon="7.24146">
        <ele>631.24</ele>
        <time>2013-02-09T11:06:31Z</time>
      </trkpt>
      <trkpt lat="43.80217" lon="7.24133">
        <ele>627.88</ele>
        <time>2013-02-09T11:06:35Z</time>
      </trkpt>
      <trkpt lat="43.80227" lon="7.24082">
        <ele>617.78</ele>
        <time>2013-02-09T11:06:46Z</time>
      </trkpt>
      <trkpt lat="43.80231" lon="7.24084">
        <ele>612.5</ele>
        <time>2013-02-09T11:06:54Z</time>
      </trkpt>
      <trkpt lat="43.80231" lon="7.24083">
        <ele>612.5</ele>
        <time>2013-02-09T11:06:55Z</time>
      </trkpt>
      <trkpt lat="43.80233" lon="7.24076">
        <ele>617.3</ele>
        <time>2013-02-09T11:07:07Z</time>
      </trkpt>
      <trkpt lat="43.80233" lon="7.24072">
        <ele>617.3</ele>
        <time>2013-02-09T11:07:08Z</time>
      </trkpt>
      <trkpt lat="43.80239" lon="7.24012">
        <ele>606.73</ele>
        <time>2013-02-09T11:07:18Z</time>
      </trkpt>
      <trkpt lat="43.80239" lon="7.24002">
        <ele>603.85</ele>
        <time>2013-02-09T11:07:20Z</time>
      </trkpt>
      <trkpt lat="43.80241" lon="7.23972">
        <ele>596.64</ele>
        <time>2013-02-09T11:07:25Z</time>
      </trkpt>
      <trkpt lat="43.80244" lon="7.23928">
        <ele>584.62</ele>
        <time>2013-02-09T11:07:34Z</time>
      </trkpt>
      <trkpt lat="43.80246" lon="7.23925">
        <ele>580.77</ele>
        <time>2013-02-09T11:07:44Z</time>
      </trkpt>
      <trkpt lat="43.80245" lon="7.23919">
        <ele>578.37</ele>
        <time>2013-02-09T11:07:51Z</time>
      </trkpt>
      <trkpt lat="43.80247" lon="7.23915">
        <ele>577.89</ele>
        <time>2013-02-09T11:07:55Z</time>
      </trkpt>
      <trkpt lat="43.80248" lon="7.23918">
        <ele>577.89</ele>
        <time>2013-02-09T11:07:58Z</time>
      </trkpt>
      <trkpt lat="43.8025" lon="7.23916">
        <ele>575.49</ele>
        <time>2013-02-09T11:08:05Z</time>
      </trkpt>
      <trkpt lat="43.80251" lon="7.23896">
        <ele>571.64</ele>
        <time>2013-02-09T11:08:11Z</time>
      </trkpt>
      <trkpt lat="43.80249" lon="7.23866">
        <ele>565.39</ele>
        <time>2013-02-09T11:08:18Z</time>
      </trkpt>
      <trkpt lat="43.80249" lon="7.23855">
        <ele>563.95</ele>
        <time>2013-02-09T11:08:20Z</time>
      </trkpt>
      <trkpt lat="43.80246" lon="7.23838">
        <ele>561.55</ele>
        <time>2013-02-09T11:08:23Z</time>
      </trkpt>
      <trkpt lat="43.80242" lon="7.23827">
        <ele>560.59</ele>
        <time>2013-02-09T11:08:31Z</time>
      </trkpt>
      <trkpt lat="43.80242" lon="7.23823">
        <ele>562.99</ele>
        <time>2013-02-09T11:08:54Z</time>
      </trkpt>
      <trkpt lat="43.80237" lon="7.23818">
        <ele>564.91</ele>
        <time>2013-02-09T11:09:08Z</time>
      </trkpt>
      <trkpt lat="43.80238" lon="7.23816">
        <ele>566.83</ele>
        <time>2013-02-09T11:09:43Z</time>
      </trkpt>
      <trkpt lat="43.80224" lon="7.23798">
        <ele>566.35</ele>
        <time>2013-02-09T11:09:53Z</time>
      </trkpt>
      <trkpt lat="43.80224" lon="7.23796">
        <ele>565.87</ele>
        <time>2013-02-09T11:10:13Z</time>
      </trkpt>
      <trkpt lat="43.80224" lon="7.23769">
        <ele>559.14</ele>
        <time>2013-02-09T11:10:18Z</time>
      </trkpt>
      <trkpt lat="43.8019" lon="7.23754">
        <ele>555.3</ele>
        <time>2013-02-09T11:10:30Z</time>
      </trkpt>
      <trkpt lat="43.80184" lon="7.23752">
        <ele>554.82</ele>
        <time>2013-02-09T11:10:31Z</time>
      </trkpt>
      <trkpt lat="43.80156" lon="7.23748">
        <ele>551.93</ele>
        <time>2013-02-09T11:10:35Z</time>
      </trkpt>
      <trkpt lat="43.8012" lon="7.23738">
        <ele>546.65</ele>
        <time>2013-02-09T11:10:40Z</time>
      </trkpt>
      <trkpt lat="43.80084" lon="7.23735">
        <ele>541.84</ele>
        <time>2013-02-09T11:10:44Z</time>
      </trkpt>
      <trkpt lat="43.8006" lon="7.23727">
        <ele>538.96</ele>
        <time>2013-02-09T11:10:47Z</time>
      </trkpt>
      <trkpt lat="43.80047" lon="7.23719">
        <ele>537.51</ele>
        <time>2013-02-09T11:10:49Z</time>
      </trkpt>
      <trkpt lat="43.80025" lon="7.23702">
        <ele>537.03</ele>
        <time>2013-02-09T11:10:53Z</time>
      </trkpt>
      <trkpt lat="43.80013" lon="7.23695">
        <ele>536.07</ele>
        <time>2013-02-09T11:10:55Z</time>
      </trkpt>
      <trkpt lat="43.79979" lon="7.23655">
        <ele>531.75</ele>
        <time>2013-02-09T11:11:01Z</time>
      </trkpt>
      <trkpt lat="43.79982" lon="7.23643">
        <ele>528.86</ele>
        <time>2013-02-09T11:11:07Z</time>
      </trkpt>
      <trkpt lat="43.79986" lon="7.23652">
        <ele>527.42</ele>
        <time>2013-02-09T11:11:11Z</time>
      </trkpt>
      <trkpt lat="43.80022" lon="7.23661">
        <ele>523.09</ele>
        <time>2013-02-09T11:11:20Z</time>
      </trkpt>
      <trkpt lat="43.80055" lon="7.23681">
        <ele>521.17</ele>
        <time>2013-02-09T11:11:25Z</time>
      </trkpt>
      <trkpt lat="43.80082" lon="7.2369">
        <ele>519.73</ele>
        <time>2013-02-09T11:11:29Z</time>
      </trkpt>
      <trkpt lat="43.80136" lon="7.23688">
        <ele>516.85</ele>
        <time>2013-02-09T11:11:36Z</time>
      </trkpt>
      <trkpt lat="43.80177" lon="7.23677">
        <ele>513</ele>
        <time>2013-02-09T11:11:41Z</time>
      </trkpt>
      <trkpt lat="43.80199" lon="7.23664">
        <ele>507.71</ele>
        <time>2013-02-09T11:11:48Z</time>
      </trkpt>
      <trkpt lat="43.80194" lon="7.23663">
        <ele>507.23</ele>
        <time>2013-02-09T11:11:58Z</time>
      </trkpt>
      <trkpt lat="43.80195" lon="7.23663">
        <ele>508.19</ele>
        <time>2013-02-09T11:12:38Z</time>
      </trkpt>
      <trkpt lat="43.80195" lon="7.23662">
        <ele>509.16</ele>
        <time>2013-02-09T11:13:04Z</time>
      </trkpt>
      <trkpt lat="43.80176" lon="7.23649">
        <ele>506.75</ele>
        <time>2013-02-09T11:13:11Z</time>
      </trkpt>
      <trkpt lat="43.8015" lon="7.23642">
        <ele>504.83</ele>
        <time>2013-02-09T11:13:16Z</time>
      </trkpt>
      <trkpt lat="43.80136" lon="7.23633">
        <ele>504.83</ele>
        <time>2013-02-09T11:13:19Z</time>
      </trkpt>
      <trkpt lat="43.80121" lon="7.23612">
        <ele>504.35</ele>
        <time>2013-02-09T11:13:23Z</time>
      </trkpt>
      <trkpt lat="43.80116" lon="7.23599">
        <ele>504.35</ele>
        <time>2013-02-09T11:13:25Z</time>
      </trkpt>
      <trkpt lat="43.80087" lon="7.23582">
        <ele>502.43</ele>
        <time>2013-02-09T11:13:31Z</time>
      </trkpt>
      <trkpt lat="43.80048" lon="7.23578">
        <ele>500.02</ele>
        <time>2013-02-09T11:13:37Z</time>
      </trkpt>
      <trkpt lat="43.80018" lon="7.23526">
        <ele>493.29</ele>
        <time>2013-02-09T11:13:44Z</time>
      </trkpt>
      <trkpt lat="43.80039" lon="7.2352">
        <ele>488.49</ele>
        <time>2013-02-09T11:13:48Z</time>
      </trkpt>
      <trkpt lat="43.80055" lon="7.23519">
        <ele>486.08</ele>
        <time>2013-02-09T11:13:50Z</time>
      </trkpt>
      <trkpt lat="43.80072" lon="7.23512">
        <ele>483.68</ele>
        <time>2013-02-09T11:13:52Z</time>
      </trkpt>
      <trkpt lat="43.80105" lon="7.23512">
        <ele>480.8</ele>
        <time>2013-02-09T11:13:56Z</time>
      </trkpt>
      <trkpt lat="43.80151" lon="7.23513">
        <ele>475.99</ele>
        <time>2013-02-09T11:14:01Z</time>
      </trkpt>
      <trkpt lat="43.80185" lon="7.2349">
        <ele>471.18</ele>
        <time>2013-02-09T11:14:05Z</time>
      </trkpt>
      <trkpt lat="43.80212" lon="7.23469">
        <ele>465.9</ele>
        <time>2013-02-09T11:14:44Z</time>
      </trkpt>
      <trkpt lat="43.8022" lon="7.23484">
        <ele>470.22</ele>
        <time>2013-02-09T11:15:00Z</time>
      </trkpt>
      <trkpt lat="43.80222" lon="7.23487">
        <ele>470.7</ele>
        <time>2013-02-09T11:15:03Z</time>
      </trkpt>
      <trkpt lat="43.80226" lon="7.235">
        <ele>471.66</ele>
        <time>2013-02-09T11:15:11Z</time>
      </trkpt>
      <trkpt lat="43.80224" lon="7.23532">
        <ele>474.07</ele>
        <time>2013-02-09T11:15:30Z</time>
      </trkpt>
      <trkpt lat="43.80218" lon="7.23554">
        <ele>477.91</ele>
        <time>2013-02-09T11:15:45Z</time>
      </trkpt>
      <trkpt lat="43.80217" lon="7.23566">
        <ele>482.72</ele>
        <time>2013-02-09T11:15:55Z</time>
      </trkpt>
      <trkpt lat="43.80225" lon="7.23586">
        <ele>485.12</ele>
        <time>2013-02-09T11:16:09Z</time>
      </trkpt>
      <trkpt lat="43.80226" lon="7.23587">
        <ele>485.12</ele>
        <time>2013-02-09T11:16:10Z</time>
      </trkpt>
      <trkpt lat="43.80239" lon="7.23597">
        <ele>483.68</ele>
        <time>2013-02-09T11:16:24Z</time>
      </trkpt>
      <trkpt lat="43.80247" lon="7.23598">
        <ele>488.01</ele>
        <time>2013-02-09T11:16:37Z</time>
      </trkpt>
      <trkpt lat="43.80247" lon="7.23605">
        <ele>491.85</ele>
        <time>2013-02-09T11:16:48Z</time>
      </trkpt>
      <trkpt lat="43.8025" lon="7.2361">
        <ele>496.18</ele>
        <time>2013-02-09T11:17:01Z</time>
      </trkpt>
      <trkpt lat="43.8025" lon="7.23617">
        <ele>497.14</ele>
        <time>2013-02-09T11:17:11Z</time>
      </trkpt>
      <trkpt lat="43.80251" lon="7.2362">
        <ele>497.14</ele>
        <time>2013-02-09T11:17:14Z</time>
      </trkpt>
      <trkpt lat="43.80249" lon="7.2363">
        <ele>497.62</ele>
        <time>2013-02-09T11:17:26Z</time>
      </trkpt>
      <trkpt lat="43.80249" lon="7.23634">
        <ele>500.98</ele>
        <time>2013-02-09T11:17:37Z</time>
      </trkpt>
      <trkpt lat="43.80249" lon="7.23646">
        <ele>501.46</ele>
        <time>2013-02-09T11:17:49Z</time>
      </trkpt>
      <trkpt lat="43.80247" lon="7.23657">
        <ele>504.83</ele>
        <time>2013-02-09T11:18:02Z</time>
      </trkpt>
      <trkpt lat="43.80248" lon="7.2366">
        <ele>506.27</ele>
        <time>2013-02-09T11:18:07Z</time>
      </trkpt>
      <trkpt lat="43.80254" lon="7.23671">
        <ele>509.16</ele>
        <time>2013-02-09T11:18:20Z</time>
      </trkpt>
      <trkpt lat="43.80256" lon="7.23681">
        <ele>511.08</ele>
        <time>2013-02-09T11:18:31Z</time>
      </trkpt>
      <trkpt lat="43.80257" lon="7.23683">
        <ele>511.08</ele>
        <time>2013-02-09T11:18:33Z</time>
      </trkpt>
      <trkpt lat="43.8026" lon="7.23686">
        <ele>511.56</ele>
        <time>2013-02-09T11:18:37Z</time>
      </trkpt>
      <trkpt lat="43.80263" lon="7.23695">
        <ele>513</ele>
        <time>2013-02-09T11:18:48Z</time>
      </trkpt>
      <trkpt lat="43.80269" lon="7.23705">
        <ele>515.4</ele>
        <time>2013-02-09T11:19:02Z</time>
      </trkpt>
      <trkpt lat="43.80275" lon="7.23717">
        <ele>517.81</ele>
        <time>2013-02-09T11:19:16Z</time>
      </trkpt>
      <trkpt lat="43.80283" lon="7.23729">
        <ele>520.21</ele>
        <time>2013-02-09T11:19:31Z</time>
      </trkpt>
      <trkpt lat="43.80282" lon="7.23739">
        <ele>524.06</ele>
        <time>2013-02-09T11:19:45Z</time>
      </trkpt>
      <trkpt lat="43.80286" lon="7.23748">
        <ele>525.98</ele>
        <time>2013-02-09T11:19:56Z</time>
      </trkpt>
      <trkpt lat="43.80287" lon="7.23757">
        <ele>527.9</ele>
        <time>2013-02-09T11:20:08Z</time>
      </trkpt>
      <trkpt lat="43.80289" lon="7.23763">
        <ele>529.34</ele>
        <time>2013-02-09T11:20:18Z</time>
      </trkpt>
      <trkpt lat="43.80284" lon="7.23766">
        <ele>528.86</ele>
        <time>2013-02-09T11:20:31Z</time>
      </trkpt>
      <trkpt lat="43.80284" lon="7.23773">
        <ele>531.27</ele>
        <time>2013-02-09T11:20:42Z</time>
      </trkpt>
      <trkpt lat="43.80288" lon="7.23781">
        <ele>533.19</ele>
        <time>2013-02-09T11:20:54Z</time>
      </trkpt>
      <trkpt lat="43.80289" lon="7.23785">
        <ele>533.67</ele>
        <time>2013-02-09T11:21:01Z</time>
      </trkpt>
      <trkpt lat="43.80291" lon="7.23794">
        <ele>537.51</ele>
        <time>2013-02-09T11:21:11Z</time>
      </trkpt>
      <trkpt lat="43.80292" lon="7.23799">
        <ele>541.36</ele>
        <time>2013-02-09T11:21:22Z</time>
      </trkpt>
      <trkpt lat="43.80287" lon="7.23799">
        <ele>542.32</ele>
        <time>2013-02-09T11:21:32Z</time>
      </trkpt>
      <trkpt lat="43.80288" lon="7.23803">
        <ele>546.17</ele>
        <time>2013-02-09T11:21:48Z</time>
      </trkpt>
      <trkpt lat="43.80289" lon="7.23813">
        <ele>547.13</ele>
        <time>2013-02-09T11:22:03Z</time>
      </trkpt>
      <trkpt lat="43.8028" lon="7.23809">
        <ele>549.53</ele>
        <time>2013-02-09T11:22:19Z</time>
      </trkpt>
      <trkpt lat="43.80276" lon="7.23805">
        <ele>550.49</ele>
        <time>2013-02-09T11:22:25Z</time>
      </trkpt>
      <trkpt lat="43.80261" lon="7.23789">
        <ele>550.97</ele>
        <time>2013-02-09T11:22:43Z</time>
      </trkpt>
      <trkpt lat="43.80252" lon="7.23787">
        <ele>551.93</ele>
        <time>2013-02-09T11:22:58Z</time>
      </trkpt>
      <trkpt lat="43.80247" lon="7.23784">
        <ele>553.38</ele>
        <time>2013-02-09T11:23:11Z</time>
      </trkpt>
      <trkpt lat="43.80248" lon="7.23776">
        <ele>559.14</ele>
        <time>2013-02-09T11:23:41Z</time>
      </trkpt>
      <trkpt lat="43.80248" lon="7.23773">
        <ele>561.55</ele>
        <time>2013-02-09T11:24:13Z</time>
      </trkpt>
      <trkpt lat="43.80245" lon="7.23775">
        <ele>561.07</ele>
        <time>2013-02-09T11:24:38Z</time>
      </trkpt>
      <trkpt lat="43.80243" lon="7.23775">
        <ele>559.62</ele>
        <time>2013-02-09T11:24:49Z</time>
      </trkpt>
      <trkpt lat="43.80232" lon="7.23775">
        <ele>560.11</ele>
        <time>2013-02-09T11:25:07Z</time>
      </trkpt>
      <trkpt lat="43.80229" lon="7.23776">
        <ele>560.11</ele>
        <time>2013-02-09T11:25:21Z</time>
      </trkpt>
      <trkpt lat="43.80233" lon="7.23781">
        <ele>560.11</ele>
        <time>2013-02-09T11:25:37Z</time>
      </trkpt>
      <trkpt lat="43.80241" lon="7.23793">
        <ele>561.55</ele>
        <time>2013-02-09T11:25:47Z</time>
      </trkpt>
      <trkpt lat="43.80247" lon="7.23807">
        <ele>561.55</ele>
        <time>2013-02-09T11:25:55Z</time>
      </trkpt>
      <trkpt lat="43.80257" lon="7.23838">
        <ele>563.95</ele>
        <time>2013-02-09T11:26:13Z</time>
      </trkpt>
      <trkpt lat="43.80258" lon="7.23865">
        <ele>567.32</ele>
        <time>2013-02-09T11:26:29Z</time>
      </trkpt>
      <trkpt lat="43.80258" lon="7.23869">
        <ele>567.8</ele>
        <time>2013-02-09T11:26:31Z</time>
      </trkpt>
      <trkpt lat="43.80259" lon="7.23889">
        <ele>570.68</ele>
        <time>2013-02-09T11:26:43Z</time>
      </trkpt>
      <trkpt lat="43.80273" lon="7.239">
        <ele>573.56</ele>
        <time>2013-02-09T11:26:56Z</time>
      </trkpt>
      <trkpt lat="43.80304" lon="7.23876">
        <ele>574.04</ele>
        <time>2013-02-09T11:27:15Z</time>
      </trkpt>
      <trkpt lat="43.8033" lon="7.23854">
        <ele>575.97</ele>
        <time>2013-02-09T11:27:30Z</time>
      </trkpt>
      <trkpt lat="43.80354" lon="7.23825">
        <ele>577.41</ele>
        <time>2013-02-09T11:27:47Z</time>
      </trkpt>
      <trkpt lat="43.80361" lon="7.23822">
        <ele>580.77</ele>
        <time>2013-02-09T11:28:00Z</time>
      </trkpt>
      <trkpt lat="43.80368" lon="7.23819">
        <ele>583.66</ele>
        <time>2013-02-09T11:28:13Z</time>
      </trkpt>
      <trkpt lat="43.80373" lon="7.23816">
        <ele>584.62</ele>
        <time>2013-02-09T11:28:26Z</time>
      </trkpt>
      <trkpt lat="43.80377" lon="7.23814">
        <ele>586.54</ele>
        <time>2013-02-09T11:28:36Z</time>
      </trkpt>
      <trkpt lat="43.80384" lon="7.23808">
        <ele>587.02</ele>
        <time>2013-02-09T11:28:48Z</time>
      </trkpt>
      <trkpt lat="43.80393" lon="7.23802">
        <ele>589.91</ele>
        <time>2013-02-09T11:29:01Z</time>
      </trkpt>
      <trkpt lat="43.80397" lon="7.23797">
        <ele>591.83</ele>
        <time>2013-02-09T11:29:15Z</time>
      </trkpt>
      <trkpt lat="43.80401" lon="7.23793">
        <ele>594.23</ele>
        <time>2013-02-09T11:29:27Z</time>
      </trkpt>
      <trkpt lat="43.80405" lon="7.23791">
        <ele>596.15</ele>
        <time>2013-02-09T11:29:39Z</time>
      </trkpt>
      <trkpt lat="43.80408" lon="7.23788">
        <ele>598.08</ele>
        <time>2013-02-09T11:29:51Z</time>
      </trkpt>
      <trkpt lat="43.80415" lon="7.2378">
        <ele>600.48</ele>
        <time>2013-02-09T11:30:04Z</time>
      </trkpt>
      <trkpt lat="43.80416" lon="7.23777">
        <ele>600.96</ele>
        <time>2013-02-09T11:30:09Z</time>
      </trkpt>
      <trkpt lat="43.80421" lon="7.23775">
        <ele>601.44</ele>
        <time>2013-02-09T11:30:21Z</time>
      </trkpt>
      <trkpt lat="43.80423" lon="7.23776">
        <ele>603.36</ele>
        <time>2013-02-09T11:30:33Z</time>
      </trkpt>
      <trkpt lat="43.80427" lon="7.23772">
        <ele>603.36</ele>
        <time>2013-02-09T11:30:40Z</time>
      </trkpt>
      <trkpt lat="43.80434" lon="7.23763">
        <ele>603.36</ele>
        <time>2013-02-09T11:30:55Z</time>
      </trkpt>
      <trkpt lat="43.80441" lon="7.23759">
        <ele>604.33</ele>
        <time>2013-02-09T11:31:04Z</time>
      </trkpt>
      <trkpt lat="43.80444" lon="7.23753">
        <ele>603.36</ele>
        <time>2013-02-09T11:31:09Z</time>
      </trkpt>
      <trkpt lat="43.80457" lon="7.23752">
        <ele>605.77</ele>
        <time>2013-02-09T11:31:22Z</time>
      </trkpt>
      <trkpt lat="43.80465" lon="7.23754">
        <ele>607.69</ele>
        <time>2013-02-09T11:31:34Z</time>
      </trkpt>
      <trkpt lat="43.80476" lon="7.23756">
        <ele>610.57</ele>
        <time>2013-02-09T11:31:48Z</time>
      </trkpt>
      <trkpt lat="43.80481" lon="7.23759">
        <ele>612.98</ele>
        <time>2013-02-09T11:31:59Z</time>
      </trkpt>
      <trkpt lat="43.80483" lon="7.23761">
        <ele>614.42</ele>
        <time>2013-02-09T11:32:09Z</time>
      </trkpt>
      <trkpt lat="43.80487" lon="7.23764">
        <ele>615.86</ele>
        <time>2013-02-09T11:32:22Z</time>
      </trkpt>
      <trkpt lat="43.8049" lon="7.23766">
        <ele>614.42</ele>
        <time>2013-02-09T11:35:49Z</time>
      </trkpt>
      <trkpt lat="43.80491" lon="7.23767">
        <ele>614.9</ele>
        <time>2013-02-09T11:40:09Z</time>
      </trkpt>
      <trkpt lat="43.80494" lon="7.23774">
        <ele>617.78</ele>
        <time>2013-02-09T11:40:23Z</time>
      </trkpt>
      <trkpt lat="43.805" lon="7.2378">
        <ele>621.63</ele>
        <time>2013-02-09T11:40:35Z</time>
      </trkpt>
      <trkpt lat="43.80506" lon="7.23783">
        <ele>624.51</ele>
        <time>2013-02-09T11:40:47Z</time>
      </trkpt>
      <trkpt lat="43.80508" lon="7.23784">
        <ele>624.51</ele>
        <time>2013-02-09T11:40:50Z</time>
      </trkpt>
      <trkpt lat="43.8051" lon="7.23785">
        <ele>624.51</ele>
        <time>2013-02-09T11:40:53Z</time>
      </trkpt>
      <trkpt lat="43.80513" lon="7.23793">
        <ele>626.44</ele>
        <time>2013-02-09T11:41:06Z</time>
      </trkpt>
      <trkpt lat="43.80511" lon="7.23802">
        <ele>627.4</ele>
        <time>2013-02-09T11:41:17Z</time>
      </trkpt>
      <trkpt lat="43.80509" lon="7.23808">
        <ele>628.36</ele>
        <time>2013-02-09T11:41:27Z</time>
      </trkpt>
      <trkpt lat="43.80508" lon="7.23818">
        <ele>629.32</ele>
        <time>2013-02-09T11:41:33Z</time>
      </trkpt>
      <trkpt lat="43.8051" lon="7.23836">
        <ele>630.76</ele>
        <time>2013-02-09T11:41:45Z</time>
      </trkpt>
      <trkpt lat="43.8051" lon="7.23837">
        <ele>630.76</ele>
        <time>2013-02-09T11:41:46Z</time>
      </trkpt>
      <trkpt lat="43.80512" lon="7.23852">
        <ele>630.76</ele>
        <time>2013-02-09T11:41:55Z</time>
      </trkpt>
      <trkpt lat="43.80518" lon="7.23873">
        <ele>632.2</ele>
        <time>2013-02-09T11:42:06Z</time>
      </trkpt>
      <trkpt lat="43.80519" lon="7.23877">
        <ele>632.68</ele>
        <time>2013-02-09T11:42:11Z</time>
      </trkpt>
      <trkpt lat="43.80522" lon="7.23892">
        <ele>633.17</ele>
        <time>2013-02-09T11:42:25Z</time>
      </trkpt>
      <trkpt lat="43.80523" lon="7.23898">
        <ele>634.61</ele>
        <time>2013-02-09T11:42:30Z</time>
      </trkpt>
      <trkpt lat="43.80521" lon="7.23904">
        <ele>635.09</ele>
        <time>2013-02-09T11:42:34Z</time>
      </trkpt>
      <trkpt lat="43.80518" lon="7.23914">
        <ele>636.53</ele>
        <time>2013-02-09T11:42:43Z</time>
      </trkpt>
      <trkpt lat="43.80523" lon="7.23925">
        <ele>636.53</ele>
        <time>2013-02-09T11:42:50Z</time>
      </trkpt>
      <trkpt lat="43.80527" lon="7.23939">
        <ele>636.05</ele>
        <time>2013-02-09T11:42:55Z</time>
      </trkpt>
      <trkpt lat="43.80537" lon="7.23953">
        <ele>638.93</ele>
        <time>2013-02-09T11:43:07Z</time>
      </trkpt>
      <trkpt lat="43.80537" lon="7.23955">
        <ele>639.89</ele>
        <time>2013-02-09T11:43:21Z</time>
      </trkpt>
      <trkpt lat="43.80539" lon="7.23956">
        <ele>640.38</ele>
        <time>2013-02-09T11:43:37Z</time>
      </trkpt>
      <trkpt lat="43.80533" lon="7.23966">
        <ele>642.3</ele>
        <time>2013-02-09T11:43:49Z</time>
      </trkpt>
      <trkpt lat="43.80531" lon="7.23969">
        <ele>642.3</ele>
        <time>2013-02-09T11:43:53Z</time>
      </trkpt>
      <trkpt lat="43.80519" lon="7.23977">
        <ele>645.66</ele>
        <time>2013-02-09T11:44:09Z</time>
      </trkpt>
      <trkpt lat="43.80514" lon="7.23982">
        <ele>647.59</ele>
        <time>2013-02-09T11:44:21Z</time>
      </trkpt>
      <trkpt lat="43.80511" lon="7.23987">
        <ele>649.99</ele>
        <time>2013-02-09T11:44:34Z</time>
      </trkpt>
      <trkpt lat="43.80507" lon="7.23996">
        <ele>652.87</ele>
        <time>2013-02-09T11:44:49Z</time>
      </trkpt>
      <trkpt lat="43.80503" lon="7.24006">
        <ele>653.83</ele>
        <time>2013-02-09T11:45:05Z</time>
      </trkpt>
      <trkpt lat="43.80502" lon="7.24014">
        <ele>655.76</ele>
        <time>2013-02-09T11:45:13Z</time>
      </trkpt>
      <trkpt lat="43.80498" lon="7.24025">
        <ele>657.68</ele>
        <time>2013-02-09T11:45:25Z</time>
      </trkpt>
      <trkpt lat="43.80494" lon="7.24035">
        <ele>659.12</ele>
        <time>2013-02-09T11:45:38Z</time>
      </trkpt>
      <trkpt lat="43.80487" lon="7.2405">
        <ele>661.52</ele>
        <time>2013-02-09T11:45:53Z</time>
      </trkpt>
      <trkpt lat="43.80486" lon="7.24051">
        <ele>661.52</ele>
        <time>2013-02-09T11:45:54Z</time>
      </trkpt>
      <trkpt lat="43.80483" lon="7.2406">
        <ele>662.01</ele>
        <time>2013-02-09T11:46:02Z</time>
      </trkpt>
      <trkpt lat="43.80477" lon="7.24072">
        <ele>662.97</ele>
        <time>2013-02-09T11:46:13Z</time>
      </trkpt>
      <trkpt lat="43.80475" lon="7.24078">
        <ele>664.41</ele>
        <time>2013-02-09T11:46:19Z</time>
      </trkpt>
      <trkpt lat="43.80464" lon="7.24094">
        <ele>668.25</ele>
        <time>2013-02-09T11:46:39Z</time>
      </trkpt>
      <trkpt lat="43.8046" lon="7.241">
        <ele>671.14</ele>
        <time>2013-02-09T11:46:51Z</time>
      </trkpt>
      <trkpt lat="43.80454" lon="7.24108">
        <ele>672.1</ele>
        <time>2013-02-09T11:47:08Z</time>
      </trkpt>
      <trkpt lat="43.80447" lon="7.24122">
        <ele>673.54</ele>
        <time>2013-02-09T11:47:22Z</time>
      </trkpt>
      <trkpt lat="43.80442" lon="7.24137">
        <ele>677.39</ele>
        <time>2013-02-09T11:47:37Z</time>
      </trkpt>
      <trkpt lat="43.80438" lon="7.24143">
        <ele>678.35</ele>
        <time>2013-02-09T11:47:52Z</time>
      </trkpt>
      <trkpt lat="43.80432" lon="7.2415">
        <ele>679.31</ele>
        <time>2013-02-09T11:48:07Z</time>
      </trkpt>
      <trkpt lat="43.80423" lon="7.24161">
        <ele>682.19</ele>
        <time>2013-02-09T11:48:22Z</time>
      </trkpt>
      <trkpt lat="43.80414" lon="7.24168">
        <ele>683.15</ele>
        <time>2013-02-09T11:48:33Z</time>
      </trkpt>
      <trkpt lat="43.80406" lon="7.24176">
        <ele>684.6</ele>
        <time>2013-02-09T11:48:44Z</time>
      </trkpt>
      <trkpt lat="43.80409" lon="7.24186">
        <ele>685.56</ele>
        <time>2013-02-09T11:48:52Z</time>
      </trkpt>
      <trkpt lat="43.80412" lon="7.24188">
        <ele>686.52</ele>
        <time>2013-02-09T11:48:55Z</time>
      </trkpt>
      <trkpt lat="43.80427" lon="7.242">
        <ele>688.44</ele>
        <time>2013-02-09T11:49:11Z</time>
      </trkpt>
      <trkpt lat="43.80439" lon="7.24206">
        <ele>691.33</ele>
        <time>2013-02-09T11:49:24Z</time>
      </trkpt>
      <trkpt lat="43.80447" lon="7.24211">
        <ele>694.21</ele>
        <time>2013-02-09T11:49:38Z</time>
      </trkpt>
      <trkpt lat="43.80453" lon="7.24215">
        <ele>696.61</ele>
        <time>2013-02-09T11:49:50Z</time>
      </trkpt>
      <trkpt lat="43.80456" lon="7.24219">
        <ele>698.05</ele>
        <time>2013-02-09T11:50:02Z</time>
      </trkpt>
      <trkpt lat="43.8046" lon="7.24223">
        <ele>699.02</ele>
        <time>2013-02-09T11:50:12Z</time>
      </trkpt>
      <trkpt lat="43.80465" lon="7.24227">
        <ele>699.98</ele>
        <time>2013-02-09T11:50:26Z</time>
      </trkpt>
      <trkpt lat="43.80466" lon="7.24231">
        <ele>700.46</ele>
        <time>2013-02-09T11:50:42Z</time>
      </trkpt>
      <trkpt lat="43.80466" lon="7.24232">
        <ele>703.34</ele>
        <time>2013-02-09T11:54:12Z</time>
      </trkpt>
      <trkpt lat="43.80466" lon="7.24236">
        <ele>704.3</ele>
        <time>2013-02-09T11:56:04Z</time>
      </trkpt>
      <trkpt lat="43.80462" lon="7.24239">
        <ele>704.78</ele>
        <time>2013-02-09T11:56:20Z</time>
      </trkpt>
      <trkpt lat="43.8046" lon="7.24241">
        <ele>705.26</ele>
        <time>2013-02-09T11:56:31Z</time>
      </trkpt>
      <trkpt lat="43.80454" lon="7.24251">
        <ele>707.19</ele>
        <time>2013-02-09T11:56:45Z</time>
      </trkpt>
      <trkpt lat="43.80452" lon="7.24258">
        <ele>709.59</ele>
        <time>2013-02-09T11:56:58Z</time>
      </trkpt>
      <trkpt lat="43.80447" lon="7.24268">
        <ele>711.51</ele>
        <time>2013-02-09T11:57:11Z</time>
      </trkpt>
      <trkpt lat="43.80442" lon="7.2428">
        <ele>714.4</ele>
        <time>2013-02-09T11:57:26Z</time>
      </trkpt>
      <trkpt lat="43.8044" lon="7.24287">
        <ele>716.32</ele>
        <time>2013-02-09T11:57:37Z</time>
      </trkpt>
      <trkpt lat="43.80436" lon="7.24298">
        <ele>719.2</ele>
        <time>2013-02-09T11:57:51Z</time>
      </trkpt>
      <trkpt lat="43.80434" lon="7.24303">
        <ele>721.13</ele>
        <time>2013-02-09T11:58:03Z</time>
      </trkpt>
      <trkpt lat="43.80431" lon="7.24312">
        <ele>723.53</ele>
        <time>2013-02-09T11:58:16Z</time>
      </trkpt>
      <trkpt lat="43.80424" lon="7.2432">
        <ele>726.41</ele>
        <time>2013-02-09T11:58:31Z</time>
      </trkpt>
      <trkpt lat="43.8042" lon="7.24322">
        <ele>727.86</ele>
        <time>2013-02-09T11:58:42Z</time>
      </trkpt>
      <trkpt lat="43.80416" lon="7.24327">
        <ele>730.26</ele>
        <time>2013-02-09T11:58:54Z</time>
      </trkpt>
      <trkpt lat="43.80412" lon="7.24333">
        <ele>732.66</ele>
        <time>2013-02-09T11:59:05Z</time>
      </trkpt>
      <trkpt lat="43.80407" lon="7.24337">
        <ele>732.66</ele>
        <time>2013-02-09T11:59:17Z</time>
      </trkpt>
      <trkpt lat="43.804" lon="7.24343">
        <ele>734.58</ele>
        <time>2013-02-09T11:59:29Z</time>
      </trkpt>
      <trkpt lat="43.80394" lon="7.2435">
        <ele>736.51</ele>
        <time>2013-02-09T11:59:42Z</time>
      </trkpt>
      <trkpt lat="43.80392" lon="7.24354">
        <ele>736.99</ele>
        <time>2013-02-09T11:59:50Z</time>
      </trkpt>
      <trkpt lat="43.80374" lon="7.2437">
        <ele>741.31</ele>
        <time>2013-02-09T12:00:10Z</time>
      </trkpt>
      <trkpt lat="43.80363" lon="7.24378">
        <ele>744.2</ele>
        <time>2013-02-09T12:00:26Z</time>
      </trkpt>
      <trkpt lat="43.80358" lon="7.24382">
        <ele>745.16</ele>
        <time>2013-02-09T12:00:32Z</time>
      </trkpt>
      <trkpt lat="43.80349" lon="7.24398">
        <ele>749.49</ele>
        <time>2013-02-09T12:00:50Z</time>
      </trkpt>
      <trkpt lat="43.8034" lon="7.24408">
        <ele>752.37</ele>
        <time>2013-02-09T12:01:05Z</time>
      </trkpt>
      <trkpt lat="43.80331" lon="7.24417">
        <ele>753.81</ele>
        <time>2013-02-09T12:01:18Z</time>
      </trkpt>
      <trkpt lat="43.80328" lon="7.2442">
        <ele>754.29</ele>
        <time>2013-02-09T12:01:22Z</time>
      </trkpt>
      <trkpt lat="43.80316" lon="7.24429">
        <ele>758.14</ele>
        <time>2013-02-09T12:01:39Z</time>
      </trkpt>
      <trkpt lat="43.80304" lon="7.24437">
        <ele>760.06</ele>
        <time>2013-02-09T12:01:55Z</time>
      </trkpt>
      <trkpt lat="43.8029" lon="7.24449">
        <ele>761.98</ele>
        <time>2013-02-09T12:02:13Z</time>
      </trkpt>
      <trkpt lat="43.80282" lon="7.24456">
        <ele>762.46</ele>
        <time>2013-02-09T12:02:29Z</time>
      </trkpt>
      <trkpt lat="43.80262" lon="7.24478">
        <ele>761.02</ele>
        <time>2013-02-09T12:02:39Z</time>
      </trkpt>
      <trkpt lat="43.8025" lon="7.24505">
        <ele>761.5</ele>
        <time>2013-02-09T12:02:53Z</time>
      </trkpt>
      <trkpt lat="43.8025" lon="7.24507">
        <ele>762.46</ele>
        <time>2013-02-09T12:02:59Z</time>
      </trkpt>
      <trkpt lat="43.80245" lon="7.24509">
        <ele>761.5</ele>
        <time>2013-02-09T12:03:04Z</time>
      </trkpt>
      <trkpt lat="43.80244" lon="7.24509">
        <ele>760.06</ele>
        <time>2013-02-09T12:03:18Z</time>
      </trkpt>
      <trkpt lat="43.80242" lon="7.2451">
        <ele>759.1</ele>
        <time>2013-02-09T12:03:33Z</time>
      </trkpt>
      <trkpt lat="43.80242" lon="7.2451">
        <ele>762.46</ele>
        <time>2013-02-09T12:03:53Z</time>
      </trkpt>
      <trkpt lat="43.80239" lon="7.24514">
        <ele>761.5</ele>
        <time>2013-02-09T12:03:55Z</time>
      </trkpt>
      <trkpt lat="43.80224" lon="7.24528">
        <ele>757.66</ele>
        <time>2013-02-09T12:03:59Z</time>
      </trkpt>
      <trkpt lat="43.802" lon="7.2454">
        <ele>750.45</ele>
        <time>2013-02-09T12:04:07Z</time>
      </trkpt>
      <trkpt lat="43.80187" lon="7.24551">
        <ele>746.6</ele>
        <time>2013-02-09T12:04:10Z</time>
      </trkpt>
      <trkpt lat="43.8017" lon="7.2456">
        <ele>744.68</ele>
        <time>2013-02-09T12:04:15Z</time>
      </trkpt>
      <trkpt lat="43.80153" lon="7.24568">
        <ele>744.2</ele>
        <time>2013-02-09T12:04:20Z</time>
      </trkpt>
      <trkpt lat="43.80161" lon="7.24583">
        <ele>746.12</ele>
        <time>2013-02-09T12:04:29Z</time>
      </trkpt>
      <trkpt lat="43.80163" lon="7.24585">
        <ele>746.6</ele>
        <time>2013-02-09T12:04:31Z</time>
      </trkpt>
      <trkpt lat="43.80185" lon="7.24582">
        <ele>752.37</ele>
        <time>2013-02-09T12:04:48Z</time>
      </trkpt>
      <trkpt lat="43.80192" lon="7.2458">
        <ele>754.29</ele>
        <time>2013-02-09T12:04:54Z</time>
      </trkpt>
      <trkpt lat="43.80198" lon="7.24579">
        <ele>754.77</ele>
        <time>2013-02-09T12:04:59Z</time>
      </trkpt>
      <trkpt lat="43.80208" lon="7.24574">
        <ele>757.18</ele>
        <time>2013-02-09T12:05:13Z</time>
      </trkpt>
      <trkpt lat="43.80223" lon="7.24566">
        <ele>760.06</ele>
        <time>2013-02-09T12:05:30Z</time>
      </trkpt>
      <trkpt lat="43.80233" lon="7.24561">
        <ele>762.46</ele>
        <time>2013-02-09T12:05:42Z</time>
      </trkpt>
      <trkpt lat="43.80242" lon="7.24549">
        <ele>764.87</ele>
        <time>2013-02-09T12:05:56Z</time>
      </trkpt>
      <trkpt lat="43.80255" lon="7.2454">
        <ele>767.27</ele>
        <time>2013-02-09T12:06:12Z</time>
      </trkpt>
      <trkpt lat="43.80269" lon="7.24536">
        <ele>768.71</ele>
        <time>2013-02-09T12:06:27Z</time>
      </trkpt>
      <trkpt lat="43.80284" lon="7.24534">
        <ele>773.52</ele>
        <time>2013-02-09T12:06:45Z</time>
      </trkpt>
      <trkpt lat="43.80302" lon="7.24527">
        <ele>776.88</ele>
        <time>2013-02-09T12:07:02Z</time>
      </trkpt>
      <trkpt lat="43.80314" lon="7.24523">
        <ele>778.81</ele>
        <time>2013-02-09T12:07:16Z</time>
      </trkpt>
      <trkpt lat="43.80328" lon="7.24522">
        <ele>779.29</ele>
        <time>2013-02-09T12:07:26Z</time>
      </trkpt>
      <trkpt lat="43.80368" lon="7.24517">
        <ele>779.29</ele>
        <time>2013-02-09T12:07:46Z</time>
      </trkpt>
      <trkpt lat="43.8041" lon="7.24513">
        <ele>780.25</ele>
        <time>2013-02-09T12:08:03Z</time>
      </trkpt>
      <trkpt lat="43.80444" lon="7.24508">
        <ele>782.17</ele>
        <time>2013-02-09T12:08:18Z</time>
      </trkpt>
      <trkpt lat="43.80475" lon="7.24503">
        <ele>783.61</ele>
        <time>2013-02-09T12:08:33Z</time>
      </trkpt>
      <trkpt lat="43.80525" lon="7.24504">
        <ele>783.13</ele>
        <time>2013-02-09T12:08:48Z</time>
      </trkpt>
      <trkpt lat="43.80576" lon="7.24502">
        <ele>781.21</ele>
        <time>2013-02-09T12:09:02Z</time>
      </trkpt>
      <trkpt lat="43.80638" lon="7.24478">
        <ele>773.04</ele>
        <time>2013-02-09T12:09:14Z</time>
      </trkpt>
      <trkpt lat="43.80712" lon="7.24439">
        <ele>761.02</ele>
        <time>2013-02-09T12:09:24Z</time>
      </trkpt>
      <trkpt lat="43.80741" lon="7.24418">
        <ele>757.18</ele>
        <time>2013-02-09T12:09:28Z</time>
      </trkpt>
      <trkpt lat="43.80786" lon="7.244">
        <ele>749.97</ele>
        <time>2013-02-09T12:09:34Z</time>
      </trkpt>
      <trkpt lat="43.80795" lon="7.24379">
        <ele>744.68</ele>
        <time>2013-02-09T12:09:41Z</time>
      </trkpt>
      <trkpt lat="43.80791" lon="7.24375">
        <ele>743.24</ele>
        <time>2013-02-09T12:09:49Z</time>
      </trkpt>
      <trkpt lat="43.80791" lon="7.24375">
        <ele>742.28</ele>
        <time>2013-02-09T12:10:06Z</time>
      </trkpt>
      <trkpt lat="43.8078" lon="7.24356">
        <ele>741.31</ele>
        <time>2013-02-09T12:10:19Z</time>
      </trkpt>
      <trkpt lat="43.80771" lon="7.24347">
        <ele>740.83</ele>
        <time>2013-02-09T12:10:29Z</time>
      </trkpt>
      <trkpt lat="43.80772" lon="7.24348">
        <ele>739.87</ele>
        <time>2013-02-09T12:10:51Z</time>
      </trkpt>
      <trkpt lat="43.80769" lon="7.24346">
        <ele>740.35</ele>
        <time>2013-02-09T12:11:25Z</time>
      </trkpt>
      <trkpt lat="43.80766" lon="7.24344">
        <ele>737.95</ele>
        <time>2013-02-09T12:11:43Z</time>
      </trkpt>
      <trkpt lat="43.80763" lon="7.24343">
        <ele>737.47</ele>
        <time>2013-02-09T12:11:44Z</time>
      </trkpt>
      <trkpt lat="43.80733" lon="7.24313">
        <ele>736.03</ele>
        <time>2013-02-09T12:11:54Z</time>
      </trkpt>
      <trkpt lat="43.80726" lon="7.24302">
        <ele>735.55</ele>
        <time>2013-02-09T12:12:02Z</time>
      </trkpt>
      <trkpt lat="43.8072" lon="7.24295">
        <ele>736.99</ele>
        <time>2013-02-09T12:12:25Z</time>
      </trkpt>
      <trkpt lat="43.80714" lon="7.24261">
        <ele>737.95</ele>
        <time>2013-02-09T12:12:34Z</time>
      </trkpt>
      <trkpt lat="43.80715" lon="7.24256">
        <ele>738.91</ele>
        <time>2013-02-09T12:12:36Z</time>
      </trkpt>
      <trkpt lat="43.80713" lon="7.2424">
        <ele>738.43</ele>
        <time>2013-02-09T12:12:42Z</time>
      </trkpt>
      <trkpt lat="43.80713" lon="7.24205">
        <ele>738.91</ele>
        <time>2013-02-09T12:12:54Z</time>
      </trkpt>
      <trkpt lat="43.80734" lon="7.24179">
        <ele>734.1</ele>
        <time>2013-02-09T12:13:05Z</time>
      </trkpt>
      <trkpt lat="43.80734" lon="7.24175">
        <ele>733.14</ele>
        <time>2013-02-09T12:13:13Z</time>
      </trkpt>
      <trkpt lat="43.80732" lon="7.24173">
        <ele>731.7</ele>
        <time>2013-02-09T12:13:15Z</time>
      </trkpt>
      <trkpt lat="43.80727" lon="7.24172">
        <ele>730.74</ele>
        <time>2013-02-09T12:13:26Z</time>
      </trkpt>
      <trkpt lat="43.80728" lon="7.24173">
        <ele>729.78</ele>
        <time>2013-02-09T12:13:40Z</time>
      </trkpt>
      <trkpt lat="43.80719" lon="7.24173">
        <ele>726.89</ele>
        <time>2013-02-09T12:13:54Z</time>
      </trkpt>
      <trkpt lat="43.80709" lon="7.24169">
        <ele>723.05</ele>
        <time>2013-02-09T12:13:59Z</time>
      </trkpt>
      <trkpt lat="43.80703" lon="7.24165">
        <ele>719.68</ele>
        <time>2013-02-09T12:14:07Z</time>
      </trkpt>
      <trkpt lat="43.80708" lon="7.24154">
        <ele>716.8</ele>
        <time>2013-02-09T12:14:17Z</time>
      </trkpt>
      <trkpt lat="43.80697" lon="7.24154">
        <ele>711.99</ele>
        <time>2013-02-09T12:14:27Z</time>
      </trkpt>
      <trkpt lat="43.80695" lon="7.24152">
        <ele>711.03</ele>
        <time>2013-02-09T12:14:33Z</time>
      </trkpt>
      <trkpt lat="43.8069" lon="7.24151">
        <ele>709.59</ele>
        <time>2013-02-09T12:14:39Z</time>
      </trkpt>
      <trkpt lat="43.80688" lon="7.24151">
        <ele>708.63</ele>
        <time>2013-02-09T12:14:41Z</time>
      </trkpt>
      <trkpt lat="43.80683" lon="7.24149">
        <ele>705.75</ele>
        <time>2013-02-09T12:14:54Z</time>
      </trkpt>
      <trkpt lat="43.80683" lon="7.24149">
        <ele>705.75</ele>
        <time>2013-02-09T12:14:56Z</time>
      </trkpt>
      <trkpt lat="43.80678" lon="7.2415">
        <ele>705.26</ele>
        <time>2013-02-09T12:15:07Z</time>
      </trkpt>
      <trkpt lat="43.80661" lon="7.24162">
        <ele>703.34</ele>
        <time>2013-02-09T12:15:16Z</time>
      </trkpt>
      <trkpt lat="43.80659" lon="7.24161">
        <ele>702.38</ele>
        <time>2013-02-09T12:15:21Z</time>
      </trkpt>
      <trkpt lat="43.80661" lon="7.24154">
        <ele>701.42</ele>
        <time>2013-02-09T12:15:26Z</time>
      </trkpt>
      <trkpt lat="43.80664" lon="7.24147">
        <ele>700.46</ele>
        <time>2013-02-09T12:15:33Z</time>
      </trkpt>
      <trkpt lat="43.80652" lon="7.24145">
        <ele>695.17</ele>
        <time>2013-02-09T12:15:42Z</time>
      </trkpt>
      <trkpt lat="43.80647" lon="7.24148">
        <ele>692.77</ele>
        <time>2013-02-09T12:15:52Z</time>
      </trkpt>
      <trkpt lat="43.80641" lon="7.24147">
        <ele>690.84</ele>
        <time>2013-02-09T12:15:59Z</time>
      </trkpt>
      <trkpt lat="43.80641" lon="7.24134">
        <ele>687.48</ele>
        <time>2013-02-09T12:16:08Z</time>
      </trkpt>
      <trkpt lat="43.80649" lon="7.24121">
        <ele>686.52</ele>
        <time>2013-02-09T12:16:21Z</time>
      </trkpt>
      <trkpt lat="43.80654" lon="7.24113">
        <ele>685.08</ele>
        <time>2013-02-09T12:16:25Z</time>
      </trkpt>
      <trkpt lat="43.80655" lon="7.24107">
        <ele>683.63</ele>
        <time>2013-02-09T12:16:36Z</time>
      </trkpt>
      <trkpt lat="43.80653" lon="7.24105">
        <ele>683.15</ele>
        <time>2013-02-09T12:16:38Z</time>
      </trkpt>
      <trkpt lat="43.80649" lon="7.24103">
        <ele>681.71</ele>
        <time>2013-02-09T12:16:42Z</time>
      </trkpt>
      <trkpt lat="43.80643" lon="7.24102">
        <ele>678.35</ele>
        <time>2013-02-09T12:16:50Z</time>
      </trkpt>
      <trkpt lat="43.80644" lon="7.24095">
        <ele>675.46</ele>
        <time>2013-02-09T12:16:55Z</time>
      </trkpt>
      <trkpt lat="43.8064" lon="7.24094">
        <ele>673.06</ele>
        <time>2013-02-09T12:17:02Z</time>
      </trkpt>
      <trkpt lat="43.80635" lon="7.24095">
        <ele>669.7</ele>
        <time>2013-02-09T12:17:08Z</time>
      </trkpt>
      <trkpt lat="43.80627" lon="7.24089">
        <ele>665.37</ele>
        <time>2013-02-09T12:17:17Z</time>
      </trkpt>
      <trkpt lat="43.80623" lon="7.24089">
        <ele>664.89</ele>
        <time>2013-02-09T12:17:33Z</time>
      </trkpt>
      <trkpt lat="43.8062" lon="7.24083">
        <ele>661.52</ele>
        <time>2013-02-09T12:17:45Z</time>
      </trkpt>
      <trkpt lat="43.80622" lon="7.24072">
        <ele>658.64</ele>
        <time>2013-02-09T12:17:58Z</time>
      </trkpt>
      <trkpt lat="43.80622" lon="7.24068">
        <ele>656.72</ele>
        <time>2013-02-09T12:18:01Z</time>
      </trkpt>
      <trkpt lat="43.80618" lon="7.24065">
        <ele>654.8</ele>
        <time>2013-02-09T12:18:07Z</time>
      </trkpt>
      <trkpt lat="43.80602" lon="7.24063">
        <ele>649.51</ele>
        <time>2013-02-09T12:18:17Z</time>
      </trkpt>
      <trkpt lat="43.80585" lon="7.24061">
        <ele>642.78</ele>
        <time>2013-02-09T12:18:25Z</time>
      </trkpt>
      <trkpt lat="43.80578" lon="7.24026">
        <ele>637.01</ele>
        <time>2013-02-09T12:18:32Z</time>
      </trkpt>
      <trkpt lat="43.80577" lon="7.24017">
        <ele>636.05</ele>
        <time>2013-02-09T12:18:35Z</time>
      </trkpt>
      <trkpt lat="43.80581" lon="7.24004">
        <ele>632.68</ele>
        <time>2013-02-09T12:18:44Z</time>
      </trkpt>
      <trkpt lat="43.80583" lon="7.24001">
        <ele>632.68</ele>
        <time>2013-02-09T12:19:00Z</time>
      </trkpt>
      <trkpt lat="43.80583" lon="7.23998">
        <ele>634.61</ele>
        <time>2013-02-09T12:19:27Z</time>
      </trkpt>
      <trkpt lat="43.80597" lon="7.23992">
        <ele>633.65</ele>
        <time>2013-02-09T12:19:46Z</time>
      </trkpt>
      <trkpt lat="43.80616" lon="7.2397">
        <ele>627.4</ele>
        <time>2013-02-09T12:19:55Z</time>
      </trkpt>
      <trkpt lat="43.80623" lon="7.23963">
        <ele>624.99</ele>
        <time>2013-02-09T12:19:58Z</time>
      </trkpt>
      <trkpt lat="43.80639" lon="7.2395">
        <ele>622.11</ele>
        <time>2013-02-09T12:20:02Z</time>
      </trkpt>
      <trkpt lat="43.80664" lon="7.23916">
        <ele>617.3</ele>
        <time>2013-02-09T12:20:12Z</time>
      </trkpt>
      <trkpt lat="43.80665" lon="7.23914">
        <ele>616.82</ele>
        <time>2013-02-09T12:20:13Z</time>
      </trkpt>
      <trkpt lat="43.80679" lon="7.23898">
        <ele>612.5</ele>
        <time>2013-02-09T12:20:24Z</time>
      </trkpt>
      <trkpt lat="43.80684" lon="7.23893">
        <ele>610.09</ele>
        <time>2013-02-09T12:20:38Z</time>
      </trkpt>
      <trkpt lat="43.80694" lon="7.23882">
        <ele>608.17</ele>
        <time>2013-02-09T12:23:04Z</time>
      </trkpt>
      <trkpt lat="43.80709" lon="7.23878">
        <ele>606.73</ele>
        <time>2013-02-09T12:23:38Z</time>
      </trkpt>
      <trkpt lat="43.8072" lon="7.23875">
        <ele>607.21</ele>
        <time>2013-02-09T12:24:37Z</time>
      </trkpt>
      <trkpt lat="43.80753" lon="7.2387">
        <ele>605.29</ele>
        <time>2013-02-09T12:24:45Z</time>
      </trkpt>
      <trkpt lat="43.8077" lon="7.23853">
        <ele>598.56</ele>
        <time>2013-02-09T12:24:52Z</time>
      </trkpt>
      <trkpt lat="43.80773" lon="7.23837">
        <ele>593.75</ele>
        <time>2013-02-09T12:24:58Z</time>
      </trkpt>
      <trkpt lat="43.80775" lon="7.23831">
        <ele>592.31</ele>
        <time>2013-02-09T12:25:00Z</time>
      </trkpt>
      <trkpt lat="43.80775" lon="7.23825">
        <ele>591.35</ele>
        <time>2013-02-09T12:25:02Z</time>
      </trkpt>
      <trkpt lat="43.8077" lon="7.23809">
        <ele>584.62</ele>
        <time>2013-02-09T12:25:11Z</time>
      </trkpt>
      <trkpt lat="43.80772" lon="7.238">
        <ele>581.73</ele>
        <time>2013-02-09T12:25:14Z</time>
      </trkpt>
      <trkpt lat="43.80772" lon="7.23782">
        <ele>575.97</ele>
        <time>2013-02-09T12:25:22Z</time>
      </trkpt>
      <trkpt lat="43.80771" lon="7.23777">
        <ele>574.04</ele>
        <time>2013-02-09T12:25:32Z</time>
      </trkpt>
      <trkpt lat="43.80773" lon="7.23773">
        <ele>572.12</ele>
        <time>2013-02-09T12:25:38Z</time>
      </trkpt>
      <trkpt lat="43.80779" lon="7.23758">
        <ele>568.76</ele>
        <time>2013-02-09T12:25:47Z</time>
      </trkpt>
      <trkpt lat="43.8078" lon="7.23743">
        <ele>564.91</ele>
        <time>2013-02-09T12:25:51Z</time>
      </trkpt>
      <trkpt lat="43.80803" lon="7.23715">
        <ele>561.07</ele>
        <time>2013-02-09T12:26:01Z</time>
      </trkpt>
      <trkpt lat="43.80834" lon="7.23699">
        <ele>556.26</ele>
        <time>2013-02-09T12:26:11Z</time>
      </trkpt>
      <trkpt lat="43.8085" lon="7.23658">
        <ele>550.97</ele>
        <time>2013-02-09T12:26:24Z</time>
      </trkpt>
      <trkpt lat="43.80854" lon="7.2364">
        <ele>549.05</ele>
        <time>2013-02-09T12:26:29Z</time>
      </trkpt>
      <trkpt lat="43.80862" lon="7.23611">
        <ele>543.76</ele>
        <time>2013-02-09T12:26:39Z</time>
      </trkpt>
      <trkpt lat="43.80867" lon="7.23597">
        <ele>540.88</ele>
        <time>2013-02-09T12:26:43Z</time>
      </trkpt>
      <trkpt lat="43.80872" lon="7.23589">
        <ele>538.96</ele>
        <time>2013-02-09T12:26:46Z</time>
      </trkpt>
      <trkpt lat="43.80881" lon="7.23579">
        <ele>536.07</ele>
        <time>2013-02-09T12:26:50Z</time>
      </trkpt>
      <trkpt lat="43.80884" lon="7.23574">
        <ele>535.11</ele>
        <time>2013-02-09T12:27:01Z</time>
      </trkpt>
      <trkpt lat="43.80883" lon="7.23572">
        <ele>536.07</ele>
        <time>2013-02-09T12:27:18Z</time>
      </trkpt>
      <trkpt lat="43.80882" lon="7.23571">
        <ele>540.88</ele>
        <time>2013-02-09T12:35:14Z</time>
      </trkpt>
      <trkpt lat="43.8088" lon="7.23574">
        <ele>538.48</ele>
        <time>2013-02-09T12:35:26Z</time>
      </trkpt>
      <trkpt lat="43.80879" lon="7.23571">
        <ele>537.99</ele>
        <time>2013-02-09T12:35:34Z</time>
      </trkpt>
      <trkpt lat="43.8088" lon="7.23566">
        <ele>535.59</ele>
        <time>2013-02-09T12:35:49Z</time>
      </trkpt>
      <trkpt lat="43.8088" lon="7.23566">
        <ele>536.07</ele>
        <time>2013-02-09T12:36:11Z</time>
      </trkpt>
      <trkpt lat="43.80879" lon="7.23566">
        <ele>535.59</ele>
        <time>2013-02-09T12:36:23Z</time>
      </trkpt>
      <trkpt lat="43.80861" lon="7.23554">
        <ele>530.3</ele>
        <time>2013-02-09T12:36:33Z</time>
      </trkpt>
      <trkpt lat="43.80854" lon="7.23555">
        <ele>526.46</ele>
        <time>2013-02-09T12:36:38Z</time>
      </trkpt>
      <trkpt lat="43.80852" lon="7.23554">
        <ele>525.5</ele>
        <time>2013-02-09T12:36:40Z</time>
      </trkpt>
      <trkpt lat="43.80849" lon="7.23551">
        <ele>521.65</ele>
        <time>2013-02-09T12:36:47Z</time>
      </trkpt>
      <trkpt lat="43.80849" lon="7.23538">
        <ele>519.73</ele>
        <time>2013-02-09T12:36:58Z</time>
      </trkpt>
      <trkpt lat="43.80848" lon="7.23533">
        <ele>519.73</ele>
        <time>2013-02-09T12:37:03Z</time>
      </trkpt>
      <trkpt lat="43.80843" lon="7.23525">
        <ele>517.33</ele>
        <time>2013-02-09T12:37:12Z</time>
      </trkpt>
      <trkpt lat="43.80842" lon="7.23513">
        <ele>514.92</ele>
        <time>2013-02-09T12:37:25Z</time>
      </trkpt>
      <trkpt lat="43.80843" lon="7.23513">
        <ele>515.4</ele>
        <time>2013-02-09T12:37:28Z</time>
      </trkpt>
      <trkpt lat="43.80848" lon="7.23502">
        <ele>511.56</ele>
        <time>2013-02-09T12:37:33Z</time>
      </trkpt>
      <trkpt lat="43.80851" lon="7.23497">
        <ele>509.16</ele>
        <time>2013-02-09T12:37:35Z</time>
      </trkpt>
      <trkpt lat="43.80857" lon="7.23493">
        <ele>509.64</ele>
        <time>2013-02-09T12:51:53Z</time>
      </trkpt>
      <trkpt lat="43.80863" lon="7.2349">
        <ele>510.6</ele>
        <time>2013-02-09T12:52:05Z</time>
      </trkpt>
      <trkpt lat="43.80868" lon="7.23487">
        <ele>513</ele>
        <time>2013-02-09T12:52:17Z</time>
      </trkpt>
      <trkpt lat="43.80873" lon="7.23485">
        <ele>514.92</ele>
        <time>2013-02-09T12:52:30Z</time>
      </trkpt>
      <trkpt lat="43.80879" lon="7.23483">
        <ele>516.37</ele>
        <time>2013-02-09T12:52:43Z</time>
      </trkpt>
      <trkpt lat="43.80891" lon="7.23482">
        <ele>516.85</ele>
        <time>2013-02-09T12:52:57Z</time>
      </trkpt>
      <trkpt lat="43.80898" lon="7.23482">
        <ele>518.77</ele>
        <time>2013-02-09T12:53:12Z</time>
      </trkpt>
      <trkpt lat="43.80901" lon="7.2348">
        <ele>516.37</ele>
        <time>2013-02-09T12:53:23Z</time>
      </trkpt>
      <trkpt lat="43.80905" lon="7.23482">
        <ele>517.33</ele>
        <time>2013-02-09T12:53:35Z</time>
      </trkpt>
      <trkpt lat="43.80908" lon="7.23482">
        <ele>517.81</ele>
        <time>2013-02-09T12:53:50Z</time>
      </trkpt>
      <trkpt lat="43.8091" lon="7.23481">
        <ele>517.33</ele>
        <time>2013-02-09T12:53:52Z</time>
      </trkpt>
      <trkpt lat="43.80916" lon="7.2348">
        <ele>516.37</ele>
        <time>2013-02-09T12:54:04Z</time>
      </trkpt>
      <trkpt lat="43.80918" lon="7.23481">
        <ele>515.88</ele>
        <time>2013-02-09T12:54:25Z</time>
      </trkpt>
      <trkpt lat="43.80919" lon="7.23482">
        <ele>515.88</ele>
        <time>2013-02-09T12:54:37Z</time>
      </trkpt>
      <trkpt lat="43.80922" lon="7.2348">
        <ele>517.33</ele>
        <time>2013-02-09T12:54:50Z</time>
      </trkpt>
      <trkpt lat="43.80926" lon="7.2348">
        <ele>516.85</ele>
        <time>2013-02-09T12:55:02Z</time>
      </trkpt>
      <trkpt lat="43.80927" lon="7.2348">
        <ele>516.85</ele>
        <time>2013-02-09T12:55:04Z</time>
      </trkpt>
      <trkpt lat="43.80931" lon="7.23481">
        <ele>516.85</ele>
        <time>2013-02-09T12:55:19Z</time>
      </trkpt>
      <trkpt lat="43.80932" lon="7.23479">
        <ele>516.37</ele>
        <time>2013-02-09T12:55:22Z</time>
      </trkpt>
      <trkpt lat="43.80938" lon="7.2347">
        <ele>515.4</ele>
        <time>2013-02-09T12:55:30Z</time>
      </trkpt>
      <trkpt lat="43.80949" lon="7.23461">
        <ele>516.37</ele>
        <time>2013-02-09T12:55:44Z</time>
      </trkpt>
      <trkpt lat="43.80954" lon="7.23454">
        <ele>515.88</ele>
        <time>2013-02-09T12:55:47Z</time>
      </trkpt>
      <trkpt lat="43.80963" lon="7.23453">
        <ele>514.44</ele>
        <time>2013-02-09T12:55:51Z</time>
      </trkpt>
      <trkpt lat="43.80969" lon="7.23451">
        <ele>512.52</ele>
        <time>2013-02-09T12:55:54Z</time>
      </trkpt>
      <trkpt lat="43.80976" lon="7.23442">
        <ele>507.71</ele>
        <time>2013-02-09T12:55:59Z</time>
      </trkpt>
      <trkpt lat="43.80983" lon="7.23444">
        <ele>503.39</ele>
        <time>2013-02-09T12:56:03Z</time>
      </trkpt>
      <trkpt lat="43.80987" lon="7.23449">
        <ele>501.95</ele>
        <time>2013-02-09T12:56:05Z</time>
      </trkpt>
      <trkpt lat="43.80994" lon="7.23428">
        <ele>496.66</ele>
        <time>2013-02-09T12:56:13Z</time>
      </trkpt>
      <trkpt lat="43.81006" lon="7.23422">
        <ele>492.81</ele>
        <time>2013-02-09T12:56:20Z</time>
      </trkpt>
      <trkpt lat="43.8101" lon="7.23411">
        <ele>492.33</ele>
        <time>2013-02-09T12:56:24Z</time>
      </trkpt>
      <trkpt lat="43.8101" lon="7.23405">
        <ele>493.29</ele>
        <time>2013-02-09T12:56:26Z</time>
      </trkpt>
      <trkpt lat="43.81016" lon="7.23397">
        <ele>497.14</ele>
        <time>2013-02-09T12:56:36Z</time>
      </trkpt>
      <trkpt lat="43.81023" lon="7.23394">
        <ele>500.02</ele>
        <time>2013-02-09T12:56:49Z</time>
      </trkpt>
      <trkpt lat="43.81023" lon="7.23394">
        <ele>500.02</ele>
        <time>2013-02-09T12:56:50Z</time>
      </trkpt>
      <trkpt lat="43.8103" lon="7.23381">
        <ele>499.54</ele>
        <time>2013-02-09T12:56:56Z</time>
      </trkpt>
      <trkpt lat="43.81041" lon="7.23372">
        <ele>502.43</ele>
        <time>2013-02-09T12:57:04Z</time>
      </trkpt>
      <trkpt lat="43.81057" lon="7.23364">
        <ele>506.27</ele>
        <time>2013-02-09T12:57:19Z</time>
      </trkpt>
      <trkpt lat="43.81059" lon="7.23364">
        <ele>506.27</ele>
        <time>2013-02-09T12:57:22Z</time>
      </trkpt>
      <trkpt lat="43.81062" lon="7.23355">
        <ele>506.27</ele>
        <time>2013-02-09T12:57:35Z</time>
      </trkpt>
      <trkpt lat="43.81066" lon="7.23344">
        <ele>508.19</ele>
        <time>2013-02-09T12:57:52Z</time>
      </trkpt>
      <trkpt lat="43.81077" lon="7.23333">
        <ele>506.75</ele>
        <time>2013-02-09T12:58:03Z</time>
      </trkpt>
      <trkpt lat="43.81083" lon="7.23333">
        <ele>509.16</ele>
        <time>2013-02-09T12:58:13Z</time>
      </trkpt>
      <trkpt lat="43.81085" lon="7.2333">
        <ele>509.16</ele>
        <time>2013-02-09T12:58:20Z</time>
      </trkpt>
      <trkpt lat="43.81089" lon="7.23322">
        <ele>509.16</ele>
        <time>2013-02-09T12:58:25Z</time>
      </trkpt>
      <trkpt lat="43.81096" lon="7.23311">
        <ele>509.64</ele>
        <time>2013-02-09T12:58:30Z</time>
      </trkpt>
      <trkpt lat="43.81097" lon="7.23303">
        <ele>510.6</ele>
        <time>2013-02-09T12:58:36Z</time>
      </trkpt>
      <trkpt lat="43.81096" lon="7.23283">
        <ele>508.19</ele>
        <time>2013-02-09T12:58:45Z</time>
      </trkpt>
      <trkpt lat="43.81093" lon="7.23277">
        <ele>507.23</ele>
        <time>2013-02-09T12:58:51Z</time>
      </trkpt>
      <trkpt lat="43.81093" lon="7.23259">
        <ele>507.71</ele>
        <time>2013-02-09T12:59:01Z</time>
      </trkpt>
      <trkpt lat="43.81095" lon="7.23256">
        <ele>508.67</ele>
        <time>2013-02-09T12:59:12Z</time>
      </trkpt>
      <trkpt lat="43.81105" lon="7.23233">
        <ele>508.67</ele>
        <time>2013-02-09T12:59:24Z</time>
      </trkpt>
      <trkpt lat="43.81119" lon="7.2321">
        <ele>509.64</ele>
        <time>2013-02-09T12:59:36Z</time>
      </trkpt>
      <trkpt lat="43.81131" lon="7.23183">
        <ele>513</ele>
        <time>2013-02-09T12:59:52Z</time>
      </trkpt>
      <trkpt lat="43.81134" lon="7.23174">
        <ele>513.96</ele>
        <time>2013-02-09T12:59:57Z</time>
      </trkpt>
      <trkpt lat="43.81136" lon="7.2316">
        <ele>513.96</ele>
        <time>2013-02-09T13:00:04Z</time>
      </trkpt>
      <trkpt lat="43.81146" lon="7.23123">
        <ele>517.33</ele>
        <time>2013-02-09T13:00:23Z</time>
      </trkpt>
      <trkpt lat="43.81163" lon="7.23103">
        <ele>521.65</ele>
        <time>2013-02-09T13:00:39Z</time>
      </trkpt>
      <trkpt lat="43.81173" lon="7.23093">
        <ele>524.06</ele>
        <time>2013-02-09T13:00:49Z</time>
      </trkpt>
      <trkpt lat="43.81187" lon="7.23079">
        <ele>527.42</ele>
        <time>2013-02-09T13:01:03Z</time>
      </trkpt>
      <trkpt lat="43.8119" lon="7.23078">
        <ele>527.42</ele>
        <time>2013-02-09T13:01:06Z</time>
      </trkpt>
      <trkpt lat="43.81192" lon="7.23087">
        <ele>528.86</ele>
        <time>2013-02-09T13:01:14Z</time>
      </trkpt>
      <trkpt lat="43.81184" lon="7.23101">
        <ele>531.75</ele>
        <time>2013-02-09T13:01:25Z</time>
      </trkpt>
      <trkpt lat="43.81184" lon="7.2311">
        <ele>532.71</ele>
        <time>2013-02-09T13:01:31Z</time>
      </trkpt>
      <trkpt lat="43.81183" lon="7.23118">
        <ele>532.71</ele>
        <time>2013-02-09T13:01:36Z</time>
      </trkpt>
      <trkpt lat="43.81181" lon="7.23147">
        <ele>535.59</ele>
        <time>2013-02-09T13:01:54Z</time>
      </trkpt>
      <trkpt lat="43.81181" lon="7.23148">
        <ele>536.07</ele>
        <time>2013-02-09T13:01:55Z</time>
      </trkpt>
      <trkpt lat="43.81177" lon="7.23177">
        <ele>537.99</ele>
        <time>2013-02-09T13:02:12Z</time>
      </trkpt>
      <trkpt lat="43.81178" lon="7.23209">
        <ele>541.84</ele>
        <time>2013-02-09T13:02:30Z</time>
      </trkpt>
      <trkpt lat="43.81175" lon="7.23222">
        <ele>543.76</ele>
        <time>2013-02-09T13:02:39Z</time>
      </trkpt>
      <trkpt lat="43.81185" lon="7.2322">
        <ele>545.2</ele>
        <time>2013-02-09T13:02:49Z</time>
      </trkpt>
      <trkpt lat="43.81186" lon="7.23217">
        <ele>545.2</ele>
        <time>2013-02-09T13:02:51Z</time>
      </trkpt>
      <trkpt lat="43.81194" lon="7.23195">
        <ele>548.09</ele>
        <time>2013-02-09T13:03:04Z</time>
      </trkpt>
      <trkpt lat="43.81194" lon="7.23187">
        <ele>549.05</ele>
        <time>2013-02-09T13:03:09Z</time>
      </trkpt>
      <trkpt lat="43.81196" lon="7.2318">
        <ele>549.53</ele>
        <time>2013-02-09T13:03:14Z</time>
      </trkpt>
      <trkpt lat="43.81207" lon="7.23184">
        <ele>551.45</ele>
        <time>2013-02-09T13:03:25Z</time>
      </trkpt>
      <trkpt lat="43.8122" lon="7.23214">
        <ele>554.82</ele>
        <time>2013-02-09T13:03:43Z</time>
      </trkpt>
      <trkpt lat="43.81224" lon="7.23213">
        <ele>553.38</ele>
        <time>2013-02-09T13:04:52Z</time>
      </trkpt>
      <trkpt lat="43.81228" lon="7.23211">
        <ele>557.7</ele>
        <time>2013-02-09T13:08:09Z</time>
      </trkpt>
      <trkpt lat="43.81238" lon="7.23212">
        <ele>555.78</ele>
        <time>2013-02-09T13:08:52Z</time>
      </trkpt>
      <trkpt lat="43.8126" lon="7.23209">
        <ele>553.86</ele>
        <time>2013-02-09T13:09:00Z</time>
      </trkpt>
      <trkpt lat="43.81271" lon="7.23181">
        <ele>549.53</ele>
        <time>2013-02-09T13:09:05Z</time>
      </trkpt>
      <trkpt lat="43.81268" lon="7.23138">
        <ele>545.2</ele>
        <time>2013-02-09T13:09:09Z</time>
      </trkpt>
      <trkpt lat="43.81275" lon="7.23118">
        <ele>540.4</ele>
        <time>2013-02-09T13:09:15Z</time>
      </trkpt>
      <trkpt lat="43.81277" lon="7.23128">
        <ele>539.44</ele>
        <time>2013-02-09T13:09:17Z</time>
      </trkpt>
      <trkpt lat="43.81316" lon="7.23173">
        <ele>533.67</ele>
        <time>2013-02-09T13:09:26Z</time>
      </trkpt>
      <trkpt lat="43.81338" lon="7.23166">
        <ele>531.27</ele>
        <time>2013-02-09T13:09:29Z</time>
      </trkpt>
      <trkpt lat="43.81401" lon="7.23179">
        <ele>524.06</ele>
        <time>2013-02-09T13:09:37Z</time>
      </trkpt>
      <trkpt lat="43.81419" lon="7.23189">
        <ele>522.61</ele>
        <time>2013-02-09T13:09:39Z</time>
      </trkpt>
      <trkpt lat="43.81467" lon="7.23211">
        <ele>518.77</ele>
        <time>2013-02-09T13:09:44Z</time>
      </trkpt>
      <trkpt lat="43.81486" lon="7.23256">
        <ele>518.77</ele>
        <time>2013-02-09T13:09:50Z</time>
      </trkpt>
      <trkpt lat="43.81499" lon="7.2328">
        <ele>518.77</ele>
        <time>2013-02-09T13:09:54Z</time>
      </trkpt>
      <trkpt lat="43.81526" lon="7.23322">
        <ele>518.77</ele>
        <time>2013-02-09T13:10:05Z</time>
      </trkpt>
      <trkpt lat="43.81525" lon="7.23354">
        <ele>517.33</ele>
        <time>2013-02-09T13:10:10Z</time>
      </trkpt>
      <trkpt lat="43.81534" lon="7.234">
        <ele>513.96</ele>
        <time>2013-02-09T13:10:15Z</time>
      </trkpt>
      <trkpt lat="43.81555" lon="7.2346">
        <ele>511.08</ele>
        <time>2013-02-09T13:10:22Z</time>
      </trkpt>
      <trkpt lat="43.81562" lon="7.23501">
        <ele>511.08</ele>
        <time>2013-02-09T13:10:28Z</time>
      </trkpt>
      <trkpt lat="43.81553" lon="7.23563">
        <ele>511.56</ele>
        <time>2013-02-09T13:10:39Z</time>
      </trkpt>
      <trkpt lat="43.81551" lon="7.23567">
        <ele>511.08</ele>
        <time>2013-02-09T13:10:40Z</time>
      </trkpt>
      <trkpt lat="43.81547" lon="7.2359">
        <ele>511.08</ele>
        <time>2013-02-09T13:10:45Z</time>
      </trkpt>
      <trkpt lat="43.81551" lon="7.23615">
        <ele>511.08</ele>
        <time>2013-02-09T13:10:49Z</time>
      </trkpt>
      <trkpt lat="43.81552" lon="7.23635">
        <ele>511.56</ele>
        <time>2013-02-09T13:10:52Z</time>
      </trkpt>
      <trkpt lat="43.81555" lon="7.23664">
        <ele>511.56</ele>
        <time>2013-02-09T13:10:56Z</time>
      </trkpt>
      <trkpt lat="43.81557" lon="7.23685">
        <ele>510.6</ele>
        <time>2013-02-09T13:10:59Z</time>
      </trkpt>
      <trkpt lat="43.81568" lon="7.23718">
        <ele>509.64</ele>
        <time>2013-02-09T13:11:04Z</time>
      </trkpt>
      <trkpt lat="43.8156" lon="7.23748">
        <ele>512.04</ele>
        <time>2013-02-09T13:11:11Z</time>
      </trkpt>
      <trkpt lat="43.81527" lon="7.23772">
        <ele>513.48</ele>
        <time>2013-02-09T13:11:26Z</time>
      </trkpt>
      <trkpt lat="43.81493" lon="7.23801">
        <ele>515.88</ele>
        <time>2013-02-09T13:11:44Z</time>
      </trkpt>
      <trkpt lat="43.81459" lon="7.23832">
        <ele>520.69</ele>
        <time>2013-02-09T13:12:03Z</time>
      </trkpt>
      <trkpt lat="43.81433" lon="7.23845">
        <ele>524.06</ele>
        <time>2013-02-09T13:12:19Z</time>
      </trkpt>
      <trkpt lat="43.81423" lon="7.23851">
        <ele>525.5</ele>
        <time>2013-02-09T13:12:25Z</time>
      </trkpt>
      <trkpt lat="43.814" lon="7.23868">
        <ele>529.82</ele>
        <time>2013-02-09T13:12:39Z</time>
      </trkpt>
      <trkpt lat="43.81383" lon="7.23899">
        <ele>530.79</ele>
        <time>2013-02-09T13:12:53Z</time>
      </trkpt>
      <trkpt lat="43.81398" lon="7.23921">
        <ele>531.75</ele>
        <time>2013-02-09T13:13:05Z</time>
      </trkpt>
      <trkpt lat="43.81423" lon="7.23952">
        <ele>537.03</ele>
        <time>2013-02-09T13:13:22Z</time>
      </trkpt>
      <trkpt lat="43.81451" lon="7.23984">
        <ele>540.4</ele>
        <time>2013-02-09T13:13:40Z</time>
      </trkpt>
      <trkpt lat="43.81476" lon="7.24016">
        <ele>544.24</ele>
        <time>2013-02-09T13:13:58Z</time>
      </trkpt>
      <trkpt lat="43.81491" lon="7.24056">
        <ele>545.2</ele>
        <time>2013-02-09T13:14:15Z</time>
      </trkpt>
      <trkpt lat="43.81484" lon="7.24095">
        <ele>549.53</ele>
        <time>2013-02-09T13:14:31Z</time>
      </trkpt>
      <trkpt lat="43.81477" lon="7.24132">
        <ele>553.38</ele>
        <time>2013-02-09T13:14:46Z</time>
      </trkpt>
      <trkpt lat="43.81477" lon="7.24178">
        <ele>559.62</ele>
        <time>2013-02-09T13:15:02Z</time>
      </trkpt>
      <trkpt lat="43.81479" lon="7.24224">
        <ele>562.03</ele>
        <time>2013-02-09T13:15:19Z</time>
      </trkpt>
      <trkpt lat="43.81474" lon="7.24264">
        <ele>563.47</ele>
        <time>2013-02-09T13:15:35Z</time>
      </trkpt>
      <trkpt lat="43.81483" lon="7.24308">
        <ele>563.47</ele>
        <time>2013-02-09T13:15:52Z</time>
      </trkpt>
      <trkpt lat="43.81467" lon="7.24323">
        <ele>561.55</ele>
        <time>2013-02-09T13:16:02Z</time>
      </trkpt>
      <trkpt lat="43.81423" lon="7.24338">
        <ele>557.7</ele>
        <time>2013-02-09T13:16:12Z</time>
      </trkpt>
      <trkpt lat="43.81406" lon="7.2435">
        <ele>556.26</ele>
        <time>2013-02-09T13:16:16Z</time>
      </trkpt>
      <trkpt lat="43.81372" lon="7.24395">
        <ele>553.38</ele>
        <time>2013-02-09T13:16:25Z</time>
      </trkpt>
      <trkpt lat="43.81354" lon="7.24411">
        <ele>551.93</ele>
        <time>2013-02-09T13:16:28Z</time>
      </trkpt>
      <trkpt lat="43.81333" lon="7.2444">
        <ele>549.53</ele>
        <time>2013-02-09T13:16:32Z</time>
      </trkpt>
      <trkpt lat="43.81284" lon="7.24502">
        <ele>544.72</ele>
        <time>2013-02-09T13:16:41Z</time>
      </trkpt>
      <trkpt lat="43.81259" lon="7.24511">
        <ele>542.32</ele>
        <time>2013-02-09T13:16:46Z</time>
      </trkpt>
      <trkpt lat="43.81261" lon="7.24538">
        <ele>543.28</ele>
        <time>2013-02-09T13:16:50Z</time>
      </trkpt>
      <trkpt lat="43.81274" lon="7.24576">
        <ele>543.28</ele>
        <time>2013-02-09T13:16:55Z</time>
      </trkpt>
      <trkpt lat="43.81276" lon="7.24652">
        <ele>543.28</ele>
        <time>2013-02-09T13:17:06Z</time>
      </trkpt>
      <trkpt lat="43.81274" lon="7.24662">
        <ele>543.28</ele>
        <time>2013-02-09T13:17:08Z</time>
      </trkpt>
      <trkpt lat="43.81248" lon="7.24685">
        <ele>541.84</ele>
        <time>2013-02-09T13:17:16Z</time>
      </trkpt>
      <trkpt lat="43.81216" lon="7.24693">
        <ele>540.4</ele>
        <time>2013-02-09T13:17:23Z</time>
      </trkpt>
      <trkpt lat="43.81207" lon="7.24696">
        <ele>539.92</ele>
        <time>2013-02-09T13:17:25Z</time>
      </trkpt>
      <trkpt lat="43.81192" lon="7.24732">
        <ele>537.99</ele>
        <time>2013-02-09T13:17:34Z</time>
      </trkpt>
      <trkpt lat="43.81215" lon="7.24776">
        <ele>535.11</ele>
        <time>2013-02-09T13:17:42Z</time>
      </trkpt>
      <trkpt lat="43.81224" lon="7.24805">
        <ele>533.19</ele>
        <time>2013-02-09T13:17:49Z</time>
      </trkpt>
      <trkpt lat="43.81208" lon="7.24844">
        <ele>534.63</ele>
        <time>2013-02-09T13:18:04Z</time>
      </trkpt>
      <trkpt lat="43.81209" lon="7.24861">
        <ele>537.03</ele>
        <time>2013-02-09T13:18:11Z</time>
      </trkpt>
      <trkpt lat="43.8121" lon="7.24868">
        <ele>537.99</ele>
        <time>2013-02-09T13:18:15Z</time>
      </trkpt>
      <trkpt lat="43.8121" lon="7.24872">
        <ele>538.48</ele>
        <time>2013-02-09T13:18:17Z</time>
      </trkpt>
      <trkpt lat="43.81213" lon="7.24905">
        <ele>540.88</ele>
        <time>2013-02-09T13:18:32Z</time>
      </trkpt>
      <trkpt lat="43.81233" lon="7.24926">
        <ele>542.32</ele>
        <time>2013-02-09T13:18:46Z</time>
      </trkpt>
      <trkpt lat="43.81235" lon="7.24958">
        <ele>545.2</ele>
        <time>2013-02-09T13:18:59Z</time>
      </trkpt>
      <trkpt lat="43.8124" lon="7.24979">
        <ele>547.13</ele>
        <time>2013-02-09T13:19:12Z</time>
      </trkpt>
      <trkpt lat="43.81241" lon="7.24981">
        <ele>546.17</ele>
        <time>2013-02-09T13:19:26Z</time>
      </trkpt>
      <trkpt lat="43.8126" lon="7.25">
        <ele>548.57</ele>
        <time>2013-02-09T13:19:42Z</time>
      </trkpt>
      <trkpt lat="43.81266" lon="7.2503">
        <ele>551.45</ele>
        <time>2013-02-09T13:19:58Z</time>
      </trkpt>
      <trkpt lat="43.81262" lon="7.25051">
        <ele>553.38</ele>
        <time>2013-02-09T13:20:08Z</time>
      </trkpt>
      <trkpt lat="43.81258" lon="7.25069">
        <ele>556.26</ele>
        <time>2013-02-09T13:20:17Z</time>
      </trkpt>
      <trkpt lat="43.81267" lon="7.25095">
        <ele>557.22</ele>
        <time>2013-02-09T13:20:31Z</time>
      </trkpt>
      <trkpt lat="43.81292" lon="7.25104">
        <ele>560.11</ele>
        <time>2013-02-09T13:20:47Z</time>
      </trkpt>
      <trkpt lat="43.8132" lon="7.25116">
        <ele>561.55</ele>
        <time>2013-02-09T13:21:05Z</time>
      </trkpt>
      <trkpt lat="43.81334" lon="7.25149">
        <ele>563.95</ele>
        <time>2013-02-09T13:21:22Z</time>
      </trkpt>
      <trkpt lat="43.81339" lon="7.25184">
        <ele>567.32</ele>
        <time>2013-02-09T13:21:38Z</time>
      </trkpt>
      <trkpt lat="43.81345" lon="7.25192">
        <ele>567.8</ele>
        <time>2013-02-09T13:21:43Z</time>
      </trkpt>
      <trkpt lat="43.81355" lon="7.25193">
        <ele>569.24</ele>
        <time>2013-02-09T13:21:50Z</time>
      </trkpt>
      <trkpt lat="43.8138" lon="7.25184">
        <ele>571.64</ele>
        <time>2013-02-09T13:22:06Z</time>
      </trkpt>
      <trkpt lat="43.81401" lon="7.25178">
        <ele>574.04</ele>
        <time>2013-02-09T13:22:18Z</time>
      </trkpt>
      <trkpt lat="43.81436" lon="7.2517">
        <ele>578.37</ele>
        <time>2013-02-09T13:22:38Z</time>
      </trkpt>
      <trkpt lat="43.8146" lon="7.25169">
        <ele>580.77</ele>
        <time>2013-02-09T13:22:52Z</time>
      </trkpt>
      <trkpt lat="43.81487" lon="7.25174">
        <ele>583.66</ele>
        <time>2013-02-09T13:23:10Z</time>
      </trkpt>
      <trkpt lat="43.81506" lon="7.2519">
        <ele>584.62</ele>
        <time>2013-02-09T13:23:24Z</time>
      </trkpt>
      <trkpt lat="43.81528" lon="7.25205">
        <ele>585.58</ele>
        <time>2013-02-09T13:23:40Z</time>
      </trkpt>
      <trkpt lat="43.81554" lon="7.25214">
        <ele>587.5</ele>
        <time>2013-02-09T13:23:57Z</time>
      </trkpt>
      <trkpt lat="43.8156" lon="7.25217">
        <ele>587.98</ele>
        <time>2013-02-09T13:24:01Z</time>
      </trkpt>
      <trkpt lat="43.81586" lon="7.25238">
        <ele>590.87</ele>
        <time>2013-02-09T13:24:18Z</time>
      </trkpt>
      <trkpt lat="43.81607" lon="7.25258">
        <ele>591.83</ele>
        <time>2013-02-09T13:24:33Z</time>
      </trkpt>
      <trkpt lat="43.81625" lon="7.25275">
        <ele>593.27</ele>
        <time>2013-02-09T13:24:47Z</time>
      </trkpt>
      <trkpt lat="43.81629" lon="7.25277">
        <ele>592.79</ele>
        <time>2013-02-09T13:26:36Z</time>
      </trkpt>
      <trkpt lat="43.81643" lon="7.25309">
        <ele>595.67</ele>
        <time>2013-02-09T13:26:54Z</time>
      </trkpt>
      <trkpt lat="43.81657" lon="7.25344">
        <ele>598.56</ele>
        <time>2013-02-09T13:27:12Z</time>
      </trkpt>
      <trkpt lat="43.81669" lon="7.25377">
        <ele>600.96</ele>
        <time>2013-02-09T13:27:29Z</time>
      </trkpt>
      <trkpt lat="43.81683" lon="7.25408">
        <ele>603.36</ele>
        <time>2013-02-09T13:27:46Z</time>
      </trkpt>
      <trkpt lat="43.81697" lon="7.25437">
        <ele>604.81</ele>
        <time>2013-02-09T13:28:03Z</time>
      </trkpt>
      <trkpt lat="43.81705" lon="7.25456">
        <ele>606.25</ele>
        <time>2013-02-09T13:28:15Z</time>
      </trkpt>
      <trkpt lat="43.81705" lon="7.25461">
        <ele>607.21</ele>
        <time>2013-02-09T13:28:18Z</time>
      </trkpt>
      <trkpt lat="43.81703" lon="7.25461">
        <ele>608.65</ele>
        <time>2013-02-09T13:28:26Z</time>
      </trkpt>
      <trkpt lat="43.81701" lon="7.25459">
        <ele>609.61</ele>
        <time>2013-02-09T13:28:29Z</time>
      </trkpt>
      <trkpt lat="43.81689" lon="7.25449">
        <ele>612.98</ele>
        <time>2013-02-09T13:28:45Z</time>
      </trkpt>
      <trkpt lat="43.81678" lon="7.25438">
        <ele>614.9</ele>
        <time>2013-02-09T13:29:00Z</time>
      </trkpt>
      <trkpt lat="43.81663" lon="7.25422">
        <ele>617.3</ele>
        <time>2013-02-09T13:29:17Z</time>
      </trkpt>
      <trkpt lat="43.81651" lon="7.25411">
        <ele>619.71</ele>
        <time>2013-02-09T13:29:31Z</time>
      </trkpt>
      <trkpt lat="43.81636" lon="7.25397">
        <ele>623.07</ele>
        <time>2013-02-09T13:29:49Z</time>
      </trkpt>
      <trkpt lat="43.81625" lon="7.25386">
        <ele>624.51</ele>
        <time>2013-02-09T13:30:05Z</time>
      </trkpt>
      <trkpt lat="43.81617" lon="7.25379">
        <ele>627.88</ele>
        <time>2013-02-09T13:30:19Z</time>
      </trkpt>
      <trkpt lat="43.81609" lon="7.2537">
        <ele>630.28</ele>
        <time>2013-02-09T13:30:34Z</time>
      </trkpt>
      <trkpt lat="43.81603" lon="7.25364">
        <ele>632.68</ele>
        <time>2013-02-09T13:30:46Z</time>
      </trkpt>
      <trkpt lat="43.81595" lon="7.2536">
        <ele>634.13</ele>
        <time>2013-02-09T13:31:02Z</time>
      </trkpt>
      <trkpt lat="43.81591" lon="7.25359">
        <ele>636.53</ele>
        <time>2013-02-09T13:31:14Z</time>
      </trkpt>
      <trkpt lat="43.81584" lon="7.25356">
        <ele>638.93</ele>
        <time>2013-02-09T13:31:29Z</time>
      </trkpt>
      <trkpt lat="43.8158" lon="7.25354">
        <ele>640.38</ele>
        <time>2013-02-09T13:31:42Z</time>
      </trkpt>
      <trkpt lat="43.81575" lon="7.25348">
        <ele>642.78</ele>
        <time>2013-02-09T13:31:59Z</time>
      </trkpt>
      <trkpt lat="43.8157" lon="7.25345">
        <ele>644.22</ele>
        <time>2013-02-09T13:32:14Z</time>
      </trkpt>
      <trkpt lat="43.8156" lon="7.25342">
        <ele>647.59</ele>
        <time>2013-02-09T13:32:28Z</time>
      </trkpt>
      <trkpt lat="43.81559" lon="7.25341">
        <ele>648.07</ele>
        <time>2013-02-09T13:32:29Z</time>
      </trkpt>
      <trkpt lat="43.81538" lon="7.25343">
        <ele>651.43</ele>
        <time>2013-02-09T13:32:47Z</time>
      </trkpt>
      <trkpt lat="43.81521" lon="7.25352">
        <ele>652.39</ele>
        <time>2013-02-09T13:33:04Z</time>
      </trkpt>
      <trkpt lat="43.8151" lon="7.25358">
        <ele>656.24</ele>
        <time>2013-02-09T13:33:20Z</time>
      </trkpt>
      <trkpt lat="43.815" lon="7.25364">
        <ele>658.64</ele>
        <time>2013-02-09T13:33:37Z</time>
      </trkpt>
      <trkpt lat="43.81493" lon="7.25369">
        <ele>661.04</ele>
        <time>2013-02-09T13:33:51Z</time>
      </trkpt>
      <trkpt lat="43.81483" lon="7.25376">
        <ele>664.89</ele>
        <time>2013-02-09T13:34:08Z</time>
      </trkpt>
      <trkpt lat="43.81475" lon="7.25379">
        <ele>666.81</ele>
        <time>2013-02-09T13:34:21Z</time>
      </trkpt>
      <trkpt lat="43.81467" lon="7.25381">
        <ele>668.25</ele>
        <time>2013-02-09T13:34:35Z</time>
      </trkpt>
      <trkpt lat="43.81453" lon="7.25387">
        <ele>671.62</ele>
        <time>2013-02-09T13:34:52Z</time>
      </trkpt>
      <trkpt lat="43.81437" lon="7.25395">
        <ele>672.58</ele>
        <time>2013-02-09T13:35:09Z</time>
      </trkpt>
      <trkpt lat="43.81433" lon="7.25395">
        <ele>671.62</ele>
        <time>2013-02-09T13:35:24Z</time>
      </trkpt>
      <trkpt lat="43.81433" lon="7.25395">
        <ele>671.62</ele>
        <time>2013-02-09T13:35:31Z</time>
      </trkpt>
      <trkpt lat="43.81421" lon="7.25394">
        <ele>671.14</ele>
        <time>2013-02-09T13:35:37Z</time>
      </trkpt>
      <trkpt lat="43.81398" lon="7.25391">
        <ele>668.25</ele>
        <time>2013-02-09T13:35:42Z</time>
      </trkpt>
      <trkpt lat="43.81365" lon="7.25386">
        <ele>665.85</ele>
        <time>2013-02-09T13:35:48Z</time>
      </trkpt>
      <trkpt lat="43.8135" lon="7.25382">
        <ele>665.37</ele>
        <time>2013-02-09T13:35:51Z</time>
      </trkpt>
      <trkpt lat="43.81314" lon="7.25373">
        <ele>664.89</ele>
        <time>2013-02-09T13:36:01Z</time>
      </trkpt>
      <trkpt lat="43.81296" lon="7.25371">
        <ele>665.85</ele>
        <time>2013-02-09T13:36:15Z</time>
      </trkpt>
      <trkpt lat="43.81277" lon="7.25361">
        <ele>671.14</ele>
        <time>2013-02-09T13:36:34Z</time>
      </trkpt>
      <trkpt lat="43.81263" lon="7.25358">
        <ele>674.98</ele>
        <time>2013-02-09T13:36:52Z</time>
      </trkpt>
      <trkpt lat="43.81256" lon="7.25353">
        <ele>676.42</ele>
        <time>2013-02-09T13:37:05Z</time>
      </trkpt>
      <trkpt lat="43.8125" lon="7.2535">
        <ele>678.35</ele>
        <time>2013-02-09T13:37:19Z</time>
      </trkpt>
      <trkpt lat="43.81242" lon="7.25345">
        <ele>680.75</ele>
        <time>2013-02-09T13:37:31Z</time>
      </trkpt>
      <trkpt lat="43.81238" lon="7.25344">
        <ele>681.71</ele>
        <time>2013-02-09T13:37:35Z</time>
      </trkpt>
      <trkpt lat="43.81227" lon="7.25339">
        <ele>685.56</ele>
        <time>2013-02-09T13:37:51Z</time>
      </trkpt>
      <trkpt lat="43.81226" lon="7.25339">
        <ele>686.04</ele>
        <time>2013-02-09T13:37:52Z</time>
      </trkpt>
      <trkpt lat="43.81222" lon="7.2534">
        <ele>687</ele>
        <time>2013-02-09T13:37:58Z</time>
      </trkpt>
      <trkpt lat="43.81209" lon="7.25335">
        <ele>688.92</ele>
        <time>2013-02-09T13:38:13Z</time>
      </trkpt>
      <trkpt lat="43.81194" lon="7.2533">
        <ele>688.92</ele>
        <time>2013-02-09T13:38:25Z</time>
      </trkpt>
      <trkpt lat="43.81189" lon="7.2533">
        <ele>689.4</ele>
        <time>2013-02-09T13:38:29Z</time>
      </trkpt>
      <trkpt lat="43.8117" lon="7.25319">
        <ele>689.88</ele>
        <time>2013-02-09T13:38:46Z</time>
      </trkpt>
      <trkpt lat="43.81156" lon="7.25308">
        <ele>691.81</ele>
        <time>2013-02-09T13:38:59Z</time>
      </trkpt>
      <trkpt lat="43.81141" lon="7.25293">
        <ele>695.17</ele>
        <time>2013-02-09T13:39:17Z</time>
      </trkpt>
      <trkpt lat="43.81131" lon="7.2529">
        <ele>696.61</ele>
        <time>2013-02-09T13:39:32Z</time>
      </trkpt>
      <trkpt lat="43.81121" lon="7.25287">
        <ele>699.02</ele>
        <time>2013-02-09T13:39:49Z</time>
      </trkpt>
      <trkpt lat="43.8111" lon="7.25281">
        <ele>700.46</ele>
        <time>2013-02-09T13:40:03Z</time>
      </trkpt>
      <trkpt lat="43.81099" lon="7.25266">
        <ele>703.34</ele>
        <time>2013-02-09T13:40:19Z</time>
      </trkpt>
      <trkpt lat="43.8109" lon="7.25259">
        <ele>707.19</ele>
        <time>2013-02-09T13:40:34Z</time>
      </trkpt>
      <trkpt lat="43.81081" lon="7.25254">
        <ele>709.11</ele>
        <time>2013-02-09T13:40:47Z</time>
      </trkpt>
      <trkpt lat="43.81075" lon="7.25252">
        <ele>710.55</ele>
        <time>2013-02-09T13:41:04Z</time>
      </trkpt>
      <trkpt lat="43.81062" lon="7.25241">
        <ele>712.47</ele>
        <time>2013-02-09T13:41:21Z</time>
      </trkpt>
      <trkpt lat="43.81051" lon="7.25227">
        <ele>712.47</ele>
        <time>2013-02-09T13:41:37Z</time>
      </trkpt>
      <trkpt lat="43.81051" lon="7.25228">
        <ele>711.03</ele>
        <time>2013-02-09T13:44:27Z</time>
      </trkpt>
      <trkpt lat="43.81055" lon="7.25232">
        <ele>711.03</ele>
        <time>2013-02-09T13:44:31Z</time>
      </trkpt>
      <trkpt lat="43.81052" lon="7.25228">
        <ele>712.47</ele>
        <time>2013-02-09T13:49:15Z</time>
      </trkpt>
      <trkpt lat="43.81048" lon="7.25224">
        <ele>711.99</ele>
        <time>2013-02-09T13:57:14Z</time>
      </trkpt>
      <trkpt lat="43.81033" lon="7.25201">
        <ele>713.92</ele>
        <time>2013-02-09T13:57:28Z</time>
      </trkpt>
      <trkpt lat="43.8101" lon="7.25172">
        <ele>718.24</ele>
        <time>2013-02-09T13:57:43Z</time>
      </trkpt>
      <trkpt lat="43.80988" lon="7.2514">
        <ele>718.24</ele>
        <time>2013-02-09T13:57:57Z</time>
      </trkpt>
      <trkpt lat="43.80966" lon="7.25113">
        <ele>723.53</ele>
        <time>2013-02-09T13:58:14Z</time>
      </trkpt>
      <trkpt lat="43.80957" lon="7.25105">
        <ele>725.93</ele>
        <time>2013-02-09T13:58:21Z</time>
      </trkpt>
      <trkpt lat="43.80949" lon="7.25098">
        <ele>726.41</ele>
        <time>2013-02-09T13:58:28Z</time>
      </trkpt>
      <trkpt lat="43.80925" lon="7.25082">
        <ele>729.78</ele>
        <time>2013-02-09T13:58:44Z</time>
      </trkpt>
      <trkpt lat="43.80898" lon="7.25071">
        <ele>732.18</ele>
        <time>2013-02-09T13:59:00Z</time>
      </trkpt>
      <trkpt lat="43.80874" lon="7.25069">
        <ele>732.18</ele>
        <time>2013-02-09T13:59:13Z</time>
      </trkpt>
      <trkpt lat="43.8085" lon="7.25056">
        <ele>734.1</ele>
        <time>2013-02-09T13:59:25Z</time>
      </trkpt>
      <trkpt lat="43.80846" lon="7.25049">
        <ele>736.99</ele>
        <time>2013-02-09T13:59:34Z</time>
      </trkpt>
      <trkpt lat="43.80842" lon="7.25046">
        <ele>737.47</ele>
        <time>2013-02-09T13:59:43Z</time>
      </trkpt>
      <trkpt lat="43.80836" lon="7.25044">
        <ele>736.51</ele>
        <time>2013-02-09T13:59:56Z</time>
      </trkpt>
      <trkpt lat="43.80835" lon="7.25043">
        <ele>736.03</ele>
        <time>2013-02-09T14:00:00Z</time>
      </trkpt>
      <trkpt lat="43.80832" lon="7.25048">
        <ele>736.51</ele>
        <time>2013-02-09T14:00:04Z</time>
      </trkpt>
      <trkpt lat="43.80831" lon="7.25056">
        <ele>738.91</ele>
        <time>2013-02-09T14:00:08Z</time>
      </trkpt>
      <trkpt lat="43.80812" lon="7.25082">
        <ele>740.83</ele>
        <time>2013-02-09T14:00:23Z</time>
      </trkpt>
      <trkpt lat="43.80789" lon="7.25103">
        <ele>742.28</ele>
        <time>2013-02-09T14:00:38Z</time>
      </trkpt>
      <trkpt lat="43.80767" lon="7.25116">
        <ele>741.79</ele>
        <time>2013-02-09T14:00:49Z</time>
      </trkpt>
      <trkpt lat="43.80727" lon="7.25112">
        <ele>736.51</ele>
        <time>2013-02-09T14:00:57Z</time>
      </trkpt>
      <trkpt lat="43.80717" lon="7.25109">
        <ele>735.55</ele>
        <time>2013-02-09T14:00:59Z</time>
      </trkpt>
      <trkpt lat="43.80697" lon="7.25103">
        <ele>733.62</ele>
        <time>2013-02-09T14:01:03Z</time>
      </trkpt>
      <trkpt lat="43.80654" lon="7.25103">
        <ele>731.7</ele>
        <time>2013-02-09T14:01:13Z</time>
      </trkpt>
      <trkpt lat="43.80634" lon="7.2511">
        <ele>733.62</ele>
        <time>2013-02-09T14:01:23Z</time>
      </trkpt>
      <trkpt lat="43.80621" lon="7.25117">
        <ele>734.1</ele>
        <time>2013-02-09T14:01:29Z</time>
      </trkpt>
      <trkpt lat="43.80578" lon="7.25123">
        <ele>733.14</ele>
        <time>2013-02-09T14:01:41Z</time>
      </trkpt>
      <trkpt lat="43.80555" lon="7.25123">
        <ele>731.7</ele>
        <time>2013-02-09T14:01:46Z</time>
      </trkpt>
      <trkpt lat="43.80532" lon="7.25125">
        <ele>729.78</ele>
        <time>2013-02-09T14:01:51Z</time>
      </trkpt>
      <trkpt lat="43.80514" lon="7.2513">
        <ele>729.78</ele>
        <time>2013-02-09T14:01:56Z</time>
      </trkpt>
      <trkpt lat="43.80503" lon="7.25135">
        <ele>730.26</ele>
        <time>2013-02-09T14:02:00Z</time>
      </trkpt>
      <trkpt lat="43.8049" lon="7.25138">
        <ele>730.26</ele>
        <time>2013-02-09T14:02:04Z</time>
      </trkpt>
      <trkpt lat="43.8044" lon="7.25155">
        <ele>729.3</ele>
        <time>2013-02-09T14:02:18Z</time>
      </trkpt>
      <trkpt lat="43.8042" lon="7.2516">
        <ele>728.34</ele>
        <time>2013-02-09T14:02:23Z</time>
      </trkpt>
      <trkpt lat="43.80396" lon="7.25168">
        <ele>725.93</ele>
        <time>2013-02-09T14:02:28Z</time>
      </trkpt>
      <trkpt lat="43.80373" lon="7.25171">
        <ele>722.57</ele>
        <time>2013-02-09T14:02:33Z</time>
      </trkpt>
      <trkpt lat="43.80318" lon="7.25167">
        <ele>715.36</ele>
        <time>2013-02-09T14:02:42Z</time>
      </trkpt>
      <trkpt lat="43.80274" lon="7.25144">
        <ele>714.4</ele>
        <time>2013-02-09T14:02:50Z</time>
      </trkpt>
      <trkpt lat="43.80267" lon="7.25135">
        <ele>716.32</ele>
        <time>2013-02-09T14:02:57Z</time>
      </trkpt>
      <trkpt lat="43.80253" lon="7.25118">
        <ele>718.24</ele>
        <time>2013-02-09T14:03:10Z</time>
      </trkpt>
      <trkpt lat="43.8024" lon="7.25105">
        <ele>717.28</ele>
        <time>2013-02-09T14:03:14Z</time>
      </trkpt>
      <trkpt lat="43.80218" lon="7.25077">
        <ele>716.8</ele>
        <time>2013-02-09T14:03:20Z</time>
      </trkpt>
      <trkpt lat="43.80203" lon="7.25038">
        <ele>717.28</ele>
        <time>2013-02-09T14:03:28Z</time>
      </trkpt>
      <trkpt lat="43.8019" lon="7.25018">
        <ele>713.44</ele>
        <time>2013-02-09T14:03:33Z</time>
      </trkpt>
      <trkpt lat="43.80174" lon="7.24997">
        <ele>709.59</ele>
        <time>2013-02-09T14:03:37Z</time>
      </trkpt>
      <trkpt lat="43.80149" lon="7.2498">
        <ele>703.82</ele>
        <time>2013-02-09T14:03:44Z</time>
      </trkpt>
      <trkpt lat="43.80121" lon="7.24968">
        <ele>703.34</ele>
        <time>2013-02-09T14:03:50Z</time>
      </trkpt>
      <trkpt lat="43.80104" lon="7.24937">
        <ele>702.86</ele>
        <time>2013-02-09T14:03:58Z</time>
      </trkpt>
      <trkpt lat="43.80098" lon="7.24927">
        <ele>702.38</ele>
        <time>2013-02-09T14:04:00Z</time>
      </trkpt>
      <trkpt lat="43.80087" lon="7.24908">
        <ele>701.42</ele>
        <time>2013-02-09T14:04:04Z</time>
      </trkpt>
      <trkpt lat="43.80072" lon="7.24857">
        <ele>697.57</ele>
        <time>2013-02-09T14:04:11Z</time>
      </trkpt>
      <trkpt lat="43.80072" lon="7.24848">
        <ele>697.57</ele>
        <time>2013-02-09T14:04:12Z</time>
      </trkpt>
      <trkpt lat="43.80076" lon="7.24824">
        <ele>697.09</ele>
        <time>2013-02-09T14:04:15Z</time>
      </trkpt>
      <trkpt lat="43.80073" lon="7.24796">
        <ele>694.69</ele>
        <time>2013-02-09T14:04:19Z</time>
      </trkpt>
      <trkpt lat="43.80064" lon="7.24748">
        <ele>688.92</ele>
        <time>2013-02-09T14:04:29Z</time>
      </trkpt>
      <trkpt lat="43.80063" lon="7.24741">
        <ele>688.44</ele>
        <time>2013-02-09T14:04:30Z</time>
      </trkpt>
      <trkpt lat="43.80057" lon="7.24718">
        <ele>685.56</ele>
        <time>2013-02-09T14:04:33Z</time>
      </trkpt>
      <trkpt lat="43.80041" lon="7.24679">
        <ele>678.83</ele>
        <time>2013-02-09T14:04:41Z</time>
      </trkpt>
      <trkpt lat="43.80024" lon="7.24684">
        <ele>680.75</ele>
        <time>2013-02-09T14:04:49Z</time>
      </trkpt>
      <trkpt lat="43.80022" lon="7.24685">
        <ele>681.23</ele>
        <time>2013-02-09T14:04:52Z</time>
      </trkpt>
      <trkpt lat="43.80015" lon="7.2468">
        <ele>682.19</ele>
        <time>2013-02-09T14:04:59Z</time>
      </trkpt>
      <trkpt lat="43.80002" lon="7.24684">
        <ele>684.6</ele>
        <time>2013-02-09T14:05:12Z</time>
      </trkpt>
      <trkpt lat="43.79991" lon="7.24688">
        <ele>686.04</ele>
        <time>2013-02-09T14:05:24Z</time>
      </trkpt>
      <trkpt lat="43.79977" lon="7.24688">
        <ele>686.04</ele>
        <time>2013-02-09T14:05:36Z</time>
      </trkpt>
      <trkpt lat="43.79964" lon="7.24691">
        <ele>687.48</ele>
        <time>2013-02-09T14:05:47Z</time>
      </trkpt>
      <trkpt lat="43.79949" lon="7.24696">
        <ele>689.4</ele>
        <time>2013-02-09T14:05:59Z</time>
      </trkpt>
      <trkpt lat="43.79943" lon="7.24696">
        <ele>689.88</ele>
        <time>2013-02-09T14:06:04Z</time>
      </trkpt>
      <trkpt lat="43.79931" lon="7.247">
        <ele>691.33</ele>
        <time>2013-02-09T14:06:16Z</time>
      </trkpt>
      <trkpt lat="43.79917" lon="7.24705">
        <ele>692.77</ele>
        <time>2013-02-09T14:06:30Z</time>
      </trkpt>
      <trkpt lat="43.79899" lon="7.2471">
        <ele>694.69</ele>
        <time>2013-02-09T14:06:45Z</time>
      </trkpt>
      <trkpt lat="43.79884" lon="7.24715">
        <ele>697.09</ele>
        <time>2013-02-09T14:06:58Z</time>
      </trkpt>
      <trkpt lat="43.79869" lon="7.24721">
        <ele>699.98</ele>
        <time>2013-02-09T14:07:13Z</time>
      </trkpt>
      <trkpt lat="43.79855" lon="7.2473">
        <ele>701.9</ele>
        <time>2013-02-09T14:07:28Z</time>
      </trkpt>
      <trkpt lat="43.79846" lon="7.24734">
        <ele>701.9</ele>
        <time>2013-02-09T14:07:37Z</time>
      </trkpt>
      <trkpt lat="43.79845" lon="7.24734">
        <ele>701.9</ele>
        <time>2013-02-09T14:07:38Z</time>
      </trkpt>
      <trkpt lat="43.79825" lon="7.24751">
        <ele>703.82</ele>
        <time>2013-02-09T14:07:55Z</time>
      </trkpt>
      <trkpt lat="43.79816" lon="7.24758">
        <ele>705.75</ele>
        <time>2013-02-09T14:08:08Z</time>
      </trkpt>
      <trkpt lat="43.79807" lon="7.24759">
        <ele>706.71</ele>
        <time>2013-02-09T14:08:22Z</time>
      </trkpt>
      <trkpt lat="43.79796" lon="7.24767">
        <ele>705.75</ele>
        <time>2013-02-09T14:08:33Z</time>
      </trkpt>
      <trkpt lat="43.79752" lon="7.24791">
        <ele>703.34</ele>
        <time>2013-02-09T14:08:47Z</time>
      </trkpt>
      <trkpt lat="43.79696" lon="7.24837">
        <ele>698.05</ele>
        <time>2013-02-09T14:08:56Z</time>
      </trkpt>
      <trkpt lat="43.79678" lon="7.24859">
        <ele>695.17</ele>
        <time>2013-02-09T14:08:59Z</time>
      </trkpt>
      <trkpt lat="43.79666" lon="7.2487">
        <ele>693.73</ele>
        <time>2013-02-09T14:09:01Z</time>
      </trkpt>
      <trkpt lat="43.79641" lon="7.24894">
        <ele>689.4</ele>
        <time>2013-02-09T14:09:06Z</time>
      </trkpt>
      <trkpt lat="43.79564" lon="7.24901">
        <ele>681.71</ele>
        <time>2013-02-09T14:09:16Z</time>
      </trkpt>
      <trkpt lat="43.7948" lon="7.24887">
        <ele>677.39</ele>
        <time>2013-02-09T14:09:28Z</time>
      </trkpt>
      <trkpt lat="43.79394" lon="7.24846">
        <ele>675.46</ele>
        <time>2013-02-09T14:09:45Z</time>
      </trkpt>
      <trkpt lat="43.79383" lon="7.24841">
        <ele>675.94</ele>
        <time>2013-02-09T14:09:48Z</time>
      </trkpt>
      <trkpt lat="43.79365" lon="7.24838">
        <ele>675.94</ele>
        <time>2013-02-09T14:09:53Z</time>
      </trkpt>
      <trkpt lat="43.79335" lon="7.24835">
        <ele>672.58</ele>
        <time>2013-02-09T14:10:02Z</time>
      </trkpt>
      <trkpt lat="43.79328" lon="7.24833">
        <ele>671.62</ele>
        <time>2013-02-09T14:10:03Z</time>
      </trkpt>
      <trkpt lat="43.793" lon="7.24816">
        <ele>669.7</ele>
        <time>2013-02-09T14:10:07Z</time>
      </trkpt>
      <trkpt lat="43.79273" lon="7.24809">
        <ele>665.85</ele>
        <time>2013-02-09T14:10:15Z</time>
      </trkpt>
      <trkpt lat="43.7927" lon="7.24814">
        <ele>664.89</ele>
        <time>2013-02-09T14:11:19Z</time>
      </trkpt>
      <trkpt lat="43.79271" lon="7.24789">
        <ele>664.41</ele>
        <time>2013-02-09T14:11:34Z</time>
      </trkpt>
      <trkpt lat="43.79268" lon="7.24784">
        <ele>663.93</ele>
        <time>2013-02-09T14:11:40Z</time>
      </trkpt>
      <trkpt lat="43.7926" lon="7.24783">
        <ele>662.01</ele>
        <time>2013-02-09T14:11:44Z</time>
      </trkpt>
      <trkpt lat="43.79224" lon="7.24777">
        <ele>656.72</ele>
        <time>2013-02-09T14:11:51Z</time>
      </trkpt>
      <trkpt lat="43.79214" lon="7.24773">
        <ele>655.28</ele>
        <time>2013-02-09T14:11:53Z</time>
      </trkpt>
      <trkpt lat="43.79205" lon="7.24766">
        <ele>653.83</ele>
        <time>2013-02-09T14:11:55Z</time>
      </trkpt>
      <trkpt lat="43.79185" lon="7.24751">
        <ele>650.95</ele>
        <time>2013-02-09T14:12:01Z</time>
      </trkpt>
      <trkpt lat="43.79146" lon="7.24749">
        <ele>647.1</ele>
        <time>2013-02-09T14:12:15Z</time>
      </trkpt>
      <trkpt lat="43.79122" lon="7.24753">
        <ele>642.78</ele>
        <time>2013-02-09T14:12:25Z</time>
      </trkpt>
      <trkpt lat="43.79091" lon="7.24761">
        <ele>639.41</ele>
        <time>2013-02-09T14:12:36Z</time>
      </trkpt>
      <trkpt lat="43.79068" lon="7.24768">
        <ele>633.17</ele>
        <time>2013-02-09T14:12:44Z</time>
      </trkpt>
      <trkpt lat="43.79046" lon="7.24769">
        <ele>627.4</ele>
        <time>2013-02-09T14:12:52Z</time>
      </trkpt>
      <trkpt lat="43.79015" lon="7.24778">
        <ele>620.67</ele>
        <time>2013-02-09T14:13:02Z</time>
      </trkpt>
      <trkpt lat="43.79022" lon="7.24763">
        <ele>615.86</ele>
        <time>2013-02-09T14:14:14Z</time>
      </trkpt>
      <trkpt lat="43.79039" lon="7.24748">
        <ele>615.38</ele>
        <time>2013-02-09T14:14:18Z</time>
      </trkpt>
      <trkpt lat="43.79074" lon="7.24702">
        <ele>614.42</ele>
        <time>2013-02-09T14:14:24Z</time>
      </trkpt>
      <trkpt lat="43.79122" lon="7.24666">
        <ele>609.61</ele>
        <time>2013-02-09T14:14:31Z</time>
      </trkpt>
      <trkpt lat="43.79133" lon="7.24661">
        <ele>590.39</ele>
        <time>2013-02-09T14:16:13Z</time>
      </trkpt>
      <trkpt lat="43.79098" lon="7.24672">
        <ele>590.39</ele>
        <time>2013-02-09T14:16:28Z</time>
      </trkpt>
      <trkpt lat="43.79063" lon="7.24683">
        <ele>588.46</ele>
        <time>2013-02-09T14:16:36Z</time>
      </trkpt>
      <trkpt lat="43.79053" lon="7.24685">
        <ele>587.98</ele>
        <time>2013-02-09T14:16:38Z</time>
      </trkpt>
      <trkpt lat="43.79026" lon="7.24681">
        <ele>586.54</ele>
        <time>2013-02-09T14:16:43Z</time>
      </trkpt>
      <trkpt lat="43.78987" lon="7.24692">
        <ele>584.14</ele>
        <time>2013-02-09T14:16:49Z</time>
      </trkpt>
      <trkpt lat="43.78947" lon="7.24674">
        <ele>581.25</ele>
        <time>2013-02-09T14:16:55Z</time>
      </trkpt>
      <trkpt lat="43.78933" lon="7.2465">
        <ele>579.81</ele>
        <time>2013-02-09T14:16:58Z</time>
      </trkpt>
      <trkpt lat="43.78906" lon="7.2464">
        <ele>577.89</ele>
        <time>2013-02-09T14:17:02Z</time>
      </trkpt>
      <trkpt lat="43.78863" lon="7.24658">
        <ele>575.49</ele>
        <time>2013-02-09T14:17:09Z</time>
      </trkpt>
      <trkpt lat="43.78845" lon="7.24645">
        <ele>573.56</ele>
        <time>2013-02-09T14:17:12Z</time>
      </trkpt>
      <trkpt lat="43.78832" lon="7.24633">
        <ele>572.12</ele>
        <time>2013-02-09T14:17:14Z</time>
      </trkpt>
      <trkpt lat="43.78811" lon="7.24599">
        <ele>568.76</ele>
        <time>2013-02-09T14:17:19Z</time>
      </trkpt>
      <trkpt lat="43.78797" lon="7.24607">
        <ele>566.83</ele>
        <time>2013-02-09T14:17:24Z</time>
      </trkpt>
      <trkpt lat="43.78772" lon="7.24704">
        <ele>562.99</ele>
        <time>2013-02-09T14:17:37Z</time>
      </trkpt>
      <trkpt lat="43.78763" lon="7.24738">
        <ele>561.55</ele>
        <time>2013-02-09T14:17:41Z</time>
      </trkpt>
      <trkpt lat="43.78723" lon="7.24763">
        <ele>558.66</ele>
        <time>2013-02-09T14:17:48Z</time>
      </trkpt>
      <trkpt lat="43.78682" lon="7.24736">
        <ele>557.22</ele>
        <time>2013-02-09T14:17:56Z</time>
      </trkpt>
      <trkpt lat="43.78676" lon="7.24716">
        <ele>556.26</ele>
        <time>2013-02-09T14:17:59Z</time>
      </trkpt>
      <trkpt lat="43.78668" lon="7.24689">
        <ele>555.3</ele>
        <time>2013-02-09T14:18:03Z</time>
      </trkpt>
      <trkpt lat="43.78647" lon="7.24655">
        <ele>553.86</ele>
        <time>2013-02-09T14:18:09Z</time>
      </trkpt>
      <trkpt lat="43.78627" lon="7.24641">
        <ele>552.9</ele>
        <time>2013-02-09T14:18:13Z</time>
      </trkpt>
      <trkpt lat="43.78604" lon="7.24642">
        <ele>551.45</ele>
        <time>2013-02-09T14:18:17Z</time>
      </trkpt>
      <trkpt lat="43.78577" lon="7.2466">
        <ele>549.53</ele>
        <time>2013-02-09T14:18:22Z</time>
      </trkpt>
      <trkpt lat="43.78565" lon="7.24657">
        <ele>546.65</ele>
        <time>2013-02-09T14:18:28Z</time>
      </trkpt>
      <trkpt lat="43.78581" lon="7.24626">
        <ele>544.72</ele>
        <time>2013-02-09T14:18:33Z</time>
      </trkpt>
      <trkpt lat="43.7861" lon="7.24599">
        <ele>542.8</ele>
        <time>2013-02-09T14:18:38Z</time>
      </trkpt>
      <trkpt lat="43.7863" lon="7.24589">
        <ele>540.4</ele>
        <time>2013-02-09T14:18:41Z</time>
      </trkpt>
      <trkpt lat="43.7865" lon="7.24536">
        <ele>534.63</ele>
        <time>2013-02-09T14:18:48Z</time>
      </trkpt>
      <trkpt lat="43.78647" lon="7.24519">
        <ele>533.19</ele>
        <time>2013-02-09T14:18:50Z</time>
      </trkpt>
      <trkpt lat="43.78643" lon="7.24503">
        <ele>531.75</ele>
        <time>2013-02-09T14:18:52Z</time>
      </trkpt>
      <trkpt lat="43.78645" lon="7.24453">
        <ele>528.38</ele>
        <time>2013-02-09T14:18:57Z</time>
      </trkpt>
      <trkpt lat="43.78656" lon="7.24404">
        <ele>523.09</ele>
        <time>2013-02-09T14:19:04Z</time>
      </trkpt>
      <trkpt lat="43.78651" lon="7.24405">
        <ele>522.13</ele>
        <time>2013-02-09T14:19:05Z</time>
      </trkpt>
      <trkpt lat="43.78625" lon="7.24424">
        <ele>518.77</ele>
        <time>2013-02-09T14:19:09Z</time>
      </trkpt>
      <trkpt lat="43.78588" lon="7.24433">
        <ele>513.48</ele>
        <time>2013-02-09T14:19:14Z</time>
      </trkpt>
      <trkpt lat="43.78553" lon="7.24425">
        <ele>509.16</ele>
        <time>2013-02-09T14:19:19Z</time>
      </trkpt>
      <trkpt lat="43.78451" lon="7.24367">
        <ele>499.54</ele>
        <time>2013-02-09T14:19:31Z</time>
      </trkpt>
      <trkpt lat="43.7843" lon="7.24361">
        <ele>583.5</ele>
      </trkpt>
      <trkpt lat="43.7843" lon="7.24433">
        <ele>495.7</ele>
        <time>2013-02-09T14:21:58Z</time>
      </trkpt>
      <trkpt lat="43.78426" lon="7.24459">
        <ele>494.74</ele>
        <time>2013-02-09T14:22:02Z</time>
      </trkpt>
      <trkpt lat="43.78423" lon="7.24468">
        <ele>494.74</ele>
        <time>2013-02-09T14:22:04Z</time>
      </trkpt>
      <trkpt lat="43.78426" lon="7.24476">
        <ele>495.22</ele>
        <time>2013-02-09T14:22:12Z</time>
      </trkpt>
      <trkpt lat="43.78427" lon="7.24474">
        <ele>499.54</ele>
        <time>2013-02-09T14:22:32Z</time>
      </trkpt>
      <trkpt lat="43.78428" lon="7.24474">
        <ele>502.43</ele>
        <time>2013-02-09T14:23:15Z</time>
      </trkpt>
      <trkpt lat="43.78429" lon="7.24475">
        <ele>502.43</ele>
        <time>2013-02-09T14:23:22Z</time>
      </trkpt>
    </trkseg>
  </trk>
</gpx>